[[{"header":{"parameterUnit":"m.s-1","parameterCategory":1,"la1":30.6,"la2":28.766,"lo1":-90.7593,"lo2":-88.6598,"dy":0.0162,"dx":0.0183,"nx":116,"ny":114,"refTime":"2023-02-25T06:00:00:Z","depth":0,"parameterNumber":2,"parameterNumberName":"U-component_of_WINDS"},"data":[0.0,0.0,0.0,0.0,0.0,0.0,0.0,0.0,0.0,0.0,0.0,0.0,0.0,0.0,0.0,0.0,0.0,0.0,0.0,0.0,0.0,0.0,0.0,0.0,0.0,0.0,0.0,0.0,0.0,0.0,0.0,0.0,0.0,0.0,0.0,0.0,0.0,0.0,0.0,0.0,0.0,0.0,0.0,0.0,0.0,0.0,0.0,0.0,0.0,0.0,0.0,0.0,0.0,0.0,0.0,0.0,0.0,0.0,0.0,0.0,0.0,0.0,0.0,0.0,0.0,0.0,0.0,0.0,0.0,0.0,0.0,0.0,0.0,0.0,0.0,0.0,0.0,0.0,0.0,0.0,0.0,0.0,0.0,0.0,0.0,0.0,0.0,0.0,0.0,0.0,0.0,0.0,0.0,0.0,0.0,0.0,0.0,0.0,0.0,0.0,0.0,0.0,0.0,0.0,0.0,0.0,0.0,0.0,0.0,0.0,0.0,0.0,0.0,0.0,0.0,0.0,0.0,0.0,0.0,0.0,0.0,0.0,0.0,0.0,0.0,0.0,0.0,0.0,0.0,0.0,0.0,0.0,0.0,0.0,0.0,0.0,0.0,0.0,0.0,0.0,0.0,0.0,0.0,0.0,0.0,0.0,0.0,0.0,0.0,0.0,0.0,0.0,0.0,0.0,0.0,0.0,0.0,0.0,0.0,0.0,0.0,0.0,0.0,0.0,0.0,0.0,0.0,0.0,0.0,0.0,0.0,0.0,0.0,0.0,0.0,0.0,0.0,0.0,0.0,0.0,0.0,0.0,0.0,0.0,0.0,0.0,0.0,0.0,0.0,0.0,0.0,0.0,0.0,0.0,0.0,0.0,0.0,0.0,0.0,0.0,0.0,0.0,0.0,0.0,0.0,0.0,0.0,0.0,0.0,0.0,0.0,0.0,0.0,0.0,0.0,0.0,0.0,0.0,0.0,0.0,0.0,0.0,0.0,0.0,0.0,0.0,0.0,0.0,0.0,0.0,0.0,0.0,0.0,0.0,0.0,0.0,0.0,0.0,0.0,0.0,0.0,0.0,0.0,0.0,0.0,0.0,0.0,0.0,0.0,0.0,0.0,0.0,0.0,0.0,0.0,0.0,0.0,0.0,0.0,0.0,0.0,0.0,0.0,0.0,0.0,0.0,0.0,0.0,0.0,0.0,0.0,0.0,0.0,0.0,0.0,0.0,0.0,0.0,0.0,0.0,0.0,0.0,0.0,0.0,0.0,0.0,0.0,0.0,0.0,0.0,0.0,0.0,0.0,0.0,0.0,0.0,0.0,0.0,0.0,0.0,0.0,0.0,0.0,0.0,0.0,0.0,0.0,0.0,0.0,0.0,0.0,0.0,0.0,0.0,0.0,0.0,0.0,0.0,0.0,0.0,0.0,0.0,0.0,0.0,0.0,0.0,0.0,0.0,0.0,0.0,0.0,0.0,0.0,0.0,0.0,0.0,0.0,0.0,0.0,0.0,0.0,0.0,0.0,0.0,0.0,0.0,0.0,0.0,0.0,0.0,0.0,0.0,0.0,0.0,0.0,0.0,0.0,0.0,0.0,0.0,0.0,0.0,0.0,0.0,0.0,0.0,0.0,0.0,0.0,0.0,0.0,0.0,0.0,0.0,0.0,0.0,0.0,0.0,0.0,0.0,0.0,0.0,0.0,0.0,0.0,0.0,0.0,0.0,0.0,0.0,0.0,0.0,0.0,0.0,0.0,0.0,0.0,0.0,0.0,0.0,0.0,0.0,0.0,0.0,0.0,0.0,0.0,0.0,0.0,0.0,0.0,0.0,0.0,0.0,0.0,0.0,0.0,0.0,0.0,0.0,0.0,0.0,0.0,0.0,0.0,0.0,0.0,0.0,0.0,0.0,0.0,0.0,0.0,0.0,0.0,0.0,0.0,0.0,0.0,0.0,0.0,0.0,0.0,0.0,0.0,0.0,0.0,0.0,0.0,0.0,0.0,0.0,0.0,0.0,0.0,0.0,0.0,0.0,0.0,0.0,0.0,0.0,0.0,0.0,0.0,0.0,0.0,0.0,0.0,0.0,0.0,0.0,0.0,0.0,0.0,0.0,0.0,0.0,0.0,0.0,0.0,0.0,0.0,0.0,0.0,0.0,0.0,0.0,0.0,0.0,0.0,0.0,0.0,0.0,0.0,0.0,0.0,0.0,0.0,0.0,0.0,0.0,0.0,0.0,0.0,0.0,0.0,0.0,0.0,0.0,0.0,0.0,0.0,0.0,0.0,0.0,0.0,0.0,0.0,0.0,0.0,0.0,0.0,0.0,0.0,0.0,0.0,0.0,0.0,0.0,0.0,0.0,0.0,0.0,0.0,0.0,0.0,0.0,0.0,0.0,0.0,0.0,0.0,0.0,0.0,0.0,0.0,0.0,0.0,0.0,0.0,0.0,0.0,0.0,0.0,0.0,0.0,0.0,0.0,0.0,0.0,0.0,0.0,0.0,0.0,0.0,0.0,0.0,0.0,0.0,0.0,0.0,0.0,0.0,0.0,0.0,0.0,0.0,0.0,0.0,0.0,0.0,0.0,0.0,0.0,0.0,0.0,0.0,0.0,0.0,0.0,0.0,0.0,0.0,0.0,0.0,0.0,0.0,0.0,0.0,0.0,0.0,0.0,0.0,0.0,0.0,0.0,0.0,0.0,0.0,0.0,0.0,0.0,0.0,0.0,0.0,0.0,0.0,0.0,0.0,0.0,0.0,0.0,0.0,0.0,0.0,0.0,0.0,0.0,0.0,0.0,0.0,0.0,0.0,0.0,0.0,0.0,0.0,0.0,0.0,0.0,0.0,0.0,0.0,0.0,0.0,0.0,0.0,0.0,0.0,0.0,0.0,0.0,0.0,0.0,0.0,0.0,0.0,0.0,0.0,0.0,0.0,0.0,0.0,0.0,0.0,0.0,0.0,0.0,0.0,0.0,0.0,0.0,0.0,0.0,0.0,0.0,0.0,0.0,0.0,0.0,0.0,0.0,0.0,0.0,0.0,0.0,0.0,0.0,0.0,0.0,0.0,0.0,0.0,0.0,0.0,0.0,0.0,0.0,0.0,0.0,0.0,0.0,0.0,0.0,0.0,0.0,0.0,0.0,0.0,0.0,0.0,0.0,0.0,0.0,0.0,0.0,0.0,0.0,0.0,0.0,0.0,0.0,0.0,0.0,0.0,0.0,0.0,0.0,0.0,0.0,0.0,0.0,0.0,0.0,0.0,0.0,0.0,0.0,0.0,0.0,0.0,0.0,0.0,0.0,0.0,0.0,0.0,0.0,0.0,0.0,0.0,0.0,0.0,0.0,0.0,0.0,0.0,0.0,0.0,0.0,0.0,0.0,0.0,0.0,0.0,0.0,0.0,0.0,0.0,0.0,0.0,0.0,0.0,0.0,0.0,0.0,0.0,0.0,0.0,0.0,0.0,0.0,0.0,0.0,0.0,0.0,0.0,0.0,0.0,0.0,0.0,0.0,0.0,0.0,0.0,0.0,0.0,0.0,0.0,0.0,0.0,0.0,0.0,0.0,0.0,0.0,0.0,0.0,0.0,0.0,0.0,0.0,0.0,0.0,0.0,0.0,0.0,0.0,0.0,0.0,0.0,0.0,0.0,0.0,0.0,0.0,0.0,0.0,0.0,0.0,0.0,0.0,0.0,0.0,0.0,0.0,0.0,0.0,0.0,0.0,0.0,0.0,0.0,0.0,0.0,0.0,0.0,0.0,0.0,0.0,0.0,0.0,0.0,0.0,0.0,0.0,0.0,0.0,0.0,0.0,0.0,0.0,0.0,0.0,0.0,0.0,0.0,0.0,0.0,0.0,0.0,0.0,0.0,0.0,0.0,0.0,0.0,0.0,0.0,0.0,0.0,0.0,0.0,0.0,0.0,0.0,0.0,0.0,0.0,0.0,0.0,0.0,0.0,0.0,0.0,0.0,0.0,0.0,0.0,0.0,0.0,0.0,0.0,0.0,0.0,0.0,0.0,0.0,0.0,0.0,0.0,0.0,0.0,0.0,0.0,0.0,0.0,0.0,0.0,0.0,0.0,0.0,0.0,0.0,0.0,0.0,0.0,0.0,0.0,0.0,0.0,0.0,0.0,0.0,0.0,0.0,0.0,0.0,0.0,0.0,0.0,0.0,0.0,0.0,0.0,0.0,0.0,0.0,0.0,0.0,0.0,0.0,0.0,0.0,0.0,0.0,0.0,0.0,0.0,0.0,0.0,0.0,0.0,0.0,0.0,0.0,0.0,0.0,0.0,0.0,0.0,0.0,0.0,0.0,0.0,0.0,0.0,0.0,0.0,0.0,0.0,0.0,0.0,0.0,0.0,0.0,0.0,0.0,0.0,0.0,0.0,0.0,0.0,0.0,0.0,0.0,0.0,0.0,0.0,0.0,0.0,0.0,0.0,0.0,0.0,0.0,0.0,0.0,0.0,0.0,0.0,0.0,0.0,0.0,0.0,0.0,0.0,0.0,0.0,0.0,0.0,0.0,0.0,0.0,0.0,0.0,0.0,0.0,0.0,0.0,0.0,0.0,0.0,0.0,0.0,0.0,0.0,0.0,0.0,0.0,0.0,0.0,0.0,0.0,0.0,0.0,0.0,0.0,0.0,0.0,0.0,0.0,0.0,0.0,0.0,0.0,0.0,0.0,0.0,0.0,0.0,0.0,0.0,0.0,0.0,0.0,0.0,0.0,0.0,0.0,0.0,0.0,0.0,0.0,0.0,0.0,0.0,0.0,0.0,0.0,0.0,0.0,0.0,0.0,0.0,0.0,0.0,0.0,0.0,0.0,0.0,0.0,0.0,0.0,0.0,0.0,0.0,0.0,0.0,0.0,0.0,0.0,0.0,0.0,0.0,0.0,0.0,0.0,0.0,0.0,0.0,0.0,0.0,0.0,0.0,0.0,0.0,0.0,0.0,0.0,0.0,0.0,0.0,0.0,0.0,0.0,0.0,0.0,0.0,0.0,0.0,0.0,0.0,0.0,0.0,0.0,0.0,0.0,0.0,0.0,0.0,0.0,0.0,0.0,0.0,0.0,0.0,0.0,0.0,0.0,0.0,0.0,0.0,0.0,0.0,0.0,0.0,0.0,0.0,0.0,0.0,0.0,0.0,0.0,0.0,0.0,0.0,0.0,0.0,0.0,0.0,0.0,0.0,0.0,0.0,0.0,0.0,0.0,0.0,0.0,0.0,0.0,0.0,0.0,0.0,0.0,0.0,0.0,0.0,0.0,0.0,0.0,0.0,0.0,0.0,0.0,0.0,0.0,0.0,0.0,0.0,0.0,0.0,0.0,0.0,0.0,0.0,0.0,0.0,0.0,0.0,0.0,0.0,0.0,0.0,0.0,0.0,0.0,0.0,0.0,0.0,0.0,0.0,0.0,0.0,0.0,0.0,0.0,0.0,0.0,0.0,0.0,0.0,0.0,0.0,0.0,0.0,0.0,0.0,0.0,0.0,0.0,0.0,0.0,0.0,0.0,0.0,0.0,0.0,0.0,0.0,0.0,0.0,0.0,0.0,0.0,0.0,0.0,0.0,0.0,0.0,0.0,0.0,0.0,0.0,0.0,0.0,0.0,0.0,0.0,0.0,0.0,0.0,0.0,0.0,0.0,0.0,0.0,0.0,0.0,0.0,0.0,0.0,0.0,0.0,0.0,0.0,0.0,0.0,0.0,0.0,0.0,0.0,0.0,0.0,0.0,0.0,0.0,0.0,0.0,0.0,0.0,0.0,0.0,0.0,0.0,0.0,0.0,0.0,0.0,0.0,0.0,0.0,0.0,0.0,0.0,0.0,0.0,0.0,0.0,0.0,0.0,0.0,0.0,0.0,0.0,0.0,0.0,0.0,0.0,0.0,0.0,0.0,0.0,0.0,0.0,0.0,0.0,0.0,0.0,0.0,0.0,0.0,0.0,0.0,0.0,0.0,0.0,0.0,0.0,0.0,0.0,0.0,0.0,0.0,0.0,0.0,0.0,0.0,0.0,0.0,0.0,0.0,0.0,0.0,0.0,0.0,0.0,0.0,0.0,0.0,0.0,0.0,0.0,0.0,0.0,0.0,0.0,0.0,-6.9344,-6.9573,0.0,0.0,0.0,0.0,0.0,0.0,0.0,0.0,0.0,0.0,0.0,0.0,0.0,0.0,0.0,0.0,0.0,0.0,0.0,0.0,0.0,0.0,0.0,0.0,0.0,0.0,0.0,0.0,0.0,0.0,0.0,0.0,0.0,0.0,0.0,0.0,0.0,0.0,0.0,0.0,0.0,0.0,0.0,0.0,0.0,0.0,0.0,0.0,0.0,0.0,0.0,0.0,0.0,0.0,0.0,0.0,0.0,0.0,0.0,0.0,0.0,0.0,0.0,0.0,0.0,0.0,0.0,0.0,0.0,0.0,0.0,0.0,0.0,0.0,0.0,0.0,0.0,0.0,0.0,0.0,0.0,0.0,0.0,0.0,0.0,0.0,0.0,0.0,0.0,0.0,0.0,0.0,0.0,0.0,0.0,0.0,0.0,0.0,0.0,0.0,0.0,0.0,0.0,0.0,0.0,0.0,0.0,0.0,0.0,0.0,0.0,0.0,0.0,0.0,-7.0342,-6.9701,0.0,0.0,0.0,0.0,0.0,0.0,0.0,0.0,0.0,0.0,0.0,0.0,0.0,0.0,0.0,0.0,0.0,0.0,0.0,0.0,0.0,0.0,0.0,0.0,0.0,0.0,0.0,0.0,0.0,0.0,0.0,0.0,0.0,0.0,0.0,0.0,0.0,0.0,0.0,0.0,0.0,0.0,0.0,0.0,0.0,0.0,0.0,0.0,0.0,0.0,0.0,0.0,0.0,0.0,0.0,0.0,0.0,0.0,0.0,0.0,0.0,0.0,0.0,0.0,0.0,0.0,0.0,0.0,0.0,0.0,0.0,0.0,0.0,0.0,0.0,0.0,0.0,0.0,0.0,0.0,0.0,0.0,0.0,0.0,0.0,0.0,0.0,0.0,0.0,0.0,0.0,0.0,0.0,0.0,0.0,0.0,0.0,0.0,0.0,0.0,0.0,0.0,0.0,0.0,0.0,0.0,0.0,0.0,-7.2688,-7.372,-7.32,-7.5546,-7.675,-7.6734,-7.3327,-7.1891,-7.1936,-7.1816,0.0,0.0,0.0,0.0,0.0,0.0,0.0,0.0,0.0,0.0,0.0,0.0,0.0,0.0,0.0,0.0,0.0,0.0,0.0,0.0,0.0,0.0,0.0,0.0,0.0,0.0,0.0,0.0,0.0,0.0,0.0,0.0,0.0,0.0,0.0,0.0,0.0,0.0,0.0,0.0,0.0,0.0,0.0,0.0,0.0,0.0,0.0,0.0,0.0,0.0,0.0,0.0,0.0,0.0,0.0,0.0,0.0,0.0,0.0,0.0,0.0,0.0,0.0,0.0,0.0,0.0,0.0,0.0,0.0,0.0,0.0,0.0,0.0,0.0,0.0,0.0,0.0,0.0,0.0,0.0,0.0,0.0,0.0,0.0,0.0,0.0,-6.0296,-6.0894,0.0,0.0,0.0,0.0,0.0,0.0,0.0,0.0,0.0,0.0,0.0,0.0,0.0,-6.8136,-6.9572,-7.1846,-7.3073,-7.3283,-7.6484,-7.7984,-7.7891,-7.8885,-7.9965,-8.0943,-7.9845,0.0,-7.6006,-7.5467,0.0,0.0,0.0,0.0,0.0,0.0,0.0,0.0,0.0,0.0,0.0,0.0,0.0,0.0,0.0,0.0,0.0,0.0,0.0,0.0,0.0,0.0,0.0,0.0,0.0,0.0,0.0,0.0,0.0,0.0,0.0,0.0,0.0,0.0,0.0,0.0,0.0,0.0,0.0,0.0,0.0,0.0,0.0,0.0,0.0,0.0,0.0,0.0,0.0,0.0,0.0,0.0,0.0,0.0,0.0,0.0,0.0,0.0,0.0,0.0,0.0,0.0,0.0,0.0,0.0,0.0,0.0,0.0,0.0,0.0,0.0,0.0,0.0,0.0,0.0,0.0,0.0,0.0,0.0,0.0,0.0,0.0,0.0,0.0,0.0,-6.0326,-6.1194,-6.1134,-6.1493,-6.1313,0.0,0.0,0.0,0.0,0.0,0.0,0.0,0.0,0.0,-6.8704,-7.041,-7.1936,-7.3283,-7.5527,-7.7203,-7.837,-8.0524,-8.1961,-8.2679,-8.3367,-8.4205,-8.5103,-8.4803,-8.3816,-8.211,-7.8878,-7.6544,-7.4958,0.0,0.0,0.0,0.0,-7.5647,-7.6634,0.0,0.0,0.0,0.0,0.0,0.0,0.0,0.0,0.0,0.0,0.0,0.0,0.0,0.0,0.0,0.0,0.0,0.0,0.0,0.0,0.0,0.0,0.0,0.0,0.0,0.0,0.0,0.0,0.0,0.0,0.0,0.0,0.0,0.0,0.0,0.0,0.0,0.0,0.0,0.0,0.0,0.0,0.0,0.0,0.0,0.0,0.0,0.0,0.0,0.0,0.0,0.0,0.0,0.0,0.0,0.0,0.0,0.0,0.0,0.0,0.0,0.0,0.0,0.0,0.0,0.0,0.0,0.0,0.0,0.0,0.0,0.0,0.0,0.0,0.0,0.0,0.0,-6.1104,-6.2271,-6.1463,-6.2959,-6.3169,0.0,0.0,0.0,0.0,0.0,0.0,-6.6939,-6.8914,-7.0679,-7.2146,-7.4121,-7.5946,-7.7652,-7.9417,-8.1212,-8.3038,-8.4354,-8.5611,-8.6748,-8.7377,-8.7975,-8.8454,-8.8454,-8.8065,-8.7077,-8.2469,-7.9417,-7.7592,-7.6904,-7.6245,-7.5796,-7.6784,-7.7861,-7.8908,0.0,0.0,0.0,0.0,0.0,0.0,0.0,0.0,0.0,0.0,0.0,0.0,0.0,0.0,0.0,0.0,0.0,0.0,0.0,0.0,0.0,0.0,0.0,0.0,0.0,0.0,0.0,0.0,0.0,0.0,0.0,0.0,0.0,0.0,0.0,0.0,0.0,0.0,0.0,0.0,0.0,0.0,0.0,0.0,0.0,0.0,0.0,0.0,0.0,0.0,0.0,0.0,0.0,0.0,0.0,0.0,0.0,0.0,0.0,0.0,0.0,0.0,0.0,0.0,0.0,0.0,0.0,0.0,0.0,0.0,0.0,0.0,0.0,0.0,0.0,0.0,0.0,0.0,0.0,-6.2181,-6.4844,0.0,0.0,0.0,0.0,-6.4814,-6.664,-6.8345,-6.9722,-7.1637,-7.3612,-7.5587,-7.7532,-7.9776,-8.2455,-8.3756,-8.5103,-8.6449,-8.7796,-8.8813,-8.9501,-9.016,-9.0459,-9.0489,-9.0489,-9.013,-8.9292,-8.6509,-8.4175,-8.235,-8.1691,-8.1033,-8.0464,-8.0524,-8.1003,-8.1661,0.0,0.0,0.0,0.0,0.0,0.0,0.0,0.0,0.0,0.0,0.0,0.0,0.0,0.0,0.0,0.0,0.0,0.0,0.0,0.0,0.0,0.0,0.0,0.0,0.0,0.0,0.0,0.0,0.0,0.0,0.0,0.0,0.0,0.0,0.0,0.0,0.0,0.0,0.0,0.0,0.0,0.0,0.0,0.0,0.0,0.0,0.0,0.0,0.0,0.0,0.0,0.0,0.0,0.0,0.0,0.0,0.0,0.0,0.0,0.0,0.0,0.0,0.0,0.0,0.0,0.0,0.0,0.0,0.0,0.0,0.0,0.0,0.0,0.0,0.0,0.0,0.0,0.0,0.0,-6.5832,-6.8405,0.0,-6.7328,-6.7807,-6.8196,-6.8196,-7.0799,-7.2984,-7.433,-7.6664,-7.8908,-8.0883,-8.2439,-8.4115,-8.594,-8.6838,-8.7706,-8.8604,-8.9082,-8.9651,-9.0309,-9.0519,-9.0638,-9.0638,-9.0638,-9.0519,-9.0219,-8.9262,-8.7197,-8.4534,-8.3457,-8.2649,-8.211,-8.2529,-8.3367,-8.4384,0.0,0.0,0.0,0.0,0.0,0.0,0.0,0.0,0.0,0.0,0.0,0.0,0.0,0.0,0.0,0.0,0.0,0.0,0.0,0.0,0.0,0.0,0.0,0.0,0.0,0.0,0.0,0.0,0.0,0.0,0.0,0.0,0.0,0.0,0.0,0.0,0.0,0.0,0.0,0.0,0.0,0.0,-5.1373,0.0,0.0,0.0,0.0,0.0,0.0,0.0,0.0,0.0,0.0,0.0,0.0,0.0,0.0,0.0,0.0,0.0,0.0,0.0,0.0,0.0,0.0,0.0,0.0,0.0,0.0,0.0,0.0,0.0,0.0,0.0,0.0,0.0,0.0,-6.4366,-6.7508,-6.8794,-7.1876,-7.3283,-7.1757,-7.2415,-7.2864,-7.2595,-7.5467,-7.7682,-7.8759,-8.1123,-8.3158,-8.4684,-8.5791,-8.7018,-8.8364,-8.8813,-8.9352,-8.998,-8.998,-9.0219,-9.0638,-9.0638,-9.0638,-9.0638,-9.0638,-9.0638,-9.0638,-9.0638,-8.9352,-8.7257,-8.615,-8.5342,-8.4803,-8.5252,-8.609,-8.7137,0.0,0.0,0.0,0.0,0.0,0.0,0.0,0.0,0.0,0.0,0.0,0.0,0.0,0.0,0.0,0.0,0.0,0.0,0.0,0.0,0.0,0.0,0.0,0.0,0.0,0.0,0.0,0.0,0.0,0.0,0.0,0.0,0.0,0.0,0.0,0.0,0.0,0.0,0.0,0.0,0.0,0.0,-5.3482,0.0,0.0,0.0,0.0,0.0,0.0,0.0,0.0,0.0,0.0,0.0,0.0,0.0,0.0,0.0,0.0,0.0,0.0,0.0,0.0,0.0,0.0,0.0,0.0,0.0,0.0,0.0,0.0,0.0,0.0,0.0,0.0,0.0,-6.2331,-6.6251,-6.9662,-7.0979,-7.5168,-7.7203,-7.5318,-7.7442,-7.8669,-7.8041,-8.0434,-8.223,-8.2964,-8.4743,-8.609,-8.6748,-8.7407,-8.8394,-8.9681,-8.9711,-9.001,-9.0638,-9.0638,-9.0638,-9.0638,-9.0638,-9.0638,-9.0638,-9.0638,-9.0638,-9.0638,-9.0638,-9.0638,-9.0579,-8.995,-8.9292,-8.8753,-8.8753,-8.9142,-8.9771,0.0,0.0,0.0,0.0,0.0,0.0,0.0,0.0,0.0,0.0,0.0,0.0,0.0,0.0,0.0,0.0,0.0,0.0,0.0,0.0,0.0,0.0,0.0,0.0,0.0,0.0,0.0,0.0,0.0,0.0,0.0,0.0,0.0,0.0,0.0,0.0,0.0,0.0,0.0,0.0,0.0,0.0,-5.4084,0.0,0.0,0.0,0.0,0.0,0.0,0.0,0.0,0.0,0.0,0.0,0.0,0.0,0.0,0.0,0.0,0.0,0.0,0.0,0.0,0.0,0.0,0.0,0.0,0.0,0.0,0.0,0.0,0.0,0.0,0.0,-6.3588,-6.5323,-6.5592,-6.9632,-7.3552,-7.6305,-7.9028,-8.0674,-8.0584,-8.1661,-8.229,-8.211,-8.4115,-8.5641,-8.6299,-8.7317,-8.8155,-8.8813,-8.9023,-8.9531,-9.0369,-9.0369,-9.0459,-9.0638,-9.0638,-9.0638,-9.0638,-9.0638,-9.0638,-9.0638,-9.0638,-9.0638,-9.0638,-9.0638,-9.0638,-9.0608,-9.0429,-9.0249,-9.01,-9.01,-9.0219,-9.0399,0.0,0.0,0.0,0.0,0.0,0.0,0.0,0.0,0.0,0.0,0.0,0.0,0.0,0.0,0.0,0.0,0.0,0.0,0.0,0.0,0.0,0.0,0.0,0.0,0.0,0.0,0.0,0.0,0.0,0.0,0.0,0.0,0.0,0.0,0.0,0.0,0.0,0.0,0.0,0.0,0.0,0.0,-5.6344,-5.3683,-5.2729,-5.2678,-5.1448,-5.1272,-5.1498,-5.0594,0.0,0.0,0.0,0.0,0.0,0.0,0.0,0.0,0.0,0.0,0.0,0.0,0.0,0.0,0.0,0.0,0.0,0.0,0.0,0.0,0.0,0.0,0.0,0.0,-6.5981,-6.8675,-7.047,-7.3253,-7.6335,-7.9656,-8.205,-8.3786,-8.4743,-8.5432,-8.5821,-8.5821,-8.7137,-8.8095,-8.8514,-8.9142,-8.9681,-9.007,-9.007,-9.0249,-9.0638,-9.0638,-9.0638,-9.0638,-9.0638,-9.0638,-9.0638,-9.0908,-9.1057,-9.1057,-9.1327,-9.1446,-9.1446,-9.1147,-9.1207,-9.1416,0.0,0.0,0.0,0.0,-9.0638,-9.0638,0.0,0.0,0.0,0.0,0.0,0.0,0.0,0.0,0.0,0.0,0.0,0.0,0.0,0.0,0.0,0.0,0.0,0.0,0.0,0.0,0.0,0.0,0.0,0.0,0.0,0.0,0.0,0.0,0.0,0.0,0.0,0.0,0.0,0.0,0.0,0.0,0.0,0.0,0.0,0.0,0.0,0.0,-5.9257,-5.6118,-5.5516,-5.6043,-5.4034,-5.303,-5.2553,-5.1875,0.0,0.0,0.0,0.0,0.0,0.0,0.0,0.0,0.0,0.0,0.0,0.0,0.0,0.0,0.0,0.0,0.0,0.0,0.0,0.0,0.0,0.0,0.0,0.0,-6.8824,-7.2505,-7.5766,-7.7023,-7.8759,-8.1871,-8.4354,-8.6329,-8.7676,-8.8424,-8.8783,-8.8783,-8.9412,-8.9771,-8.9771,-9.0339,0.0,0.0,0.0,-9.0638,-9.0638,-9.0698,-9.0758,-9.0758,-9.0818,-9.0848,-9.0878,-9.1446,-9.1716,-9.1776,-9.2344,-9.2613,-9.2554,-9.1985,-9.2015,-9.2374,-9.1207,-9.0698,-9.0638,-9.0638,-9.0638,-9.0638,0.0,0.0,0.0,0.0,0.0,0.0,0.0,0.0,0.0,0.0,0.0,0.0,0.0,0.0,0.0,0.0,0.0,0.0,0.0,0.0,0.0,0.0,0.0,0.0,0.0,0.0,0.0,0.0,0.0,0.0,0.0,0.0,0.0,0.0,0.0,0.0,0.0,0.0,0.0,0.0,0.0,0.0,-5.9935,-5.8001,-5.7097,-5.6771,-5.5892,-5.5792,-5.5867,-5.4411,-5.416,-5.411,-5.2226,0.0,0.0,0.0,0.0,0.0,0.0,0.0,0.0,0.0,0.0,0.0,0.0,0.0,0.0,0.0,0.0,0.0,0.0,0.0,0.0,-6.8375,-7.1846,-7.5078,-7.7831,-8.0644,-8.3038,-8.4743,-8.5851,-8.7018,-8.8364,-8.9082,-8.9471,-8.9471,-9.007,-9.0459,-9.0459,-9.0579,-9.0638,-9.0638,-9.0638,-9.0638,-9.0638,-9.1177,-9.1446,-9.1446,-9.1955,0.0,-9.2224,-9.2344,-9.2404,-9.2404,-9.2554,-9.2613,-9.2583,-9.2464,-9.2165,-9.1776,-9.1536,-9.1117,-9.0638,-9.0638,-9.0638,-9.0638,0.0,0.0,0.0,0.0,0.0,0.0,0.0,0.0,0.0,0.0,0.0,0.0,0.0,0.0,0.0,0.0,0.0,0.0,0.0,0.0,0.0,0.0,0.0,0.0,0.0,0.0,0.0,0.0,0.0,0.0,0.0,0.0,0.0,0.0,0.0,0.0,0.0,0.0,0.0,0.0,0.0,0.0,-6.1391,-5.9734,-5.893,-5.8604,-5.8052,-5.77,-5.7298,-5.6168,-5.5792,-5.5516,-5.3858,-5.2955,-5.2151,0.0,0.0,0.0,0.0,0.0,0.0,0.0,0.0,0.0,0.0,0.0,0.0,0.0,0.0,-6.1702,-6.3677,0.0,-6.8076,-7.1368,-7.4689,-7.7771,-8.0405,-8.3038,-8.4833,-8.5162,-8.6659,-8.8065,-8.9082,-8.9771,-9.016,-9.016,-9.0459,-9.0638,-9.0638,-9.0638,-9.0638,-9.0638,-9.0638,-9.0788,-9.1117,-9.1446,-9.1776,-9.2105,-9.2434,-9.2613,-9.2613,-9.2943,-9.3092,-9.3122,-9.3451,-9.3421,-9.3062,-9.2733,-9.2194,-9.1626,-9.1626,-9.1207,-9.0638,-9.0638,-9.0638,-9.0638,0.0,0.0,0.0,0.0,0.0,0.0,0.0,0.0,0.0,0.0,0.0,0.0,0.0,0.0,0.0,0.0,0.0,0.0,0.0,0.0,0.0,0.0,0.0,0.0,0.0,0.0,0.0,0.0,0.0,0.0,0.0,0.0,0.0,0.0,0.0,0.0,0.0,0.0,0.0,0.0,0.0,0.0,-6.2847,-6.1492,-6.0914,-6.0713,-6.006,-5.9056,-5.7976,-5.7399,-5.6771,-5.6068,-5.5164,-5.4486,-5.3607,-5.1523,-5.0921,0.0,0.0,0.0,0.0,0.0,0.0,0.0,0.0,-5.9578,-6.0595,-6.248,-6.3588,-6.4964,-6.7298,-6.9482,-7.1787,-7.442,-7.7382,-8.0255,-8.2769,-8.4714,-8.5791,-8.5521,-8.7496,-8.9142,-8.9801,-9.0339,-9.0638,-9.0638,-9.0638,-9.0638,-9.0638,-9.0758,-9.0818,-9.0818,-9.0968,-9.1207,-9.1626,-9.1865,-9.2194,-9.2613,-9.2853,-9.3002,-9.3002,-9.3541,-9.378,-9.381,-9.4379,-9.4229,-9.3541,-9.3002,-9.2314,-9.1626,-9.1626,-9.1207,-9.0638,-9.0638,-9.0638,-9.0638,0.0,0.0,0.0,0.0,0.0,0.0,0.0,0.0,0.0,0.0,0.0,0.0,0.0,0.0,0.0,0.0,0.0,0.0,0.0,0.0,0.0,0.0,0.0,0.0,0.0,0.0,0.0,0.0,0.0,0.0,0.0,0.0,0.0,0.0,0.0,0.0,0.0,0.0,0.0,0.0,0.0,0.0,-6.3576,-6.34,-6.2998,-6.2421,-6.1366,-5.9985,-5.8554,-5.7976,-5.7097,-5.6194,-5.6068,-5.5641,-5.4863,-5.3155,0.0,-4.9874,-5.0054,-5.1477,-5.3777,-5.7646,-5.8393,-5.889,0.0,-6.3019,-6.3857,-6.5263,-6.7029,-6.8764,-7.0201,-7.2595,-7.5198,-7.7831,-8.0045,-8.217,-8.4205,-8.5701,-8.6988,-8.8095,-8.9023,-8.9801,-9.0459,-9.0608,-9.0638,-9.0638,-9.0638,-9.0638,-9.0638,-9.1177,-9.1506,-9.1506,-9.2075,-9.2135,-9.1626,-9.2763,-9.3092,-9.2613,-9.381,-9.4379,-9.4379,-9.4469,-9.4499,-9.4499,-9.4588,-9.4229,-9.3571,-9.3511,-9.2733,-9.1626,-9.1626,-9.1207,-9.0638,-9.0638,-9.0638,-9.0638,0.0,0.0,0.0,0.0,0.0,0.0,0.0,0.0,0.0,0.0,0.0,0.0,0.0,0.0,0.0,0.0,0.0,0.0,0.0,0.0,0.0,0.0,0.0,0.0,0.0,0.0,0.0,0.0,0.0,0.0,0.0,0.0,0.0,0.0,0.0,0.0,0.0,0.0,0.0,0.0,0.0,0.0,-6.4103,-6.3802,-6.2722,-6.1266,-6.0487,-5.9131,0.0,0.0,-5.6118,-5.5742,-5.5742,-5.5114,-5.421,-5.3231,-5.1961,0.0,-5.2431,-5.4335,-5.6444,-5.8578,-6.0057,-6.1672,-6.4216,-6.5263,-6.643,-6.8914,-7.041,-7.1906,-7.3971,-7.6215,-7.837,-8.0225,-8.2529,-8.4354,-8.5162,-8.6748,-8.7766,-8.7526,-8.8125,-8.9082,-9.0489,-9.0638,-9.0638,-9.0638,-9.0997,-9.1207,-9.1207,-9.1835,-9.2194,-9.2194,-9.2464,-9.2643,-9.2763,-9.3302,-9.3631,-9.378,-9.4349,-9.4618,-9.4618,-9.4618,-9.4618,-9.4588,-9.4199,-9.384,-9.3511,-9.2763,-9.2105,-9.1566,-9.1207,-9.0878,-9.0638,-9.0638,-9.0638,-9.0638,0.0,0.0,0.0,0.0,0.0,0.0,0.0,0.0,0.0,0.0,0.0,0.0,0.0,0.0,0.0,0.0,0.0,0.0,0.0,0.0,0.0,0.0,0.0,0.0,0.0,0.0,0.0,0.0,0.0,0.0,0.0,0.0,0.0,0.0,0.0,0.0,0.0,0.0,0.0,0.0,0.0,0.0,-6.4153,-6.3324,-6.1492,-5.9332,-5.878,-5.7424,0.0,0.0,-5.416,-5.4059,-5.421,-5.3808,-5.3199,-5.2877,-5.272,-5.2902,-5.4288,-5.6485,-5.874,-6.0116,-6.2181,-6.4545,-6.7059,-6.8136,-6.9453,-7.2385,-7.3672,-7.4899,-7.6993,-7.8998,-8.0853,-8.235,-8.4474,-8.615,-8.6718,-8.7736,-8.7975,-8.6808,-8.6778,-8.7437,-8.8873,-8.9681,-9.016,-9.0369,-9.1147,-9.1626,-9.1626,-9.2404,-9.2883,-9.2883,-9.3062,-9.3302,-9.3571,-9.378,-9.402,-9.4319,-9.4528,-9.4618,-9.4618,-9.4618,-9.4618,-9.4558,-9.387,-9.3481,-9.3212,-9.2075,-9.1506,-9.1297,-9.0818,-9.0638,-9.0638,-9.0638,-9.0638,-9.0638,0.0,0.0,0.0,0.0,0.0,0.0,0.0,0.0,0.0,0.0,0.0,0.0,0.0,0.0,0.0,0.0,0.0,0.0,0.0,0.0,0.0,0.0,0.0,0.0,0.0,0.0,0.0,0.0,0.0,0.0,0.0,0.0,0.0,0.0,0.0,0.0,0.0,0.0,0.0,0.0,0.0,0.0,-6.3525,-6.1893,-5.9533,-5.7072,-5.652,0.0,0.0,0.0,-5.1046,-5.067,-5.1222,-5.1749,0.0,-5.2516,-5.3494,0.0,0.0,-5.6916,-5.9847,-6.3049,-6.4904,-6.6939,-7.0829,-7.2235,-7.3313,-7.5377,-7.6784,-7.7891,-7.8579,-8.0375,-8.235,-8.4295,-8.5761,-8.7317,-8.9262,-8.8514,-8.7467,-8.6748,-8.5581,-8.4833,-8.4893,-8.7227,-8.9023,-8.9651,-9.0878,-9.1626,-9.1626,-9.2853,-9.3541,-9.3541,-9.4199,-9.4229,-9.3601,-9.4229,-9.4259,-9.3631,-9.4289,-9.4618,-9.4618,-9.4618,-9.4618,-9.4558,-9.387,-9.3212,-9.2583,-9.1895,-9.1237,-9.0668,-9.0638,-9.0638,-9.0638,-9.0638,-9.0638,-9.0638,0.0,0.0,0.0,0.0,0.0,0.0,0.0,0.0,0.0,0.0,0.0,0.0,0.0,0.0,0.0,0.0,0.0,0.0,0.0,0.0,0.0,0.0,0.0,0.0,0.0,0.0,0.0,0.0,0.0,0.0,0.0,0.0,0.0,0.0,0.0,0.0,0.0,0.0,0.0,0.0,0.0,0.0,-6.4404,-6.1266,-5.8579,-5.6168,0.0,0.0,0.0,0.0,0.0,0.0,-4.8862,0.0,0.0,-5.0291,0.0,0.0,0.0,-6.0648,-6.3737,-6.661,-6.8974,-7.1158,-7.3373,-7.4719,-7.5826,-7.6933,-7.6485,-7.6185,-7.7293,-7.84,-7.9806,-8.1781,-8.4684,-8.7077,-8.8215,-8.8723,-8.7945,-8.5073,-8.4714,-8.4205,-8.2888,-8.5162,-8.7347,-8.8903,-9.0219,-9.1357,-9.2224,-9.3092,-9.378,-9.4259,-9.4499,-9.4499,-9.4259,-9.4499,-9.4499,-9.4259,-9.4499,-9.4618,-9.4618,-9.4618,-9.4349,-9.39,-9.3691,-9.2972,-9.1925,-9.1716,-9.1237,-9.0638,-9.0638,-9.0638,-9.0638,-9.0638,-9.0369,-8.998,0.0,0.0,0.0,0.0,0.0,0.0,0.0,0.0,0.0,0.0,0.0,0.0,0.0,0.0,0.0,0.0,0.0,0.0,0.0,0.0,0.0,0.0,0.0,0.0,0.0,0.0,0.0,0.0,0.0,0.0,0.0,0.0,0.0,0.0,0.0,0.0,0.0,0.0,0.0,0.0,0.0,0.0,-6.2521,-5.883,-5.6194,0.0,0.0,0.0,0.0,0.0,0.0,0.0,0.0,0.0,0.0,0.0,0.0,0.0,-6.0794,-6.4066,-6.7358,-6.9782,-7.2206,-7.433,-7.5617,-7.6574,-7.7233,-7.7412,-7.6096,-7.5078,-7.5677,-7.5946,-7.6784,-7.9028,-8.1901,-8.4594,-8.6689,-8.7107,-8.6419,-8.4325,-8.3846,-8.3158,-8.1901,-8.3517,-8.5581,-8.7796,-8.9621,-9.0997,-9.1865,-9.2733,-9.3541,-9.4229,-9.4229,-9.4349,-9.4618,-9.4618,-9.4618,-9.4618,-9.4618,-9.4469,-9.4229,-9.4229,-9.387,-9.3212,-9.2972,-9.2404,-9.1596,-9.1357,-9.1027,-9.0608,-9.0369,-9.0279,-9.0279,-9.004,-8.9681,-8.9352,0.0,0.0,0.0,0.0,0.0,0.0,0.0,0.0,0.0,0.0,0.0,0.0,0.0,0.0,0.0,0.0,0.0,0.0,0.0,0.0,0.0,0.0,0.0,0.0,0.0,0.0,0.0,0.0,0.0,0.0,0.0,0.0,0.0,0.0,0.0,0.0,0.0,0.0,0.0,0.0,0.0,0.0,-5.8227,-5.4913,0.0,0.0,0.0,0.0,0.0,0.0,0.0,0.0,0.0,0.0,0.0,0.0,0.0,-6.0864,-6.3558,-6.7178,-7.0649,-7.2624,-7.4599,-7.6365,-7.7502,-7.7771,-7.7562,-7.6814,-7.5587,-7.439,-7.3642,-7.3103,-7.3672,-7.6245,-7.8011,-8.0644,-8.5192,-8.4295,-8.3576,-8.4684,-8.3187,-8.205,-8.1931,-8.2559,-8.3995,-8.6539,-8.9052,-9.0549,-9.0668,-9.1865,-9.2853,-9.3511,-9.3541,-9.387,-9.4558,-9.4558,-9.4558,-9.4558,-9.4528,-9.4169,-9.3541,-9.3541,-9.3182,-9.2524,-9.1895,-9.1596,-9.1506,-9.0908,-9.0608,-9.0519,-8.989,-8.9651,-8.9531,-8.8903,-8.8634,-8.8663,0.0,0.0,0.0,0.0,0.0,0.0,0.0,0.0,0.0,0.0,0.0,0.0,0.0,0.0,0.0,0.0,0.0,0.0,0.0,0.0,0.0,0.0,0.0,0.0,0.0,0.0,0.0,0.0,0.0,0.0,0.0,0.0,0.0,0.0,0.0,0.0,0.0,0.0,0.0,0.0,0.0,0.0,-5.7148,0.0,0.0,0.0,0.0,0.0,0.0,0.0,0.0,0.0,0.0,-5.0978,-5.4216,0.0,-5.9968,-6.3797,-6.7418,-7.0949,-7.3971,-7.5467,-7.6963,-7.7891,-7.7233,-7.7083,-7.6604,-7.4988,-7.2834,-7.056,-6.8405,-6.9871,-7.2116,-7.43,-7.9058,-8.3756,-8.7407,-8.8334,-8.8005,-8.6359,-8.618,-8.5611,-8.4115,-8.5013,-8.618,-8.7347,-8.8065,-8.9322,-9.1267,-9.1686,-9.2165,-9.2823,-9.2853,-9.3182,-9.384,-9.384,-9.384,-9.384,-9.3332,-9.3032,-9.2853,-9.2853,-9.2494,-9.1865,-9.1686,-9.1327,-9.0878,-9.0698,-9.0369,-8.989,-8.9741,-8.9352,-8.8903,-8.8753,-8.8065,-8.7287,0.0,0.0,0.0,0.0,0.0,0.0,0.0,0.0,0.0,0.0,0.0,0.0,0.0,0.0,0.0,0.0,0.0,0.0,0.0,0.0,0.0,0.0,0.0,0.0,0.0,0.0,0.0,0.0,0.0,0.0,0.0,0.0,0.0,0.0,0.0,0.0,0.0,0.0,0.0,0.0,0.0,0.0,0.0,0.0,0.0,0.0,0.0,0.0,0.0,0.0,0.0,-5.2017,-5.359,-5.593,-5.8552,-6.1204,0.0,-6.7717,-7.0829,-7.43,-7.7233,-7.7951,-7.8908,-7.9088,-7.6933,-7.6185,-7.5078,-7.1936,-6.9662,-6.7508,-6.5144,-6.67,-6.9183,-7.1757,-7.6754,-8.1841,-8.6329,-8.7586,-8.7915,-8.7586,-8.7646,-8.7257,-8.615,-8.6689,-8.7526,-8.8484,-8.8574,-8.9202,-9.0698,-9.1027,-9.1476,-9.2135,-9.2165,-9.2494,-9.3152,-9.3152,-9.3152,-9.3152,-9.2763,-9.2464,-9.2165,-9.2165,-9.1805,-9.1177,-9.1177,-9.0968,-9.0608,-9.0339,-9.001,-8.9621,-8.9023,-8.8574,-8.8215,-8.7915,-8.7137,-8.6299,0.0,0.0,0.0,0.0,0.0,0.0,0.0,0.0,0.0,0.0,0.0,0.0,0.0,0.0,0.0,0.0,0.0,0.0,0.0,0.0,0.0,0.0,0.0,0.0,0.0,0.0,0.0,0.0,0.0,0.0,0.0,0.0,0.0,0.0,0.0,0.0,0.0,0.0,0.0,0.0,0.0,0.0,0.0,0.0,0.0,0.0,0.0,0.0,0.0,0.0,-5.453,-5.5208,-5.9219,-6.1568,-6.3538,-6.6897,-6.9572,-7.1906,-7.4091,-7.7322,-8.0075,-8.0075,-8.0434,-7.9926,-7.6544,-7.5018,-7.3073,-6.8525,-6.652,-6.5024,-6.3049,-6.3977,-6.6191,-6.9782,-7.3702,-7.84,-8.4384,-8.5312,-8.627,-8.8663,-8.8454,-8.8095,-8.8095,-8.8095,-8.8574,-8.9711,-8.9801,-8.9801,-8.9801,-9.0339,-9.0908,-9.1476,-9.1566,-9.1895,-9.2464,-9.2464,-9.2464,-9.2464,-9.2374,-9.2045,-9.1476,-9.1476,-9.1177,-9.0638,-9.0638,-9.0579,-9.0459,-8.989,-8.9561,-8.9292,-8.8155,-8.7586,-8.7377,-8.6778,-8.609,-8.5462,0.0,0.0,0.0,0.0,0.0,0.0,0.0,0.0,0.0,0.0,-5.2929,-5.2929,0.0,0.0,0.0,0.0,0.0,0.0,0.0,0.0,0.0,0.0,0.0,0.0,0.0,0.0,0.0,0.0,0.0,0.0,0.0,0.0,0.0,0.0,0.0,0.0,0.0,0.0,0.0,0.0,0.0,0.0,0.0,0.0,0.0,0.0,0.0,0.0,0.0,0.0,-5.9074,-6.1313,-6.3198,-6.5924,-6.9044,-7.187,-7.3402,-7.4869,-7.7951,-8.0075,-8.1452,-8.1452,-8.1123,-7.9776,-7.5946,-7.3253,-7.044,-6.637,-6.4485,-6.2959,-6.0984,-6.3019,-6.664,-7.1607,-7.5707,-8.0554,-8.7077,-8.8454,-8.9172,-9.019,-9.019,-9.013,-9.013,-9.013,-9.0219,-9.0459,-9.0459,-9.0459,-9.0459,-9.0579,-9.0698,-9.0818,-9.1327,-9.1686,-9.1776,-9.1776,-9.1776,-9.1776,-9.1237,-9.0908,-9.0818,-9.0818,-9.0758,-9.0638,-9.0638,-9.0339,-8.983,-8.9711,-8.9023,-8.8035,-8.7796,-8.7018,-8.603,-8.591,-8.5103,-8.4145,0.0,0.0,0.0,0.0,0.0,0.0,0.0,-5.1272,-5.1674,-5.2779,-5.2929,-5.2829,-5.2528,-5.2503,0.0,0.0,0.0,0.0,0.0,0.0,0.0,0.0,0.0,0.0,0.0,0.0,0.0,0.0,0.0,0.0,0.0,0.0,0.0,0.0,0.0,0.0,0.0,0.0,0.0,0.0,0.0,0.0,0.0,0.0,0.0,0.0,0.0,0.0,0.0,0.0,-6.0932,-6.5238,-6.7211,-6.9767,-7.2445,-7.4749,-7.6125,-7.7472,-8.0135,-8.229,-8.3636,-8.2978,-8.205,-8.0016,-7.4988,-7.1517,-6.8166,-6.3887,-6.2211,-6.1134,-5.9817,-6.2271,-6.5772,-6.9692,-7.3373,-7.816,-8.5132,-8.6389,-8.7586,-9.0309,-9.0638,-9.0638,-9.0638,-9.0638,-9.0638,-9.0638,-9.0638,-9.0638,-9.0638,-9.0638,-9.0638,-9.0638,-9.0938,-9.1117,-9.1117,-9.1117,-9.1117,-9.1117,-9.0788,-9.0638,-9.0638,-9.0638,-9.0638,-9.0638,-9.0638,-9.0279,-8.9651,-8.9292,-8.8364,-8.7137,-8.6778,-8.606,-8.5192,-8.5192,-8.4564,-8.3786,0.0,0.0,0.0,0.0,0.0,0.0,0.0,-5.1272,-5.1674,-5.2779,-5.303,-5.2804,-5.2026,-5.2026,-5.2051,0.0,0.0,0.0,0.0,0.0,0.0,0.0,0.0,0.0,0.0,0.0,0.0,-5.3532,0.0,0.0,0.0,0.0,0.0,0.0,0.0,0.0,0.0,0.0,0.0,0.0,0.0,0.0,0.0,0.0,0.0,0.0,0.0,0.0,0.0,0.0,-6.1762,-6.6759,-6.9123,-7.1816,-7.445,-7.6125,-7.7861,-7.9656,-8.1661,-8.3906,-8.5402,-8.4235,-8.2649,-7.9866,-7.421,-7.0141,-6.634,-6.2002,-6.0446,-5.9757,-5.9368,-6.1433,-6.4216,0.0,-7.038,-7.4809,-8.208,-8.3576,-8.5492,-8.9711,-9.0459,-9.0638,-9.0638,-9.0638,-9.0638,-9.0638,-9.0638,-9.0638,-9.0638,-9.0638,-9.0638,-9.0638,-9.0638,-9.0638,-9.0638,-9.0638,-9.0638,-9.0638,-9.0638,-9.0638,-9.0638,-9.0638,-9.0549,-9.0429,-9.0429,-8.998,-8.9202,-8.8544,-8.7646,-8.6599,-8.5791,-8.5162,-8.4684,-8.4384,-8.3876,-8.3307,0.0,0.0,0.0,0.0,0.0,0.0,0.0,-5.1272,-5.1674,-5.2779,-5.3331,-5.3055,-5.1523,-5.18,-5.19,0.0,0.0,0.0,0.0,0.0,0.0,0.0,0.0,0.0,0.0,0.0,0.0,-5.3005,-5.2854,0.0,0.0,0.0,0.0,0.0,0.0,-5.1875,0.0,0.0,0.0,0.0,0.0,0.0,0.0,0.0,0.0,0.0,0.0,0.0,0.0,0.0,0.0,-6.4545,-6.6011,-7.029,-7.4929,-7.5766,0.0,0.0,-8.3008,-8.4594,-8.5521,-8.4803,-8.229,-7.8759,-7.4001,-6.9423,-6.5233,-6.1822,-6.0086,-5.9368,-5.9907,-6.0236,0.0,0.0,0.0,-7.2744,-8.0045,-8.3128,-8.5671,-8.8514,-8.992,-9.0638,-9.0638,-9.0638,-9.0638,-9.0638,-9.0638,-9.0638,-9.0638,-9.0638,-9.0638,-9.0638,-9.0638,-9.0638,-9.0638,-9.0638,-9.0638,-9.0638,-9.0638,-9.0638,-9.0638,-9.0638,-9.0309,-8.9741,-8.9741,-8.9052,-8.7826,-8.7137,-8.6778,-8.6539,-8.5282,-8.4773,-8.4564,-8.3367,-8.2529,-8.1871,0.0,0.0,0.0,0.0,0.0,0.0,-5.1122,-5.1272,-5.18,-5.3206,-5.3582,-5.3457,-5.2804,-5.2352,-5.1749,0.0,0.0,0.0,0.0,0.0,0.0,0.0,0.0,0.0,0.0,0.0,-5.2101,-5.2427,-5.2101,0.0,0.0,0.0,0.0,0.0,0.0,-5.2026,-5.2452,0.0,0.0,0.0,0.0,0.0,0.0,0.0,0.0,0.0,0.0,0.0,0.0,0.0,0.0,0.0,-6.3617,-6.637,0.0,0.0,-7.6155,-7.9178,-8.2769,-8.5282,-8.6659,-8.5581,-8.223,-7.81,-7.3881,-6.8704,-6.4096,-6.1613,-6.0356,-5.9787,-6.0027,0.0,0.0,0.0,0.0,0.0,-7.3941,-7.5736,-7.8729,-8.4953,-8.6509,-8.8005,-9.0399,-9.0638,-9.0638,-9.0638,-9.0638,-9.0638,-9.0638,-9.0638,-9.0638,-9.0638,-9.0638,-9.0638,-9.0638,-9.0638,-9.0638,-9.0638,-9.0638,-9.0429,-9.007,-9.007,-8.9711,-8.9052,-8.8663,-8.8185,-8.7616,-8.6539,-8.5851,-8.5402,-8.4474,-8.3876,-8.3427,-8.2499,-8.1991,-8.1691,0.0,0.0,0.0,0.0,0.0,-4.9916,-5.087,-5.1172,-5.1749,-5.3055,-5.3356,-5.3406,-5.3256,-5.2402,-5.1473,-5.0494,0.0,0.0,0.0,0.0,0.0,0.0,0.0,0.0,0.0,0.0,-5.1473,-5.185,-5.1473,-5.1398,0.0,0.0,-5.1021,-5.1046,0.0,0.0,0.0,0.0,0.0,0.0,0.0,0.0,0.0,0.0,0.0,0.0,0.0,0.0,0.0,0.0,0.0,0.0,0.0,0.0,0.0,0.0,-7.3432,-7.7143,-8.1183,-8.4504,-8.6599,-8.5641,-8.208,-7.7741,-7.3821,0.0,-6.3977,-6.1852,-6.0864,-6.0386,-6.0386,0.0,0.0,0.0,0.0,-6.4515,-6.9871,-7.1128,-7.4091,-8.1153,-8.2739,-8.4743,-8.8514,-8.995,-9.0638,-9.0638,-9.0638,-9.0638,-9.0638,-9.0638,-9.0638,-9.0638,-9.0638,-9.0638,-9.0638,-9.0638,-9.0549,-9.0339,-9.0339,-9.001,-8.9382,-8.9382,-8.8903,-8.8065,-8.7616,-8.7167,-8.6718,-8.5581,-8.4953,-8.4624,-8.3576,-8.2978,-8.2649,-8.1572,-8.1212,-8.1093,0.0,0.0,0.0,0.0,0.0,0.0,-5.0343,-5.0921,-5.1498,-5.2051,-5.2603,-5.2729,-5.2176,-5.1624,-5.1046,-5.0469,0.0,0.0,0.0,0.0,0.0,0.0,0.0,0.0,0.0,0.0,-5.1272,-5.1297,-5.1272,-5.0996,-5.0444,-5.0419,-5.0419,-5.0419,0.0,0.0,0.0,0.0,0.0,0.0,0.0,0.0,0.0,0.0,0.0,0.0,0.0,0.0,0.0,0.0,0.0,0.0,0.0,0.0,0.0,0.0,-7.026,-7.5467,-7.813,-8.1721,-8.4743,-8.4714,-8.1721,-7.7741,0.0,0.0,-6.5263,-6.263,-6.1553,-6.1104,-6.1104,0.0,0.0,0.0,0.0,0.0,-6.9423,-7.1667,-7.4121,0.0,-7.9058,-8.1153,-8.4444,-8.8334,-9.0638,-9.0638,-9.0638,-9.0638,-9.0638,-9.0638,-9.0638,-9.0638,-9.0638,-9.0638,-9.0638,-9.0638,-9.0309,-8.9681,-8.9681,-8.9322,-8.8693,-8.8693,-8.7975,-8.6689,-8.6689,-8.594,-8.4684,-8.4025,-8.4145,-8.4504,-8.2559,-8.22,-8.2529,-8.0554,-7.9836,-7.9746,0.0,0.0,0.0,0.0,0.0,0.0,0.0,-5.0569,-5.1021,-5.1975,-5.2251,-5.2452,-5.2653,-5.185,-5.1197,-5.1021,0.0,0.0,0.0,0.0,0.0,0.0,0.0,0.0,0.0,0.0,-5.0318,-5.0695,-5.0318,-5.0218,-5.0419,-5.0017,-4.9866,-4.9866,-5.0243,-5.0745,0.0,0.0,0.0,0.0,0.0,0.0,0.0,0.0,0.0,0.0,0.0,0.0,0.0,0.0,0.0,0.0,0.0,0.0,0.0,0.0,0.0,0.0,-7.2684,-7.5647,-7.7891,-7.7442,-7.5018,-7.2206,-7.0021,0.0,-6.3647,-6.2361,-6.1942,-6.1792,-6.1792,0.0,0.0,0.0,0.0,0.0,0.0,0.0,0.0,-7.6694,-8.2709,-8.7137,-8.8604,-8.989,-9.0638,-9.0638,-9.0638,-9.0638,-9.0638,-9.0219,-9.016,-9.0638,-9.0638,-9.0638,-9.0638,-9.019,-8.986,-8.9651,-8.9202,-8.8424,-8.7317,-8.7317,-8.6599,-8.5312,-8.4863,-8.4684,-8.4624,-8.3517,-8.3187,-8.3277,-8.22,-8.1631,-8.1302,-8.0225,-7.9806,-7.9716,0.0,0.0,0.0,0.0,0.0,0.0,0.0,-5.0293,-5.067,-5.1373,-5.1473,-5.1674,-5.2251,-5.1322,-5.072,-5.0946,0.0,0.0,0.0,0.0,0.0,0.0,0.0,0.0,0.0,-4.959,-4.9866,-5.0419,-5.0293,-5.0419,-5.0745,-5.0594,-5.0318,-4.9916,-5.0268,-5.0494,0.0,0.0,0.0,0.0,0.0,0.0,-5.2143,0.0,0.0,0.0,0.0,0.0,0.0,0.0,0.0,0.0,0.0,0.0,0.0,0.0,0.0,0.0,0.0,-7.1727,-7.3762,-7.3881,-7.2116,0.0,0.0,0.0,0.0,0.0,0.0,0.0,0.0,0.0,0.0,0.0,0.0,0.0,0.0,0.0,0.0,-7.6634,-8.3247,-8.7796,-8.8693,-8.9681,-9.0279,-9.0279,-9.004,-8.989,-8.989,-8.9531,-8.9471,-8.989,-8.989,-8.989,-8.989,-8.9501,-8.9172,-8.8933,-8.8245,-8.7347,-8.6299,-8.606,-8.5342,-8.4325,-8.3906,-8.3696,0.0,-8.2739,-8.223,-8.1961,-8.1302,-8.0794,-8.0345,-7.9686,-7.9417,-7.9357,0.0,0.0,0.0,0.0,0.0,0.0,0.0,-4.9992,-5.0318,-5.0343,-5.0368,-5.0569,-5.1096,-5.0218,-4.9791,-5.0318,0.0,0.0,0.0,0.0,0.0,0.0,0.0,0.0,-4.959,-4.959,-4.9841,-5.0368,-5.0946,-5.1222,-5.1222,-5.18,-5.1473,-5.0419,-5.0419,-5.0117,0.0,0.0,0.0,0.0,-5.2076,-5.2118,0.0,0.0,0.0,0.0,0.0,0.0,0.0,0.0,0.0,0.0,0.0,0.0,0.0,0.0,0.0,0.0,0.0,0.0,0.0,0.0,0.0,0.0,0.0,0.0,0.0,0.0,0.0,0.0,0.0,0.0,0.0,0.0,0.0,0.0,0.0,-6.9004,-7.1787,-7.7502,-8.1661,-8.4504,-8.5581,-8.8095,-8.9651,-8.9591,-8.9023,-8.8693,-8.8693,-8.8634,-8.8604,-8.8544,-8.8484,-8.8514,-8.8604,-8.8514,-8.8155,-8.7496,-8.6838,-8.615,-8.5402,-8.4833,-8.4205,-8.3517,-8.3517,-8.2828,-8.1721,-8.1721,-8.1332,-8.0674,-8.0045,-7.9776,-7.9656,-7.9028,-7.8759,-7.8729,0.0,0.0,0.0,0.0,0.0,0.0,0.0,0.0,0.0,0.0,-4.9791,-4.9841,-4.9967,-4.9766,-4.964,0.0,0.0,0.0,0.0,0.0,0.0,0.0,0.0,0.0,-4.959,-4.959,-4.9665,-4.9791,-5.0343,-5.0619,-5.0619,-5.1197,-5.1096,-5.0419,-5.0419,-5.0343,0.0,0.0,0.0,0.0,-5.1649,-5.2195,0.0,0.0,0.0,0.0,-5.7772,-5.9476,0.0,0.0,0.0,0.0,0.0,0.0,0.0,0.0,-6.0565,0.0,0.0,0.0,0.0,0.0,0.0,0.0,0.0,0.0,0.0,0.0,0.0,0.0,0.0,0.0,0.0,0.0,0.0,-6.67,-6.8495,-7.3223,-7.7771,-8.1183,-8.5103,-8.7048,-8.5821,-8.8095,-8.9471,-8.8963,-8.8783,-8.8693,-8.8693,-8.8215,-8.7706,-8.7167,-8.6659,-8.6898,-8.7915,-8.6898,-8.606,-8.5402,-8.5252,-8.4295,-8.2709,-8.3068,-8.2589,-8.1482,-8.1482,-8.1302,-8.1033,-8.1033,-8.0644,-8.0045,-7.9866,-7.9507,-7.8998,-7.8849,-7.846,-7.8041,0.0,0.0,0.0,0.0,0.0,0.0,0.0,0.0,0.0,0.0,0.0,0.0,0.0,0.0,0.0,0.0,0.0,0.0,0.0,0.0,0.0,0.0,0.0,-4.9339,-4.959,-4.959,-4.9715,-4.9967,-5.0544,-5.0946,-5.1197,-5.1523,-5.1348,-5.0795,-5.0268,-5.0042,-5.0132,-5.1444,-5.1747,-5.1431,-5.2595,0.0,0.0,0.0,0.0,0.0,-5.8282,-5.9599,0.0,-6.1762,-6.2331,-6.251,0.0,0.0,0.0,0.0,-6.1283,-6.1702,0.0,0.0,0.0,0.0,0.0,0.0,0.0,0.0,0.0,0.0,0.0,0.0,0.0,0.0,0.0,-6.4874,-6.5652,-6.7178,0.0,-7.4899,-7.9327,-8.3187,-8.5551,-8.7048,-8.7467,-8.8274,-8.8634,-8.8274,-8.7945,-8.7766,-8.7766,-8.7437,-8.6928,-8.624,-8.5581,-8.5462,-8.5881,-8.5162,-8.4474,-8.3816,-8.3517,-8.2798,-8.1781,-8.1841,-8.1482,-8.0794,-8.0464,-8.0345,-8.0315,-8.0016,-7.9477,-7.8908,-7.8908,-7.8489,-7.7891,-7.7891,-7.7652,-7.7352,0.0,0.0,0.0,0.0,0.0,0.0,0.0,0.0,0.0,0.0,0.0,0.0,0.0,0.0,0.0,0.0,0.0,0.0,0.0,0.0,0.0,0.0,0.0,-4.9088,-4.9464,-4.9464,-4.969,-5.0167,-5.082,-5.1423,-5.1975,-5.2151,-5.19,-5.1247,-5.0193,-4.9665,-4.9744,-5.1534,-5.1729,-5.102,-5.3635,0.0,0.0,0.0,0.0,0.0,0.0,0.0,0.0,-6.1403,-6.1852,-6.1942,-6.1942,0.0,0.0,0.0,0.0,0.0,-6.2899,0.0,0.0,0.0,0.0,0.0,0.0,0.0,0.0,0.0,0.0,0.0,0.0,-6.3318,-6.3617,-6.4336,-6.5533,-6.8166,-7.3253,-7.6155,-7.9387,-8.3876,-8.4863,-8.609,-8.8394,-8.7975,-8.7467,-8.7257,-8.6718,-8.6389,-8.6389,-8.6389,-8.603,-8.5282,-8.4714,-8.3995,-8.3128,-8.3337,-8.3068,-8.232,-8.1841,-8.1512,-8.1302,-8.0734,-8.0434,-8.0315,-7.9656,-7.9357,-7.9327,-7.8729,-7.816,-7.7652,-7.7652,-7.7322,-7.6814,-7.6814,-7.6754,-7.6664,0.0,0.0,0.0,0.0,0.0,0.0,0.0,0.0,0.0,0.0,0.0,0.0,0.0,0.0,0.0,0.0,0.0,0.0,0.0,0.0,0.0,0.0,-4.8912,-4.9289,-4.8912,-4.8887,-4.8937,-4.9038,-5.0042,-5.0845,-5.1423,-5.2377,-5.2251,-5.1247,-5.0594,-5.0042,-4.959,-4.9923,-5.1011,-5.2428,-5.2492,0.0,0.0,0.0,0.0,0.0,0.0,0.0,0.0,-6.0326,-6.0775,-6.1253,-6.1253,0.0,0.0,0.0,0.0,0.0,-6.2899,-6.3797,-6.4336,0.0,0.0,0.0,0.0,0.0,0.0,0.0,0.0,0.0,0.0,-6.4336,-6.5114,-6.634,-6.9901,-7.4001,-7.816,-8.0554,-8.214,-8.2948,-8.5551,-8.6359,-8.4055,-8.5641,-8.6359,-8.5252,-8.5073,-8.5013,-8.5013,-8.5013,-8.4474,-8.3247,-8.3128,-8.22,-8.0434,-8.1512,-8.1482,-8.0285,-8.0734,-8.0345,-7.9238,-7.9148,-7.8789,-7.822,-7.7562,-7.7293,-7.7293,-7.7173,-7.7083,-7.6963,-7.6963,-7.6904,-7.6814,-7.6814,-7.6485,-7.5976,0.0,0.0,0.0,0.0,0.0,0.0,0.0,0.0,0.0,0.0,0.0,0.0,0.0,0.0,0.0,0.0,0.0,0.0,0.0,0.0,0.0,-4.7908,-4.8987,-4.9339,-4.8786,-4.9364,-4.9665,-4.9665,-5.1071,-5.2226,-5.3055,-5.298,-5.2176,-5.0795,-5.0218,-5.0307,-5.0979,-5.1803,-5.2738,-5.3809,0.0,0.0,0.0,0.0,0.0,0.0,0.0,0.0,0.0,0.0,-6.0535,-6.1104,-6.1104,0.0,0.0,0.0,0.0,0.0,-6.2989,-6.3528,-6.4006,0.0,0.0,0.0,0.0,0.0,0.0,0.0,0.0,0.0,0.0,0.0,-6.7089,-7.0201,-7.3402,-7.6365,-7.8908,-8.0375,-8.1841,-8.3606,-8.4534,-8.4983,-8.4893,-8.5312,-8.5222,-8.4265,-8.4504,-8.4414,-8.3696,-8.3995,-8.3576,-8.226,-8.223,-8.1452,-7.9836,-8.0405,-8.0225,-7.9267,-7.9567,-7.9387,-7.8789,-7.843,-7.81,-7.7741,-7.6754,-7.6514,-7.6814,-7.6485,-7.6335,-7.6335,-7.6335,-7.6096,-7.5766,-7.5766,-7.5587,-7.5318,0.0,0.0,0.0,0.0,0.0,0.0,0.0,0.0,0.0,0.0,0.0,0.0,0.0,0.0,0.0,0.0,0.0,0.0,0.0,0.0,-4.7732,-4.7732,-4.8912,-4.9389,-4.8987,-4.9791,-5.0419,-5.082,-5.2226,-5.3607,-5.4913,-5.3557,-5.2176,-5.077,-5.033,-5.0776,-5.1927,-5.3675,-5.4623,-5.5152,0.0,0.0,0.0,0.0,0.0,0.0,0.0,0.0,0.0,0.0,0.0,0.0,0.0,0.0,0.0,0.0,-6.257,-6.2869,-6.3049,-6.3288,-6.3707,0.0,0.0,0.0,0.0,0.0,0.0,0.0,0.0,0.0,0.0,-6.7388,-6.9542,-7.3881,-7.6365,-7.828,-7.9746,-8.0524,-8.1901,-8.4414,-8.3816,-8.3876,-8.5581,-8.4833,-8.3906,-8.3098,-8.3517,-8.3367,-8.235,-8.2769,-8.2529,-8.1362,-8.1332,-8.0674,-7.9357,-7.9357,-7.9088,-7.8549,-7.8549,-7.8489,-7.831,-7.7652,-7.7382,-7.7293,-7.6155,-7.5946,-7.6335,-7.5856,-7.5677,-7.5677,-7.5677,-7.5347,-7.4869,-7.4869,-7.4869,-7.4869,0.0,0.0,0.0,0.0,0.0,0.0,0.0,0.0,0.0,0.0,0.0,0.0,0.0,0.0,0.0,0.0,0.0,0.0,0.0,0.0,-4.7179,-4.7179,-4.8736,-4.9565,-4.954,-4.9615,-5.0419,-5.1975,-5.2628,-5.4009,-5.6043,-5.3934,-5.2578,-5.1967,-5.1869,-5.1637,-5.1372,-5.3512,-5.5211,-5.6537,-5.6792,0.0,0.0,0.0,0.0,0.0,0.0,0.0,0.0,0.0,0.0,0.0,0.0,0.0,0.0,0.0,0.0,-6.2301,-6.2899,-6.3947,-6.4605,-6.3498,-6.3647,0.0,-6.7926,-6.8106,0.0,-6.9333,0.0,0.0,0.0,-6.9871,-7.2654,-7.6066,-7.8819,-8.1183,-8.3098,-8.3936,-8.4444,-8.4684,-8.4624,-8.4175,-8.3128,-8.2948,-8.238,-8.1123,-8.1063,-8.1033,-8.0943,-8.1003,-8.0674,-7.9986,-7.9956,-7.9327,-7.7981,-7.7951,-7.7921,-7.7891,-7.7891,-7.7562,-7.6933,-7.6335,-7.6036,-7.6006,-7.5258,-7.4988,-7.5018,-7.4958,-7.4958,-7.4958,-7.4958,-7.4929,-7.4869,-7.4869,-7.4869,-7.4869,0.0,0.0,0.0,0.0,0.0,0.0,0.0,0.0,0.0,0.0,0.0,0.0,0.0,0.0,0.0,0.0,0.0,0.0,0.0,0.0,-4.7068,-4.7068,-4.8711,-4.959,-4.959,-5.1272,-5.2804,-5.416,-5.5742,-5.642,-5.6168,-5.3959,-5.2768,-5.2531,-5.1819,-5.2641,-5.47,-5.5505,-5.6736,-5.8221,-5.8221,-5.858,0.0,0.0,0.0,0.0,0.0,0.0,0.0,0.0,0.0,0.0,0.0,0.0,0.0,0.0,0.0,-6.275,-6.3019,-6.3707,-6.4366,-6.4306,-6.4784,0.0,0.0,-6.8794,-6.9213,-7.1368,-7.1787,-7.1637,-7.1128,-7.3193,-7.5647,-7.7711,-8.0285,-8.2409,-8.3576,-8.4295,-8.4564,-8.4145,-8.3756,-8.3158,-8.223,-8.1781,-8.1153,-8.0255,-8.0554,-8.0434,-7.9597,-7.9537,-7.9447,-7.9178,-7.837,-7.7921,-7.7801,-7.7412,-7.7023,-7.6634,-7.7023,-7.7083,-7.6814,-7.6185,-7.5916,-7.5856,-7.5168,-7.4869,-7.4869,-7.4869,-7.4869,-7.4869,-7.4869,-7.4869,-7.4869,-7.4869,-7.4869,-7.4869,0.0,0.0,0.0,0.0,0.0,0.0,0.0,0.0,0.0,0.0,0.0,0.0,0.0,0.0,0.0,0.0,0.0,0.0,0.0,-4.6652,-4.6878,-4.6878,-4.8284,-4.9238,-4.959,-5.2302,-5.4336,-5.5641,-5.8052,-5.8378,-5.6696,-5.5,-5.4118,-5.3926,-5.3477,-5.472,-5.7081,-5.7563,-5.8287,-5.9099,-5.9099,-5.9219,0.0,0.0,0.0,0.0,0.0,0.0,0.0,0.0,0.0,0.0,0.0,0.0,0.0,0.0,0.0,0.0,-6.3079,-6.3378,-6.3827,0.0,0.0,0.0,-6.9303,-7.041,-7.1667,-7.451,-7.445,-7.3971,-7.439,-7.5407,-7.6844,-7.8789,-8.1003,-8.2679,-8.3337,-8.3816,-8.3786,-8.2918,-8.2409,-8.1871,-8.1212,-8.0764,-8.0135,-7.9238,-7.9597,-7.9447,-7.8519,-7.828,-7.828,-7.846,-7.7412,-7.6963,-7.7203,-7.6754,-7.6215,-7.5587,-7.6006,-7.6215,-7.6185,-7.5766,-7.5587,-7.5557,-7.5078,-7.4869,-7.4869,-7.4869,-7.4869,-7.4869,-7.4869,-7.4869,-7.4869,-7.4869,-7.4869,-7.4869,0.0,0.0,0.0,0.0,0.0,0.0,0.0,0.0,0.0,0.0,0.0,0.0,0.0,0.0,0.0,0.0,0.0,0.0,-4.6276,-4.6301,-4.6301,-4.6301,-4.733,-4.8435,-4.954,-5.2277,-5.4511,-5.6219,-5.8956,-5.9458,-5.7876,-5.7318,-5.6844,-5.6465,-5.7475,-5.7916,-5.8031,-5.9474,-5.9697,-5.9099,-5.9129,-5.9518,-6.0086,0.0,0.0,0.0,0.0,0.0,0.0,0.0,0.0,0.0,0.0,0.0,0.0,0.0,-6.3079,-6.3079,-6.3079,-6.3079,0.0,0.0,0.0,0.0,-7.1009,-7.3432,-7.5826,-7.9148,-7.7771,-7.6335,-7.7592,-7.6245,-7.6006,-7.9267,-8.0913,-8.1991,-8.2649,-8.2814,-8.226,-8.0943,-8.0794,-8.0524,-7.9866,-7.9806,-7.9238,-7.7921,-7.7801,-7.7801,-7.7801,-7.7173,-7.7113,-7.7771,-7.7143,-7.6514,-7.5916,-7.5886,-7.5557,-7.4869,-7.4869,-7.4869,-7.4869,-7.4869,-7.4869,-7.4869,-7.4869,-7.4869,-7.4869,-7.4869,-7.4869,-7.4869,-7.4869,-7.4869,-7.4869,-7.4869,-7.4869,-7.4869,0.0,0.0,0.0,0.0,0.0,0.0,0.0,0.0,0.0,0.0,0.0,0.0,0.0,0.0,0.0,0.0,0.0,0.0,-4.5723,-4.61,-4.6301,-4.6301,-4.733,-4.7883,-4.7857,-5.0971,-5.416,-5.7399,-5.7801,-5.7788,-5.731,-5.5575,-5.5952,-5.8006,-5.7943,-5.8516,-5.9474,-5.9891,-5.9697,-5.9129,-5.9608,-5.9907,-6.0146,0.0,0.0,0.0,0.0,0.0,0.0,0.0,0.0,0.0,0.0,0.0,0.0,0.0,-6.3079,-6.3079,-6.3079,0.0,0.0,0.0,0.0,0.0,0.0,-7.3791,0.0,0.0,-8.0195,-7.9327,-7.9238,-7.9118,-7.9058,-7.9088,-8.0225,-8.1153,-8.1362,-8.1392,-8.1063,-8.0225,-7.9686,-7.9297,-7.9118,-7.825,-7.7741,-7.7801,-7.7382,-7.7113,-7.7113,-7.6514,-7.6455,-7.7113,-7.6036,-7.5587,-7.5916,-7.5437,-7.5078,-7.4869,-7.4869,-7.4869,-7.4869,-7.4869,-7.4869,-7.4869,-7.4869,-7.4869,-7.4869,-7.4869,-7.4869,-7.4869,-7.4869,-7.4599,-7.418,-7.418,-7.418,-7.418,0.0,0.0,0.0,0.0,0.0,0.0,0.0,0.0,0.0,0.0,0.0,0.0,0.0,0.0,0.0,0.0,0.0,0.0,0.0,0.0,-4.6301,-4.6301,-4.6928,-4.7713,-4.8631,-5.1458,-5.4183,-5.6738,-5.6836,-5.6777,-5.6475,-5.6909,-5.8355,-6.0629,-6.1494,-6.1819,-6.1642,-6.1642,-6.0805,-5.9518,-5.9937,-6.0416,-6.0924,0.0,0.0,0.0,0.0,0.0,0.0,0.0,0.0,0.0,0.0,0.0,0.0,0.0,-6.3079,-6.3079,-6.3079,0.0,0.0,0.0,0.0,-7.0081,-7.3642,0.0,0.0,0.0,-8.1991,-8.0913,-8.1302,-8.0405,-7.9597,-7.9597,-7.9836,-8.0105,-8.0375,-7.9956,-7.9477,-7.9058,-7.843,-7.8011,-7.8011,-7.7293,-7.6904,-7.7053,-7.6694,-7.6455,-7.6455,-7.5856,-7.5796,-7.6425,-7.5437,-7.5078,-7.5497,-7.5078,-7.4869,-7.4869,-7.4599,-7.448,-7.448,-7.448,-7.448,-7.448,-7.421,-7.4091,-7.4091,-7.4091,-7.4091,-7.4091,-7.4091,-7.3851,-7.3492,-7.3492,-7.3492,-7.3552,0.0,0.0,0.0,0.0,0.0,0.0,0.0,0.0,0.0,0.0,0.0,0.0,0.0,0.0,0.0,0.0,0.0,0.0,0.0,0.0,-4.6301,-4.6301,-4.6401,-4.7886,-5.1049,-5.3012,-5.424,-5.477,-5.6037,-5.6237,-5.5732,-5.9928,-6.2553,-6.3772,-6.65,-6.6311,-6.3977,-6.3797,-6.2331,-6.0086,-6.0146,-6.0954,-6.2121,-6.2151,0.0,0.0,0.0,0.0,0.0,0.0,0.0,0.0,0.0,0.0,0.0,-6.2869,-6.3079,0.0,0.0,0.0,0.0,0.0,0.0,0.0,-7.6155,-7.9387,-8.229,-8.4743,0.0,-8.1601,-8.3337,-8.0644,-7.8699,-8.0345,-7.9597,-7.8968,-7.9477,-7.8489,-7.7711,-7.7711,-7.7143,-7.6754,-7.6814,-7.6724,-7.6455,-7.5946,-7.5856,-7.5826,-7.5826,-7.5228,-7.5168,-7.5796,-7.5198,-7.4839,-7.4779,-7.4779,-7.4749,-7.4689,-7.4091,-7.3821,-7.3821,-7.3821,-7.3821,-7.3762,-7.3163,-7.2924,-7.2924,-7.2924,-7.2924,-7.2924,-7.2924,-7.2864,-7.2834,-7.2834,-7.2834,-7.2924,0.0,0.0,0.0,0.0,0.0,0.0,0.0,0.0,0.0,0.0,0.0,0.0,0.0,0.0,0.0,0.0,0.0,0.0,0.0,0.0,-4.6301,-4.6301,-4.7129,-4.8891,-5.1813,-5.1769,-5.2459,-5.3979,-5.4883,-5.5942,-5.7171,-5.9228,-6.1841,-6.4723,-6.5352,-6.5054,-6.3887,-6.2391,-6.1104,-6.0146,-6.0685,-6.1373,-6.2151,-6.266,-6.2959,0.0,0.0,0.0,0.0,0.0,0.0,0.0,0.0,-6.2091,-6.2241,-6.2869,0.0,0.0,0.0,0.0,0.0,0.0,0.0,0.0,0.0,-7.9327,-8.0554,-8.1631,-8.2529,-8.3068,-8.2978,-8.1841,-8.0554,-7.9417,-7.8968,-7.8489,-7.7592,-7.7233,-7.7053,-7.7053,-7.6485,-7.6305,-7.6784,-7.5886,-7.5467,-7.5886,-7.5407,-7.5108,-7.5108,-7.4958,-7.4958,-7.5078,-7.4958,-7.4629,-7.4121,-7.4121,-7.3851,-7.3343,-7.3193,-7.3133,-7.3133,-7.3133,-7.3133,-7.3133,-7.2984,-7.2924,-7.2924,-7.2924,-7.2924,-7.2924,-7.2924,-7.2595,-7.2116,-7.2116,-7.2116,-7.2206,0.0,0.0,0.0,0.0,0.0,0.0,0.0,0.0,0.0,0.0,0.0,0.0,0.0,0.0,0.0,0.0,0.0,0.0,0.0,0.0,0.0,-4.7828,-4.891,-5.0575,-5.2917,-5.3134,-5.3608,-5.4432,-5.5189,-5.6279,-5.7773,-5.9859,-6.2322,-6.5054,-6.6011,-6.5353,-6.3498,-6.281,-6.1762,-6.0625,-6.0954,-6.1702,-6.26,-6.2959,-6.3079,-6.3019,-6.269,0.0,0.0,0.0,0.0,0.0,0.0,0.0,-6.263,-6.2989,0.0,0.0,0.0,0.0,0.0,0.0,0.0,0.0,0.0,-7.9088,-7.9746,-7.9417,-8.0943,-8.232,-8.229,-8.1212,-8.0016,-7.8968,-7.8011,-7.7263,-7.6874,-7.6275,-7.6006,-7.6335,-7.5826,-7.5527,-7.5856,-7.4988,-7.4569,-7.4929,-7.433,-7.4061,-7.439,-7.442,-7.442,-7.442,-7.442,-7.4091,-7.3432,-7.3432,-7.3253,-7.2924,-7.2565,-7.2086,-7.1517,-7.2146,-7.2265,-7.1966,-7.1966,-7.1966,-7.1966,-7.1966,-7.1966,-7.1966,-7.1966,-7.1727,-7.1427,-7.1427,-7.1427,-7.1517,0.0,0.0,0.0,0.0,0.0,0.0,0.0,0.0,0.0,0.0,0.0,0.0,0.0,0.0,0.0,0.0,0.0,0.0,0.0,0.0,0.0,0.0,-5.0877,-5.2369,-5.432,-5.507,-5.5579,-5.5867,-5.6196,-5.7102,-5.852,-6.0954,-6.3139,-6.5084,-6.661,-6.5772,-6.3228,-6.3288,-6.2391,-6.0924,-6.0924,-6.1732,-6.2899,-6.2899,-6.2989,-6.3079,-6.3079,-6.3079,-6.3079,-6.3079,0.0,0.0,0.0,0.0,-6.3079,-6.3079,0.0,0.0,0.0,0.0,0.0,0.0,0.0,0.0,0.0,0.0,-7.8998,-7.7861,-7.9148,-8.0584,-8.1033,-7.9746,-7.8549,-7.834,-7.6963,-7.6036,-7.6425,-7.5557,-7.5078,-7.5647,-7.5228,-7.4839,-7.4719,-7.421,-7.3851,-7.3732,-7.3223,-7.3163,-7.3702,-7.3732,-7.3732,-7.3732,-7.3732,-7.3402,-7.2744,-7.2624,-7.2505,-7.2385,-7.1727,-7.0829,-6.9842,-7.0919,-7.1098,-7.056,-7.056,-7.056,-7.056,-7.056,-7.056,-7.056,-7.056,-7.056,-7.059,-7.0709,-7.0739,-7.0859,0.0,0.0,0.0,0.0,0.0,0.0,0.0,0.0,0.0,0.0,-4.4869,0.0,0.0,0.0,0.0,0.0,0.0,0.0,0.0,0.0,0.0,0.0,-5.2188,-5.3492,-5.6191,-5.5273,-5.6016,-5.859,-5.7513,0.0,0.0,-6.1676,-6.3139,-6.5024,-6.4665,-6.4276,-6.3737,-6.1523,-6.0446,-6.0206,-6.0206,-6.1044,-6.2241,-6.2241,-6.257,-6.3079,-6.3079,-6.3079,-6.3079,-6.3079,-6.3079,0.0,0.0,0.0,-6.3079,0.0,0.0,0.0,0.0,0.0,0.0,0.0,0.0,0.0,0.0,0.0,-7.7173,0.0,-7.8071,-7.8908,-7.843,-7.813,-7.7562,-7.6485,-7.6066,-7.5736,-7.5198,-7.4988,-7.4899,-7.4988,-7.4929,-7.4659,-7.4091,-7.3941,-7.3672,-7.3103,-7.2954,-7.2954,-7.3043,-7.3043,-7.3043,-7.3043,-7.3043,-7.2714,-7.2026,-7.1457,-7.0889,-7.038,-6.9692,-6.9303,-6.9123,-6.9303,-6.9333,-6.9243,-6.9243,-6.9243,-6.9243,-6.9243,-6.9243,-6.9243,-6.9243,-6.9243,-6.9333,-6.9901,-7.0111,-7.026,0.0,0.0,0.0,0.0,0.0,0.0,0.0,0.0,0.0,0.0,0.0,-4.6869,0.0,0.0,0.0,0.0,0.0,0.0,0.0,0.0,0.0,0.0,-5.3272,-5.4219,-5.6354,-5.5795,-5.6143,-5.7453,0.0,0.0,0.0,-6.1792,-6.275,-6.3917,-6.3617,-6.3079,-6.2301,-6.1164,-6.0446,-6.0086,-6.0086,-6.0685,-6.1553,-6.1553,-6.1732,-6.2032,-6.2391,-6.254,-6.26,-6.2959,-6.3079,-6.3079,-6.3079,0.0,0.0,0.0,0.0,0.0,0.0,0.0,0.0,0.0,0.0,0.0,0.0,0.0,-7.6215,-7.5826,-7.6485,-7.7203,-7.7263,-7.6963,-7.6544,-7.6006,-7.5587,-7.5228,-7.4929,-7.4569,-7.433,-7.433,-7.4001,-7.3672,-7.3373,-7.2984,-7.2654,-7.2355,-7.1996,-7.1936,-7.2325,-7.2325,-7.2176,-7.1787,-7.1787,-7.1308,-7.026,-6.9991,-6.9692,-6.9423,-6.8734,-6.8435,-6.8405,-6.7657,-6.7926,-6.9004,-6.9004,-6.9004,-6.9004,-6.9004,-6.9004,-6.9004,-6.9004,-6.9004,-6.9034,-6.9333,-6.9423,-6.9572,0.0,0.0,0.0,0.0,0.0,0.0,0.0,0.0,0.0,0.0,0.0,0.0,0.0,0.0,0.0,0.0,0.0,0.0,0.0,0.0,0.0,0.0,0.0,-5.4773,-5.5927,-5.5927,-5.6077,0.0,0.0,0.0,-6.1373,-6.2032,-6.2869,-6.3827,-6.3647,-6.3019,-6.2091,-6.1583,-6.1164,-6.0775,-6.0116,-6.0236,-6.0864,-6.0864,-6.0954,-6.1194,-6.1672,-6.1852,-6.1942,-6.26,-6.2839,-6.2869,-6.3019,-6.3079,0.0,0.0,0.0,0.0,0.0,0.0,0.0,0.0,0.0,0.0,0.0,0.0,-7.5018,0.0,-7.4779,-7.5288,-7.5766,-7.5736,-7.5647,-7.5647,-7.4929,-7.442,-7.4599,-7.4061,-7.3642,-7.3642,-7.3223,-7.2774,-7.2445,-7.1936,-7.1487,-7.1188,-7.0709,-7.0649,-7.1128,-7.1308,-7.1098,-7.044,-7.059,-7.0141,-6.9004,-6.8645,-6.8405,-6.8226,-6.7717,-6.7478,-6.7448,-6.646,-6.6729,-6.7986,-6.7986,-6.8076,-6.8226,-6.8226,-6.8345,-6.8495,-6.8495,-6.8495,-6.8495,-6.8675,-6.8734,-6.8824,0.0,0.0,0.0,0.0,0.0,0.0,0.0,0.0,0.0,0.0,0.0,0.0,-5.0602,-5.0657,-5.1263,-5.2644,0.0,0.0,0.0,0.0,0.0,0.0,0.0,0.0,0.0,0.0,0.0,0.0,0.0,0.0,-6.2061,-6.272,-6.4036,-6.5832,-6.5203,-6.4874,-6.4695,-6.2839,-6.2391,-6.269,-6.0176,-5.9548,-6.0146,-6.0146,-6.0535,-6.1104,-6.1164,-6.1164,-6.1253,-6.1942,-6.2151,-6.2241,-6.2869,-6.3079,-6.3079,0.0,0.0,0.0,0.0,0.0,0.0,0.0,0.0,0.0,0.0,0.0,0.0,-7.3013,-7.3043,-7.3073,-7.3103,-7.4121,-7.4929,-7.4929,-7.3851,-7.3223,-7.3851,-7.3373,-7.2954,-7.2954,-7.2924,-7.2415,-7.1128,-7.0979,-7.044,-6.9243,-6.9123,-6.9123,-6.9153,-6.9752,-6.9782,-6.9123,-6.9722,-6.9692,-6.9004,-6.7747,-6.6789,-6.6161,-6.6131,-6.6101,-6.6101,-6.6041,-6.5712,-6.5233,-6.5233,-6.5592,-6.6161,-6.6161,-6.652,-6.7089,-6.7089,-6.7089,-6.7178,-6.7807,-6.8016,-6.8136,0.0,0.0,0.0,0.0,0.0,0.0,0.0,0.0,0.0,0.0,0.0,0.0,0.0,-5.2987,-5.3437,-5.3016,-5.386,0.0,0.0,0.0,0.0,0.0,0.0,0.0,0.0,0.0,0.0,0.0,0.0,-5.9039,-6.1493,-6.2151,-6.3258,-6.4725,-6.4934,-6.4784,-6.4246,-6.2301,-6.1343,-6.1044,-5.9668,-5.9249,-5.9458,-5.9458,-5.9608,-5.9877,-6.0296,-6.0446,-6.0565,-6.1224,-6.1463,-6.1583,-6.2241,-6.245,-6.254,-6.2959,0.0,0.0,0.0,0.0,0.0,0.0,0.0,0.0,0.0,-7.0081,-7.1038,-7.1038,-7.1697,-7.2265,-7.2265,-7.2984,-7.3612,-7.3612,-7.2864,-7.2325,-7.2565,-7.2026,-7.1487,-7.1068,-7.1038,-7.0679,-6.9782,-6.9692,-6.9482,-6.9034,-6.9004,-6.9004,-6.9004,-6.8794,-6.8375,-6.7747,-6.7537,-6.7119,-6.646,-6.5981,-6.5622,-6.5383,-6.5383,-6.5383,-6.5353,-6.4934,-6.4605,-6.4336,-6.3947,-6.4395,-6.5383,-6.5383,-6.5533,-6.5772,-6.6191,-6.637,-6.643,-6.7089,-6.7358,-6.7448,0.0,0.0,0.0,0.0,0.0,0.0,0.0,0.0,0.0,-5.3518,0.0,0.0,0.0,0.0,-5.4794,-5.3808,-5.4641,-5.5179,-5.5179,0.0,0.0,0.0,0.0,0.0,0.0,0.0,0.0,0.0,0.0,0.0,0.0,-6.1792,-6.278,-6.4006,-6.4246,-6.4605,-6.4904,-6.3408,-6.2361,-6.1642,-6.0296,-5.9787,-5.9817,-6.0027,-5.9967,-5.9847,-6.0266,-6.0446,-6.0475,-6.0685,-6.0924,-6.1224,-6.1882,-6.2241,-6.251,-6.2959,-6.3079,0.0,-6.254,0.0,0.0,0.0,0.0,0.0,0.0,0.0,-6.8645,-6.8645,-6.9482,-7.032,-7.053,-7.0949,-7.1607,-7.2744,-7.1787,-7.1068,-7.1487,-7.0799,-7.0111,-6.9692,-6.9453,-6.9064,-6.8375,-6.8136,-6.7897,-6.7687,-6.7657,-6.7657,-6.7657,-6.7448,-6.7119,-6.667,-6.6011,-6.5353,-6.4695,-6.4695,-6.4695,-6.4695,-6.4695,-6.4695,-6.4665,-6.4216,-6.3887,-6.3677,-6.3258,-6.3677,-6.4695,-6.4695,-6.4814,-6.5024,-6.5503,-6.5682,-6.5772,-6.643,-6.667,-6.6759,0.0,0.0,0.0,0.0,0.0,0.0,0.0,0.0,-5.3571,-5.5027,0.0,0.0,0.0,0.0,0.0,-5.5209,-5.5209,-5.5209,-5.5179,-5.5179,0.0,0.0,0.0,0.0,0.0,0.0,0.0,0.0,0.0,0.0,0.0,0.0,-6.272,-6.3887,-6.3318,-6.4485,-6.6789,-6.6131,-6.5473,-6.4725,-6.2121,-6.1104,-6.1194,-6.1792,-6.1642,-6.1104,-6.1104,-6.1104,-6.1014,-6.0326,-6.0565,-6.1224,-6.1882,-6.251,-6.3049,-6.3049,-6.3049,-6.3079,0.0,0.0,0.0,0.0,0.0,0.0,-6.3737,0.0,-6.5892,-6.5922,-6.646,-6.7148,-6.7777,-6.7897,-6.8974,-7.2206,-7.062,-6.9393,-7.062,-6.9722,-6.8944,-6.8884,-6.8315,-6.7657,-6.6999,-6.634,-6.5712,-6.5084,-6.5024,-6.5024,-6.5024,-6.5622,-6.5951,-6.5922,-6.5293,-6.4635,-6.3977,-6.3977,-6.3977,-6.3977,-6.3977,-6.3977,-6.3977,-6.3977,-6.3647,-6.3079,-6.3079,-6.3408,-6.3977,-6.3977,-6.4366,-6.4964,-6.4934,-6.4994,-6.5084,-6.5772,-6.6011,-6.6101,0.0,0.0,0.0,0.0,0.0,0.0,0.0,-5.459,-5.4743,0.0,0.0,0.0,-5.6158,-5.6406,-5.6376,-5.5927,-5.5897,-5.5688,-5.5209,-5.5179,-5.5179,-5.5179,-5.5179,0.0,0.0,0.0,0.0,0.0,0.0,0.0,0.0,0.0,0.0,0.0,-6.272,-6.3199,-6.3378,-6.2211,-6.2181,-6.275,-6.1044,-6.0685,-6.1074,-6.0775,-6.0835,-6.1044,-6.0565,-6.0685,-6.1074,-6.0894,-6.0954,-6.1134,-6.1313,-6.1852,-6.2361,-6.2361,-6.272,-6.2959,-6.251,0.0,0.0,0.0,0.0,0.0,-6.1134,0.0,-6.3318,-6.3797,-6.4784,-6.5772,-6.643,-6.655,-6.6999,-6.8405,-6.8435,-6.8226,-6.8106,-6.7777,-6.7178,-6.6251,-6.637,-6.6281,-6.5622,-6.5413,-6.5233,-6.5054,-6.5024,-6.5024,-6.5024,-6.4725,-6.4336,-6.3917,-6.3707,-6.3528,-6.3318,-6.3318,-6.3318,-6.3318,-6.3318,-6.3318,-6.3318,-6.3318,-6.3228,-6.3079,-6.3079,-6.3169,-6.3318,-6.3318,-6.3438,-6.3647,-6.4126,-6.4276,-6.4425,-6.5592,-6.6011,-6.6101,0.0,0.0,0.0,0.0,0.0,0.0,0.0,-5.5179,-5.5179,0.0,0.0,0.0,-5.6158,-5.7214,-5.7573,-5.6645,-5.6077,-5.5718,-5.5598,-5.5089,-5.491,-5.5179,-5.5448,-5.5897,0.0,0.0,0.0,0.0,0.0,0.0,0.0,0.0,0.0,0.0,0.0,0.0,-6.1194,-6.0116,-6.0625,-6.2061,-6.1523,-6.1583,-6.1912,-6.1762,-6.1822,-6.1882,-6.1463,-6.1762,-6.2211,-6.1373,-6.1313,-6.1463,-6.1194,-6.1762,-6.2391,-6.1852,-6.2361,-6.2929,-6.2271,-6.1822,-6.1493,-6.1373,0.0,0.0,-6.0446,-6.0894,-6.1373,0.0,-6.266,-6.3588,-6.4246,-6.4605,-6.4994,-6.5622,-6.6311,-6.67,-6.661,-6.634,-6.5892,-6.5114,-6.5114,-6.5024,-6.4635,-6.4366,-6.4216,-6.4216,-6.4216,-6.4216,-6.4216,-6.3827,-6.3438,-6.3079,-6.3079,-6.3079,-6.3079,-6.3079,-6.3079,-6.3079,-6.3079,-6.3079,-6.3079,-6.3079,-6.3079,-6.3079,-6.3079,-6.3079,-6.3079,-6.3079,-6.3079,-6.3109,-6.3468,-6.3617,-6.3737,-6.4784,-6.5353,-6.5682,0.0,0.0,0.0,0.0,0.0,0.0,0.0,0.0,-5.5239,0.0,-5.5538,-5.5837,-5.6436,-5.8112,-5.868,-5.7334,-5.6047,-5.5508,-5.6017,-5.491,-5.4491,-5.5149,-5.5748,-5.6376,0.0,0.0,0.0,0.0,0.0,0.0,0.0,0.0,0.0,0.0,0.0,0.0,-5.9847,-5.9398,-6.0146,-6.1732,-6.254,-6.2899,-6.3019,-6.3588,-6.3498,-6.3079,-6.2989,-6.3378,-6.3647,-6.1912,-6.1613,-6.1882,-6.1313,-6.1882,-6.254,-6.1433,-6.2002,-6.2869,-6.2331,-6.2151,-6.2241,-6.281,-6.1583,0.0,-6.0864,-6.0535,-6.0086,0.0,-6.0565,-6.1194,-6.1882,-6.248,-6.3049,-6.3588,-6.4246,-6.4964,-6.5682,-6.5293,-6.4874,-6.4814,-6.4276,-6.3887,-6.3887,-6.3408,-6.3079,-6.3079,-6.3079,-6.3079,-6.3079,-6.3079,-6.3079,-6.3079,-6.3079,-6.3079,-6.3079,-6.3079,-6.3079,-6.3079,-6.3079,-6.3079,-6.3079,-6.3079,-6.3079,-6.3079,-6.3079,-6.3079,-6.3079,-6.3079,-6.3079,-6.3079,-6.3079,-6.3079,-6.3139,-6.3767,-6.4395,-6.5024,0.0,0.0,0.0,0.0,0.0,0.0,0.0,0.0,-5.5568,-5.6585,-5.7663,-5.8381,-5.853,-5.9338,-5.9368,-5.8052,-5.6735,-5.5807,-5.5418,-5.464,-5.4491,-5.5149,-5.5329,-5.5927,-5.7064,0.0,0.0,0.0,0.0,0.0,0.0,0.0,0.0,0.0,0.0,0.0,-5.856,-5.9488,-5.9518,-5.9039,-6.0805,-6.1822,-6.2301,-6.2421,-6.272,-6.3019,-6.248,-6.272,-6.3199,-6.281,-6.2061,-6.1283,-6.1164,-6.0924,-6.0715,-6.1014,-6.1672,-6.2361,-6.278,-6.251,-6.2121,-6.2241,-6.1583,0.0,-6.0386,-6.0176,-6.0086,0.0,-6.0176,-6.0505,-6.1194,-6.1403,-6.1553,-6.1672,-6.2241,-6.3079,-6.4246,-6.4276,-6.4006,-6.3528,-6.3348,-6.3258,-6.3258,-6.3139,-6.3079,-6.3079,-6.3079,-6.3079,-6.3079,-6.3079,-6.3079,-6.3079,-6.3079,-6.3079,-6.3079,-6.3079,-6.3079,-6.3079,-6.3079,-6.3079,-6.3079,-6.3079,-6.3079,-6.3079,-6.3079,-6.3079,-6.3079,-6.3079,-6.3079,-6.3079,-6.3079,-6.3079,-6.3139,-6.3767,-6.4066,-6.4366,0.0,0.0,0.0,0.0,0.0,0.0,0.0,0.0,0.0,-5.6974,-5.8261,-5.8979,-5.865,-5.9189,-5.9069,-5.7723,-5.6137,-5.5179,-5.5179,-5.3952,-5.3653,-5.467,-5.5029,-5.5777,-5.7064,-5.7423,0.0,0.0,0.0,0.0,0.0,0.0,0.0,0.0,0.0,0.0,0.0,-5.8979,-5.8919,-5.88,-6.0805,-6.1613,-6.1672,-6.2331,-6.278,-6.3019,-6.272,-6.278,-6.3079,-6.3079,-6.263,-6.1972,-6.1313,-6.1343,-6.1463,-6.0805,-6.1553,-6.251,-6.2181,-6.2331,-6.26,-6.26,-6.2091,0.0,0.0,-6.0326,-5.9997,-5.9668,-5.9608,-5.9697,-6.0057,-6.0386,-6.0595,-6.0595,-6.1164,-6.1822,-6.248,-6.3139,-6.3438,-6.3109,-6.3079,-6.3079,-6.3079,-6.3079,-6.3079,-6.3079,-6.3079,-6.3079,-6.3079,-6.3079,-6.3079,-6.3079,-6.3079,-6.3079,-6.3079,-6.3079,-6.3079,-6.3079,-6.3079,-6.3079,-6.3079,-6.3079,-6.3079,-6.3079,-6.3079,-6.3079,-6.3079,-6.3079,-6.3079,-6.3079,-6.3079,-6.3079,-6.3109,-6.3438,-6.3737,-6.4096,-5.3982,-5.4012,0.0,0.0,0.0,0.0,0.0,0.0,0.0,0.0,-5.8351,-5.8949,-5.853,-5.874,-5.859,-5.7752,-5.5418,-5.4401,-5.5329,-5.3384,-5.2755,-5.3952,-5.464,-5.5538,-5.6705,-5.7393,0.0,0.0,0.0,0.0,0.0,0.0,0.0,0.0,0.0,0.0,0.0,-5.8351,-5.8291,-5.871,-6.0715,-6.1194,-6.0894,-6.2331,-6.281,-6.272,-6.2989,-6.3079,-6.3079,-6.3079,-6.2989,-6.269,-6.1642,-6.1942,-6.2421,-6.0894,-6.1613,-6.269,-6.1732,-6.2271,-6.3079,-6.3079,-6.266,-6.2091,0.0,0.0,0.0,-5.9249,-5.9099,-5.9099,0.0,0.0,-5.9817,-5.9548,-6.0296,-6.0835,-6.0565,-6.1792,-6.275,-6.2869,-6.278,-6.275,-6.2869,-6.278,-6.269,-6.269,-6.281,-6.2839,-6.272,-6.2929,-6.3019,-6.2899,-6.3019,-6.3079,-6.3079,-6.3079,-6.3079,-6.3079,-6.3079,-6.3079,-6.3079,-6.3079,-6.3019,-6.2899,-6.2899,-6.2899,-6.2899,-6.2899,-6.2959,-6.3079,-6.3079,-6.3079,-6.3079,-6.3079,-6.3378,-6.3827,-5.3174,-5.3294,0.0,0.0,0.0,0.0,0.0,0.0,0.0,0.0,-5.865,-5.9308,-5.9817,-5.889,-5.865,-5.9668,-5.5807,-5.4072,-5.5927,-5.3623,-5.2516,-5.3264,-5.3952,-5.467,-5.5388,-5.6047,-5.6705,0.0,0.0,0.0,0.0,0.0,0.0,0.0,-5.8231,-5.8231,-5.8231,-5.8141,-5.7483,-5.6675,-5.865,-5.9398,-5.9548,-6.1463,-6.1852,-6.1493,-6.266,-6.3079,-6.3079,-6.3079,-6.269,-6.2181,-6.2032,-6.1672,-6.1403,-6.1762,-6.2032,-6.2301,-6.272,-6.2959,-6.3079,-6.3079,-6.3019,-6.263,-6.1403,0.0,-6.0625,-5.9368,0.0,-5.9099,-5.9099,0.0,0.0,-5.7633,-5.8979,-5.9787,-5.862,-6.0116,-6.1553,-6.2121,-6.1702,-6.1553,-6.2151,-6.1672,-6.1343,-6.1343,-6.1882,-6.1942,-6.1373,-6.245,-6.281,-6.2241,-6.278,-6.3079,-6.3079,-6.3079,-6.3079,-6.3079,-6.3079,-6.3079,-6.3079,-6.3079,-6.275,-6.2211,-6.2211,-6.2211,-6.2211,-6.2211,-6.254,-6.3079,-6.3079,-6.3079,-6.3079,-6.3079,-6.3109,-6.3258,-5.1828,-5.2336,-5.2606,0.0,0.0,0.0,0.0,0.0,0.0,0.0,-5.8949,-5.9368,-6.0027,-5.9249,-5.877,-5.8919,-5.6466,-5.494,-5.5029,-5.3264,-5.2486,-5.3144,-5.3443,-5.4281,-5.5718,-5.6068,-5.6466,0.0,-5.7094,0.0,0.0,0.0,0.0,0.0,-5.7932,-5.8112,-5.8112,-5.8112,-5.7812,-5.7363,-5.8201,-5.8291,-5.8201,-6.0625,-6.1583,-6.1762,-6.2301,-6.275,-6.3019,-6.263,-6.257,-6.254,-6.1762,-6.1852,-6.2151,-6.1672,-6.2061,-6.266,-6.254,-6.278,-6.3079,-6.3079,-6.3079,-6.2839,-6.1912,-6.1672,-6.1403,-6.0475,0.0,0.0,0.0,0.0,0.0,0.0,-5.9279,-5.9757,-5.883,-5.9428,-6.0326,-6.1403,-6.1283,-6.1224,-6.1493,-6.1283,-6.1104,-6.1104,-6.1373,-6.1403,-6.1134,-6.1642,-6.2002,-6.2091,-6.2002,-6.2121,-6.251,-6.2121,-6.1942,-6.1942,-6.1942,-6.2121,-6.251,-6.251,-6.2361,-6.2121,-6.251,-6.245,-6.2121,-6.251,-6.2839,-6.3079,-6.3079,-6.3079,-6.3079,-6.3079,-6.3079,-6.3109,-5.0511,-5.1199,-5.1648,-5.1648,0.0,0.0,0.0,0.0,-5.7573,-5.8201,-5.8441,-5.889,-5.9727,-5.9219,-5.8949,-5.9189,-5.7513,-5.6017,-5.5059,-5.3773,-5.2905,-5.2665,-5.3174,-5.3982,-5.5059,-5.5448,-5.5867,0.0,0.0,0.0,0.0,0.0,0.0,0.0,0.0,-5.8112,-5.8141,-5.8321,-5.8171,-5.7842,-5.7842,-5.7543,-5.7334,-5.9668,-6.1074,-6.1822,-6.1822,-6.2121,-6.248,-6.2181,-6.2421,-6.266,-6.1912,-6.2181,-6.263,-6.1672,-6.2061,-6.266,-6.2002,-6.2301,-6.281,-6.281,-6.266,-6.245,-6.2181,-6.1972,-6.1702,-6.1224,-6.0715,0.0,0.0,0.0,-6.0086,-5.9249,0.0,-5.9787,-5.8949,-5.8979,-5.9548,-6.0685,-6.0835,-6.0775,-6.0595,-6.0416,-6.0296,-6.0296,-6.0475,-6.0475,-6.0296,-6.0805,-6.1253,-6.1523,-6.1253,-6.1343,-6.1822,-6.1343,-6.1104,-6.1104,-6.1104,-6.1373,-6.1822,-6.1822,-6.1732,-6.1583,-6.2241,-6.2271,-6.1882,-6.254,-6.2899,-6.3079,-6.3079,-6.3079,-6.3079,-6.3079,-6.3079,-6.3079,-4.9359,-4.9853,-5.0255,-5.0255,-5.1349,0.0,0.0,-5.485,-5.5508,-5.6248,-5.6795,-5.7663,-5.8979,-5.856,-5.9189,-6.1762,-5.8949,-5.7034,-5.7004,-5.5807,-5.3952,-5.1379,-5.3144,-5.3593,-5.2366,-5.3593,-5.4281,0.0,0.0,0.0,0.0,0.0,0.0,0.0,-5.7543,-5.8112,-5.8171,-5.88,-5.8321,-5.7124,-5.7124,-5.7124,-5.7244,-5.865,-5.9997,-6.1134,-6.1134,-6.1164,-6.1283,-6.1882,-6.2121,-6.2241,-6.2839,-6.26,-6.2121,-6.2061,-6.2091,-6.2002,-6.1313,-6.1613,-6.2121,-6.2121,-6.1642,-6.1343,-6.1972,-6.1613,-6.1134,-6.1104,-6.1104,-6.1074,-6.1074,-6.1074,-6.0655,-5.9308,-5.9668,0.0,0.0,-5.871,-5.9368,-6.0027,-6.0116,-5.9877,-5.9219,-5.859,-5.8231,-5.8231,-5.88,-5.889,-5.8261,-6.0057,-6.0805,-6.0176,-6.0775,-6.1134,-6.1134,-6.1134,-6.1104,-6.1104,-6.1104,-6.1134,-6.1134,-6.1134,-6.0775,-6.0176,-6.0864,-6.1164,-6.1194,-6.1852,-6.251,-6.3079,-6.3079,-6.3079,-6.3079,-6.3079,-6.3079,-6.3079,-4.8536,-4.9134,-4.9853,-5.0674,-5.0853,-5.1349,-5.2665,-5.3832,-5.5089,-5.6585,-5.7752,-5.9279,-6.1493,-6.1912,-6.2211,-6.272,-6.1313,-5.9847,-5.8501,-5.6795,-5.5448,-5.4551,-5.473,-5.4431,-5.3533,-5.4401,-5.464,-5.4221,-5.4221,0.0,0.0,0.0,0.0,0.0,0.0,-5.6825,-5.6885,-5.7513,-5.7274,-5.6466,-5.6466,-5.7274,-5.8381,-5.7932,-5.8351,-5.9189,-5.9638,-6.0057,-6.0535,-6.1224,-6.1433,-6.1493,-6.1702,-6.1613,-6.1433,-6.1433,-6.1762,-6.2061,-6.1822,-6.2241,-6.263,-6.2211,-6.1942,-6.1702,-6.1493,-6.1613,-6.1762,-6.1762,-6.1433,-6.1253,-6.1672,-6.1044,-6.0296,-5.9817,-5.9937,-5.9787,0.0,-5.8979,-5.9189,-5.9398,-5.9428,-5.9189,-5.853,-5.8261,-5.7932,-5.7483,-5.7663,-5.7872,-5.8112,-5.877,-5.9428,-6.0057,-5.9877,-5.9997,-6.0416,-5.9997,-5.9787,-5.9787,-5.9787,-6.0236,-6.1104,-6.1104,-6.1224,-6.1463,-6.2121,-6.2181,-6.1822,-6.248,-6.2869,-6.3079,-6.3079,-6.3079,-6.3079,-6.3079,-6.3079,-6.3139,-4.8207,-4.8446,-4.8985,-5.0301,-5.0315,-5.0465,-5.1379,-5.3234,-5.4999,-5.6256,-5.8411,-6.0565,-6.251,-6.3498,-6.3827,-6.3438,-6.3019,-6.1642,-5.8919,-5.8231,-5.7184,-5.5538,-5.5718,-5.5359,-5.4221,-5.485,-5.488,-5.4221,-5.4221,-5.4551,0.0,0.0,0.0,0.0,0.0,-5.6256,-5.5897,-5.7004,-5.6974,-5.6188,-5.5927,-5.6585,-5.7633,-5.6735,-5.7274,-5.8471,-5.8411,-5.883,-5.9488,-6.0176,-6.0565,-6.0805,-6.1044,-6.1104,-6.1104,-6.1104,-6.1583,-6.2061,-6.1822,-6.2241,-6.263,-6.2211,-6.1912,-6.1702,-6.1493,-6.1613,-6.1732,-6.1732,-6.1403,-6.1253,-6.1672,-6.1044,-6.0446,-6.0446,-6.0236,-5.9847,0.0,-5.9099,-5.9099,-5.9099,-5.9099,-5.886,-5.8201,-5.7902,-5.7483,-5.6825,-5.6765,-5.7064,-5.7723,-5.7992,-5.862,-5.9697,-5.9338,-5.9308,-5.9727,-5.9308,-5.9099,-5.9099,-5.9099,-5.9668,-6.0745,-6.0745,-6.1104,-6.1792,-6.245,-6.248,-6.2151,-6.281,-6.3079,-6.3079,-6.3079,-6.3079,-6.3079,-6.3079,-6.3079,-6.3139,-4.8267,-4.7788,-4.7758,-4.909,-4.9793,-5.0196,-5.0196,-5.3025,-5.5179,-5.5269,-5.868,-6.1373,-6.2121,-6.3288,-6.4036,-6.4006,-6.4006,-6.2391,-5.862,-6.0086,-5.9159,-5.473,-5.6256,-5.6286,-5.4401,-5.494,-5.494,-5.4311,-5.4221,0.0,0.0,0.0,0.0,0.0,-5.6107,0.0,-5.5269,-5.7184,-5.7244,-5.6017,-5.5388,-5.5149,-5.5179,-5.5119,-5.6705,-5.88,-5.7513,-5.7483,-5.8141,-5.88,-5.9428,-6.0057,-6.0775,-6.0984,-6.0984,-6.1044,-6.1493,-6.1882,-6.1283,-6.1583,-6.2061,-6.2091,-6.1613,-6.1283,-6.1852,-6.1523,-6.1104,-6.1074,-6.1074,-6.1074,-6.1104,-6.1074,-6.1014,-6.1074,-6.0475,-5.9817,-5.9189,-5.9099,-5.9099,-5.9099,-5.9069,-5.88,-5.8141,-5.7453,-5.6795,-5.6218,-5.6188,-5.6406,-5.7064,-5.7723,-5.8381,-5.9069,-5.9099,-5.9099,-5.9099,-5.9099,-5.9099,-5.9099,-5.9099,-5.9458,-6.0146,-6.0146,-6.0535,-6.1253,-6.1882,-6.2151,-6.2181,-6.281,-6.3079,-6.3079,-6.3079,-6.3079,-6.3079,-6.3079,-6.3079,-6.3079,-4.8177,-4.8147,-4.8297,-4.9179,-4.9793,-5.0196,-5.0196,-5.2636,-5.497,-5.6406,-5.9249,-6.1732,-6.3348,-6.4276,-6.4545,-6.4036,-6.4006,-6.3378,-6.1912,-6.1373,-6.0595,-5.9398,-5.886,-5.7902,-5.6376,-5.6077,-5.5837,-5.5658,-5.4162,0.0,-5.5149,0.0,0.0,0.0,0.0,-5.476,-5.4521,-5.5508,-5.5478,-5.47,-5.4521,-5.476,-5.5089,-5.4072,-5.5029,-5.6885,-5.6526,-5.6526,-5.6765,-5.7393,-5.7723,-5.8082,-5.9249,-5.9279,-5.9099,-6.0057,-6.0475,-6.0685,-6.1014,-6.1253,-6.1493,-6.1972,-6.1613,-6.1014,-6.0685,-6.0864,-6.0954,-6.0446,-6.0356,-6.0505,-6.1014,-6.0296,-5.9787,-6.0266,-5.9787,-5.9308,-5.9129,-5.9099,-5.9099,-5.9099,-5.868,-5.8112,-5.7423,-5.6795,-5.6137,-5.5508,-5.5448,-5.5927,-5.7034,-5.7274,-5.7902,-5.9069,-5.9099,-5.9099,-5.9099,-5.9099,-5.9099,-5.9099,-5.9099,-5.9727,-6.0835,-6.0835,-6.1493,-6.26,-6.275,-6.281,-6.2839,-6.3019,-6.3079,-6.3079,-6.3079,-6.3079,-6.3079,-6.3079,-6.3079,-6.3079,-4.7848,-4.8087,-4.8416,-4.882,-5.0092,-5.1199,-5.1468,-5.2785,-5.4461,-5.6436,-5.9009,-6.1074,-6.2181,-6.3917,-6.4755,-6.4066,-6.4006,-6.3498,-6.2301,-6.2061,-6.1583,-6.0715,-5.9937,-5.8919,-5.7573,-5.6645,-5.6047,-5.5748,-5.3743,0.0,-5.473,0.0,0.0,0.0,0.0,-5.4042,-5.3803,-5.4491,-5.47,-5.4581,-5.4012,-5.3982,0.0,-5.3473,-5.3892,-5.488,-5.488,-5.5418,-5.6226,-5.6585,-5.6885,-5.7214,-5.7992,-5.8171,-5.8321,-5.9368,-5.9847,-6.0236,-6.0924,-6.1104,-6.1194,-6.1583,-6.1373,-6.0924,-6.0236,-6.0386,-6.0475,-5.9787,-5.9668,-5.9787,-6.0176,-5.9608,-5.9219,-5.9608,-5.9338,-5.9099,-5.9099,-5.9099,-5.9099,-5.9099,-5.853,-5.7842,-5.7154,-5.6526,-5.5897,-5.5239,-5.5179,-5.5628,-5.6645,-5.6944,-5.7573,-5.865,-5.9249,-5.9398,-5.9099,-5.9398,-5.9398,-5.9099,-5.9099,-5.9817,-6.1104,-6.1104,-6.1822,-6.3079,-6.3079,-6.3079,-6.3079,-6.3079,-6.3079,-6.3079,-6.3079,-6.3079,-6.3079,-6.3079,-6.3079,-6.3079,-4.7429,-4.7848,-4.8297,-4.8297,-5.0391,-5.2396,-5.3414,-5.3803,-5.461,-5.6487,-5.889,-6.0475,-6.0475,-6.3049,-6.4545,-6.3917,-6.3887,-6.3169,-6.1493,-6.2361,-6.2181,-6.0416,-6.0176,-5.9518,-5.8291,-5.6885,-5.5837,-5.5179,-5.3084,0.0,0.0,0.0,0.0,0.0,0.0,0.0,0.0,-5.3832,-5.4341,-5.47,-5.3533,-5.2995,-5.2935,-5.2935,-5.2965,-5.3054,-5.3054,-5.4281,-5.5927,-5.5927,-5.6316,-5.6855,-5.6944,-5.7393,-5.7992,-5.865,-5.9249,-5.9847,-6.0625,-6.0775,-6.0775,-6.1044,-6.1044,-6.0835,-6.0206,-6.0086,-5.9907,-5.9249,-5.9099,-5.9099,-5.9099,-5.9099,-5.9099,-5.9099,-5.9099,-5.9099,-5.9099,-5.9099,-5.9099,-5.9099,-5.853,0.0,-5.7304,-5.6585,-5.5897,-5.5239,-5.5179,-5.5478,-5.6188,-5.6765,-5.7423,-5.8112,-5.9308,-5.9727,-5.9249,-5.9727,-5.9727,-5.9219,-5.9129,-5.9757,-6.0984,-6.1074,-6.1792,-6.2959,-6.3049,-6.3079,-6.3079,-6.3079,-6.3079,-6.3079,-6.3079,-6.3079,-6.3079,-6.3079,-6.3079,-6.3079,-4.7339,-4.7848,-4.8297,-4.8297,-5.0002,-5.2366,-5.5209,-5.7034,-5.8381,-5.9279,-6.1253,-6.254,-6.254,-6.3079,-6.3378,-6.3258,-6.3228,-6.3079,-6.275,-6.245,-6.2121,-6.1762,-6.0685,-5.9727,-5.8949,-5.7124,-5.5837,-5.5179,-5.2636,-5.1498,0.0,0.0,0.0,0.0,0.0,0.0,-5.3204,-5.3324,-5.3114,-5.2695,-5.2456,-5.2037,-5.1558,-5.1558,-5.1887,-5.2366,-5.2366,-5.3294,-5.4551,-5.4551,-5.4999,-5.5628,-5.6166,-5.6406,-5.6645,-5.7274,-5.7513,-5.7902,-5.9129,-5.9069,-5.9039,-6.0715,-6.0685,-6.0236,-6.0116,-6.0086,-5.9907,-5.9249,-5.9099,-5.9099,-5.9099,-5.9099,-5.9099,-5.9099,-5.9099,-5.9099,-5.9099,-5.9099,-5.9099,-5.9099,-5.853,-5.8082,-5.7962,-5.6885,-5.5897,-5.5239,-5.5179,-5.5478,-5.6188,-5.6765,-5.7423,-5.8112,-5.886,-5.9488,-5.9907,-5.9488,-5.9488,-5.9907,-5.9368,-5.9518,-6.0266,-6.0864,-6.1523,-6.2301,-6.2839,-6.3079,-6.3079,-6.3079,-6.3079,-6.3079,-6.3079,-6.3079,-6.3079,-6.3079,-6.3079,-6.3079,-4.8775,-4.8805,-4.9105,-5.0152,-5.1678,-5.3773,-5.6735,-5.856,-5.9608,-5.9578,-6.0416,-6.1014,-6.1014,-6.2241,-6.3079,-6.3079,-6.278,-6.257,-6.257,-6.1942,-6.1583,-6.1583,-6.0625,-5.9608,-5.862,-5.6346,-5.482,-5.4162,-5.1169,-5.0032,0.0,0.0,0.0,0.0,0.0,-5.1618,0.0,-5.2456,-5.2366,-5.2665,-5.1977,-5.1498,-5.1229,-5.1229,-5.1409,-5.1678,-5.1678,-5.2336,-5.3264,-5.3982,-5.4431,-5.479,-5.5448,-5.5658,-5.5777,-5.6436,-5.6615,-5.6915,-5.8231,-5.8381,-5.8441,-5.9757,-5.9817,-5.9578,-5.9578,-5.9578,-5.9488,-5.9159,-5.9099,-5.9099,-5.9099,-5.9099,-5.9099,-5.9099,-5.9099,-5.9099,-5.9099,-5.9099,-5.8979,-5.865,-5.8321,-5.7872,-5.7184,-5.6526,-5.6098,-5.5718,-5.5388,-5.5329,-5.5658,-5.6585,-5.7244,-5.7573,-5.8919,-5.9608,-5.9578,-5.9608,-5.9608,-5.9578,-5.9249,-5.9638,-6.0625,-6.0954,-6.1672,-6.263,-6.2929,-6.3079,-6.3079,-6.3079,-6.3079,-6.3079,-6.3079,-6.3079,-6.3079,-6.3079,-6.3079,-6.3079,-5.0255,-5.0152,-5.0421,-5.2127,-5.3653,-5.5359,-5.7573,-5.9159,-6.0057,-5.9967,-5.9817,-5.9727,-5.9727,-6.1613,-6.281,-6.266,-6.2181,-6.1882,-6.1882,-6.1253,-6.0835,-6.0685,-6.0027,-5.8979,-5.7543,-5.5209,-5.3533,-5.2546,-4.9703,-4.8745,-4.9538,0.0,0.0,0.0,0.0,0.0,-5.2486,-5.1439,-5.1678,-5.2665,-5.1648,-5.1229,-5.1229,-5.1229,-5.1229,-5.1229,-5.1229,-5.1558,-5.2187,-5.3533,-5.4072,-5.4311,-5.482,-5.5089,-5.5299,-5.5807,-5.5957,-5.6226,-5.7393,-5.7812,-5.8052,-5.874,-5.9009,-5.9099,-5.9099,-5.9099,-5.9099,-5.9099,-5.9099,-5.9099,-5.9099,-5.9099,-5.9099,-5.9099,-5.9099,-5.9099,-5.9099,-5.9099,-5.886,-5.8201,-5.8112,-5.7663,-5.6466,-5.6308,-5.6218,-5.6218,-5.5568,-5.5179,-5.5179,-5.6286,-5.6944,-5.7094,-5.877,-5.9548,-5.9308,-5.9697,-5.9697,-5.9308,-5.9159,-5.9727,-6.0894,-6.1044,-6.1762,-6.2869,-6.3019,-6.3079,-6.3079,-6.3079,-6.3079,-6.3079,-6.3079,-6.3079,-6.3079,-6.3079,-6.3079,-6.3079,-5.099,-5.1558,-5.2187,-5.2965,-5.47,-5.6256,-5.7064,-5.883,-6.0715,-6.248,-6.2181,-6.1822,-6.1822,-6.2032,-6.1942,-6.1343,-6.1253,-6.1194,-6.1194,-6.0565,-5.9907,-5.9308,-5.865,-5.7423,-5.5508,-5.4042,-5.2366,-5.0465,-4.9015,-4.8057,-4.7578,0.0,0.0,0.0,-4.912,-4.9793,-5.0465,-5.0345,-5.0704,-5.1379,-5.1259,-5.1229,-5.1229,-5.1229,-5.1229,-5.1229,-5.1229,-5.1259,-5.1498,-5.2845,-5.3683,-5.4221,-5.4281,-5.47,-5.5209,-5.5269,-5.5269,-5.5448,-5.6166,-5.6765,-5.7363,-5.8052,-5.865,-5.9099,-5.9099,-5.9099,-5.9099,-5.9099,-5.9099,-5.9099,-5.9099,-5.9099,-5.9099,-5.9099,-5.9099,-5.9099,-5.9099,-5.9099,-5.886,-5.8201,-5.8112,-5.7812,-5.7094,-5.6496,-5.6218,-5.6218,-5.5568,-5.5179,-5.5179,-5.5867,-5.6526,-5.7064,-5.7872,-5.886,-5.9997,-5.9458,-5.9458,-5.9997,-5.9398,-5.9488,-6.0206,-6.0835,-6.1493,-6.2211,-6.281,-6.3079,-6.3079,-6.3079,-6.3079,-6.3079,-6.3079,-6.3079,-6.3079,-6.3079,-6.3079,-6.3079,-5.2875,-5.2905,-5.3384,-5.5209,-5.5897,-5.6795,-5.862,-5.9249,-6.0086,-6.1702,-6.1672,-6.1493,-6.1493,-6.1493,-6.1403,-6.1134,-6.0745,-6.0505,-6.0505,-5.9877,-5.9189,-5.853,-5.8261,-5.7214,-5.5239,-5.3862,-5.2217,-5.0196,-4.8925,-4.7967,-4.7309,-4.7309,-4.7429,-4.7728,-4.8386,-4.9045,-4.9673,-5.0016,-5.0584,-5.1229,-5.1229,-5.1229,-5.1229,-5.1229,-5.1229,-5.1229,-5.1229,-5.1229,-5.1289,-5.1828,-5.2725,-5.3743,-5.4551,-5.497,-5.5179,-5.5179,-5.5179,-5.5329,-5.6038,-5.6346,-5.6795,-5.7872,-5.8321,-5.862,-5.9009,-5.9099,-5.9099,-5.9099,-5.9099,-5.9099,-5.9099,-5.9099,-5.9099,-5.9099,-5.9099,-5.9099,-5.9099,-5.9099,-5.871,-5.7633,-5.7513,-5.7094,-5.6047,-5.5718,-5.5748,-5.6188,-5.5568,-5.5179,-5.5179,-5.5807,-5.6466,-5.7064,-5.7752,-5.856,-5.9488,-5.9249,-5.9249,-5.9488,-5.9219,-5.9668,-6.0715,-6.0984,-6.1702,-6.269,-6.2959,-6.3079,-6.3079,-6.3079,-6.3079,-6.3079,-6.3079,-6.3079,-6.3079,-6.3079,-6.3079,-6.3079,-5.4311,-5.4102,-5.4461,-5.6705,-5.6885,-5.7363,-5.9219,-5.9279,-5.9368,-6.0146,-6.0236,-6.0386,-6.0775,-6.0805,-6.0745,-6.0535,-5.9907,-5.9518,-5.9518,-5.889,-5.8231,-5.7573,-5.7543,-5.6705,-5.494,-5.3593,-5.2127,-5.0495,-4.9015,-4.8057,-4.7578,-4.7399,-4.7309,-4.7339,-4.7997,-4.8656,-4.9359,-4.9942,-5.0584,-5.1229,-5.1229,-5.1229,-5.1229,-5.1229,-5.1229,-5.1229,-5.1229,-5.1229,-5.1259,-5.1439,-5.2247,-5.3354,-5.4311,-5.473,-5.494,-5.5119,-5.5179,-5.5299,-5.5748,-5.6017,-5.6406,-5.7334,-5.7693,-5.7992,-5.865,-5.883,-5.886,-5.9069,-5.9099,-5.9099,-5.9099,-5.9099,-5.9099,-5.9099,-5.9099,-5.9039,-5.883,-5.883,-5.8321,-5.6974,-5.6825,-5.6406,-5.5299,-5.5179,-5.5388,-5.5837,-5.5448,-5.5269,-5.5478,-5.5927,-5.6466,-5.7064,-5.7752,-5.8441,-5.9099,-5.9099,-5.9099,-5.9099,-5.9099,-5.9697,-6.0835,-6.1224,-6.2002,-6.3079,-6.3079,-6.3079,-6.3079,-6.3079,-6.3079,-6.3079,-6.3079,-6.3079,-6.3079,-6.3079,-6.3079,-6.3079,-5.491,-5.5179,-5.5568,-5.6855,-5.7663,-5.8112,-5.8141,-5.868,-5.889,-5.8231,-5.8171,-5.865,-5.9967,-6.0086,-5.9847,-5.9189,-5.853,-5.8141,-5.8141,-5.7513,-5.6825,-5.6278,-5.6248,-5.5568,-5.4251,-5.2905,-5.1887,-5.1199,-4.9254,-4.8297,-4.8267,-4.7608,-4.7309,-4.7339,-4.7997,-4.8656,-4.9359,-4.9942,-5.0584,-5.1229,-5.1229,-5.1229,-5.1229,-5.1229,-5.1229,-5.1229,-5.1229,-5.1229,-5.1319,-5.1977,-5.2636,-5.3174,-5.3204,-5.3683,-5.4341,-5.4999,-5.5179,-5.5179,-5.5209,-5.5688,-5.6218,-5.6248,-5.6645,-5.7304,-5.7992,-5.8141,-5.8321,-5.8979,-5.9099,-5.9099,-5.9099,-5.9099,-5.9099,-5.9099,-5.9099,-5.889,-5.8231,-5.8141,-5.7663,-5.6346,-5.6248,-5.5927,-5.5269,-5.5179,-5.5179,-5.5209,-5.5179,-5.5478,-5.6188,-5.6218,-5.6466,-5.7064,-5.7752,-5.8441,-5.9099,-5.9099,-5.9099,-5.9099,-5.9099,-5.9458,-6.0146,-6.1463,-6.245,-6.3079,-6.3079,-6.3079,-6.3079,-6.3079,-6.3079,-6.3079,-6.3079,-6.3079,-6.3079,-6.3079,-6.3079,-6.3079,-5.5688,-5.5867,-5.6137,-5.6944,-5.7274,-5.7423,-5.7423,-5.7603,-5.7663,-5.7453,-5.7423,-5.7573,-5.7992,-5.8052,-5.7962,-5.7752,-5.7543,-5.7423,-5.7423,-5.7214,-5.6825,-5.6248,-5.6218,-5.5329,-5.3563,-5.3084,-5.2097,-5.0495,-4.9867,-4.9164,-4.8267,-4.7608,-4.7309,-4.7339,-4.7997,-4.8386,-4.8686,-4.9763,-5.0315,-5.0554,-5.105,-5.1229,-5.1229,-5.1229,-5.1229,-5.1229,-5.1229,-5.1229,-5.1259,-5.1468,-5.1977,-5.2606,-5.3025,-5.3952,-5.491,-5.5119,-5.5179,-5.5179,-5.5179,-5.5359,-5.5598,-5.6128,-5.6316,-5.6765,-5.7872,-5.8471,-5.886,-5.9069,-5.9099,-5.9099,-5.9099,-5.9099,-5.9099,-5.9099,-5.874,-5.8351,-5.8141,-5.7723,-5.7124,-5.6286,-5.6218,-5.5927,-5.5269,-5.5179,-5.5388,-5.5837,-5.5448,-5.5269,-5.5508,-5.5927,-5.6466,-5.7064,-5.7752,-5.8441,-5.9099,-5.9099,-5.9099,-5.9099,-5.9099,-5.9697,-6.0805,-6.1702,-6.245,-6.3079,-6.3079,-6.3079,-6.3079,-6.3079,-6.3079,-6.3079,-6.3079,-6.3079,-6.3079,-6.3079,-6.3079,-6.3079,-5.5718,-5.5807,-5.5927,-5.6316,-5.6585,-5.6735,-5.6735,-5.6944,-5.7004,-5.6765,-5.6735,-5.6645,-5.6406,-5.6376,-5.6585,-5.7064,-5.6885,-5.6735,-5.6735,-5.6526,-5.6196,-5.5807,-5.5807,-5.5119,-5.3593,-5.3324,-5.2456,-5.0913,-5.0435,-4.9583,-4.8267,-4.7878,-4.7549,-4.7339,-4.7997,-4.8297,-4.8356,-4.9434,-4.9883,-4.9942,-5.0571,-5.0794,-5.0823,-5.1109,-5.1229,-5.1229,-5.1229,-5.1229,-5.1229,-5.1229,-5.1828,-5.2636,-5.3054,-5.4102,-5.5179,-5.5179,-5.5179,-5.5179,-5.5179,-5.5179,-5.5299,-5.5718,-5.5807,-5.6077,-5.7154,-5.7902,-5.8411,-5.868,-5.874,-5.88,-5.9069,-5.889,-5.874,-5.874,-5.8171,-5.7663,-5.7423,-5.7034,-5.6526,-5.5867,-5.5807,-5.5658,-5.5239,-5.5179,-5.5359,-5.5777,-5.5418,-5.5179,-5.5179,-5.6047,-5.6705,-5.7094,-5.7992,-5.868,-5.9099,-5.9099,-5.9099,-5.9099,-5.9099,-5.9817,-6.1134,-6.1553,-6.2211,-6.3079,-6.3079,-6.3079,-6.3079,-6.3079,-6.3079,-6.3079,-6.3079,-6.3079,-6.3079,-6.3079,-6.3079,-6.3079,-5.5179,-5.5179,-5.5179,-5.5179,-5.5688,-5.6158,-5.6158,-5.6585,-5.6765,-5.6166,-5.6158,-5.5867,-5.5269,-5.5179,-5.5658,-5.6855,-5.6436,-5.6158,-5.6158,-5.5538,-5.5179,-5.5119,-5.5119,-5.479,-5.4072,-5.3443,-5.2785,-5.2127,-5.0823,-4.9583,-4.8356,-4.8297,-4.7938,-4.7339,-4.7938,-4.8207,-4.8267,-4.897,-4.9239,-4.9299,-4.9942,-5.0196,-5.0255,-5.0913,-5.1229,-5.1229,-5.1229,-5.1229,-5.1229,-5.1229,-5.2067,-5.3114,-5.3114,-5.4012,-5.5059,-5.5149,-5.5179,-5.5179,-5.5179,-5.5179,-5.5179,-5.5179,-5.5209,-5.5418,-5.6047,-5.6645,-5.7274,-5.7932,-5.8052,-5.8231,-5.886,-5.8471,-5.8052,-5.8052,-5.7483,-5.6825,-5.6308,-5.6188,-5.5867,-5.5269,-5.5179,-5.5179,-5.5179,-5.5179,-5.5179,-5.5179,-5.5179,-5.5179,-5.5179,-5.6406,-5.7094,-5.7094,-5.8411,-5.9099,-5.9099,-5.9099,-5.9099,-5.9099,-5.9099,-5.9787,-6.1044,-6.1104,-6.1822,-6.3019,-6.3049,-6.3079,-6.3079,-6.3079,-6.3079,-6.3079,-6.3079,-6.3079,-6.3079,-6.3079,-6.3079,-6.3079,-5.5179,-5.5179,-5.5179,-5.5179,-5.5329,-5.5418,-5.5418,-5.5538,-5.5598,-5.5448,-5.5418,-5.5359,-5.5209,-5.5179,-5.5299,-5.5628,-5.5508,-5.5418,-5.5418,-5.5269,-5.497,-5.4461,-5.4431,-5.3892,-5.2695,-5.2516,-5.2127,-5.1439,-5.0584,-4.9823,-4.906,-4.8506,-4.7938,-4.7309,-4.7459,-4.7549,-4.7578,-4.8237,-4.8506,-4.8626,-4.9763,-5.0196,-5.0255,-5.0913,-5.1229,-5.1229,-5.1229,-5.1229,-5.1229,-5.1229,-5.1768,-5.2426,-5.2426,-5.2995,-5.3862,-5.488,-5.5179,-5.5179,-5.5179,-5.5179,-5.5179,-5.5179,-5.5568,-5.5987,-5.6188,-5.6645,-5.7154,-5.7304,-5.7334,-5.7393,-5.7543,-5.7453,-5.7334,-5.7334,-5.6795,-5.6346,-5.6248,-5.5748,-5.5359,-5.5209,-5.5179,-5.5179,-5.5179,-5.5179,-5.5179,-5.5179,-5.5179,-5.5179,-5.5179,-5.6406,-5.7094,-5.7094,-5.8411,-5.9099,-5.9099,-5.9099,-5.9099,-5.9099,-5.9099,-5.9548,-6.0356,-6.0864,-6.1553,-6.2361,-6.2869,-6.3079,-6.3079,-6.3079,-6.3079,-6.3079,-6.3079,-6.3079,-6.3079,-6.3079,-6.3079,-6.3079,-5.5119,-5.5179,-5.5179,-5.5179,-5.5179,-5.5179,-5.5179,-5.5179,-5.5179,-5.5179,-5.5179,-5.5179,-5.5179,-5.5179,-5.5179,-5.5179,-5.5179,-5.5179,-5.5179,-5.491,-5.4581,-5.4221,-5.3922,-5.3264,-5.2217,-5.2187,-5.1738,-5.0734,-5.0375,-4.9763,-4.885,-4.8745,-4.8237,-4.7309,-4.7309,-4.7309,-4.7339,-4.7698,-4.7848,-4.7938,-4.8955,-4.9523,-4.9853,-5.0511,-5.0913,-5.1229,-5.1229,-5.1229,-5.1229,-5.1229,-5.1648,-5.2187,-5.2187,-5.2665,-5.3324,-5.4042,-5.4491,-5.482,-5.5119,-5.5179,-5.5179,-5.5179,-5.5448,-5.5718,-5.5718,-5.5987,-5.6316,-5.6615,-5.6675,-5.6765,-5.7034,-5.6855,-5.6675,-5.6675,-5.6137,-5.5718,-5.5718,-5.5418,-5.5179,-5.5179,-5.5179,-5.5179,-5.5179,-5.5179,-5.5179,-5.5179,-5.5179,-5.5179,-5.5179,-5.6406,-5.7094,-5.7094,-5.8411,-5.9099,-5.9099,-5.9099,-5.9099,-5.9099,-5.9099,-5.9458,-6.0116,-6.0805,-6.1463,-6.2121,-6.278,-6.3079,-6.3079,-6.3079,-6.3079,-6.3079,-6.3079,-6.3079,-6.3079,-6.3079,-6.3079,-6.3079,-5.479,-5.497,-5.5029,-5.5029,-5.5119,-5.5179,-5.5179,-5.5179,-5.5149,-5.5059,-5.5119,-5.5119,-5.491,-5.5059,-5.5149,-5.5059,-5.5029,-5.5029,-5.5029,-5.4431,-5.4012,-5.3922,-5.3354,-5.2665,-5.1917,-5.1917,-5.1319,-5.0046,-5.0136,-4.9583,-4.8297,-4.9,-4.8566,-4.7309,-4.7399,-4.7399,-4.7309,-4.7309,-4.7309,-4.7369,-4.8027,-4.8626,-4.9239,-4.9942,-5.0524,-5.1079,-5.1169,-5.1229,-5.1229,-5.1229,-5.1588,-5.2067,-5.2067,-5.2426,-5.2905,-5.2995,-5.3443,-5.4042,-5.47,-5.497,-5.5059,-5.5149,-5.5179,-5.5179,-5.5179,-5.5179,-5.5359,-5.5897,-5.6017,-5.6196,-5.6705,-5.6376,-5.6017,-5.6017,-5.5478,-5.5089,-5.5179,-5.5089,-5.5089,-5.5179,-5.5179,-5.5179,-5.5179,-5.5179,-5.5179,-5.5179,-5.5179,-5.5239,-5.5329,-5.6466,-5.7154,-5.7244,-5.8441,-5.9099,-5.9099,-5.9099,-5.9099,-5.9099,-5.9099,-5.9458,-6.0116,-6.0805,-6.1463,-6.2121,-6.278,-6.3079,-6.3079,-6.3079,-6.3079,-6.3079,-6.3079,-6.3079,-6.3079,-6.3079,-6.3079,-6.3079,-5.3473,-5.3952,-5.4371,-5.4371,-5.482,-5.5179,-5.5179,-5.5179,-5.4999,-5.4431,-5.485,-5.476,-5.3623,-5.4521,-5.497,-5.4401,-5.4371,-5.4371,-5.4371,-5.3713,-5.3084,-5.2546,-5.2396,-5.1798,-5.0524,-5.0495,-5.0182,-4.9404,-4.9972,-4.9583,-4.8297,-4.9,-4.8566,-4.7339,-4.7878,-4.7818,-4.7309,-4.7309,-4.7309,-4.7369,-4.8027,-4.8356,-4.8566,-4.9717,-5.0255,-5.0405,-5.102,-5.1229,-5.1229,-5.1229,-5.1289,-5.1379,-5.1379,-5.1439,-5.1618,-5.2187,-5.2426,-5.2665,-5.3324,-5.3922,-5.4491,-5.5059,-5.5179,-5.5179,-5.5179,-5.5179,-5.5209,-5.5329,-5.5359,-5.5359,-5.5478,-5.5418,-5.5359,-5.5359,-5.479,-5.4551,-5.5119,-5.47,-5.4581,-5.5119,-5.5179,-5.5179,-5.5179,-5.5179,-5.5179,-5.5179,-5.5179,-5.5448,-5.5987,-5.6705,-5.7363,-5.7932,-5.871,-5.9099,-5.9099,-5.9099,-5.9099,-5.9099,-5.9099,-5.9458,-6.0116,-6.0805,-6.1463,-6.2121,-6.278,-6.3079,-6.3079,-6.3079,-6.3079,-6.3079,-6.3079,-6.3079,-6.3079,-6.3079,-6.3079,-6.3079,-5.3593,-5.3982,-5.4311,-5.467,-5.4999,-5.5179,-5.5179,-5.5179,-5.497,-5.4311,-5.4491,-5.4281,-5.3294,-5.3743,-5.3982,-5.3683,-5.3324,-5.3114,-5.3114,-5.2815,-5.2516,-5.2217,-5.1858,-5.1379,-5.0734,-5.0092,-4.9733,-4.9793,-4.9733,-4.9404,-4.888,-4.9494,-4.9075,-4.7848,-4.8147,-4.7908,-4.7309,-4.7309,-4.7309,-4.7339,-4.7638,-4.7967,-4.8386,-4.9344,-4.9942,-5.0285,-5.0943,-5.1229,-5.1229,-5.1229,-5.1229,-5.1229,-5.1229,-5.1229,-5.1289,-5.1588,-5.2187,-5.2875,-5.3563,-5.3952,-5.4371,-5.5029,-5.5179,-5.5179,-5.5179,-5.5179,-5.5179,-5.5179,-5.5179,-5.5179,-5.5179,-5.5179,-5.5179,-5.5179,-5.494,-5.485,-5.5149,-5.494,-5.485,-5.5149,-5.5179,-5.5329,-5.5688,-5.5718,-5.5867,-5.6196,-5.6226,-5.6346,-5.6645,-5.7304,-5.7782,-5.8112,-5.877,-5.9099,-5.9099,-5.9099,-5.9099,-5.9099,-5.9099,-5.9458,-6.0116,-6.0805,-6.1463,-6.2121,-6.278,-6.3079,-6.3079,-6.3079,-6.3079,-6.3079,-6.3079,-6.3079,-6.3079,-6.3079,-6.3079,-6.3079,-5.3503,-5.3862,-5.4132,-5.464,-5.497,-5.5149,-5.497,-5.5089,-5.491,-5.4072,-5.4102,-5.3832,-5.2845,-5.2995,-5.3114,-5.2965,-5.2486,-5.2187,-5.2187,-5.2067,-5.1977,-5.1977,-5.1349,-5.093,-5.078,-4.9942,-4.9673,-5.0002,-4.9523,-4.9299,-4.9329,-4.9763,-4.9464,-4.8506,-4.8506,-4.8147,-4.7519,-4.7369,-4.7309,-4.7309,-4.7309,-4.7608,-4.8117,-4.882,-4.9434,-5.0092,-5.0704,-5.1079,-5.1229,-5.1229,-5.1229,-5.1229,-5.1229,-5.1229,-5.1229,-5.1229,-5.2037,-5.3084,-5.3773,-5.3982,-5.4162,-5.497,-5.5179,-5.5179,-5.5179,-5.5179,-5.5179,-5.5179,-5.5179,-5.5179,-5.5179,-5.5179,-5.5179,-5.5179,-5.5059,-5.5029,-5.5179,-5.5059,-5.5029,-5.5179,-5.5179,-5.5448,-5.6107,-5.6218,-5.6436,-5.7034,-5.7094,-5.7154,-5.7334,-5.7842,-5.8201,-5.8351,-5.883,-5.9099,-5.9099,-5.9099,-5.9099,-5.9099,-5.9249,-5.9668,-6.0356,-6.1044,-6.1702,-6.2361,-6.2869,-6.3079,-6.3079,-6.3079,-6.3079,-6.3079,-6.3079,-6.3079,-6.3079,-6.3079,-6.3079,-6.3079,-5.2217,-5.2845,-5.3264,-5.3324,-5.4371,-5.497,-5.4371,-5.479,-5.473,-5.3414,-5.3803,-5.3473,-5.1558,-5.2456,-5.2935,-5.2336,-5.2217,-5.2187,-5.2187,-5.1618,-5.1289,-5.1289,-5.0614,-5.0032,-4.9479,-4.9912,-4.9883,-4.9389,-4.9329,-4.9299,-4.9299,-4.9359,-4.9329,-4.9239,-4.9239,-4.888,-4.8177,-4.7549,-4.7309,-4.7309,-4.7309,-4.7339,-4.7459,-4.8117,-4.8775,-4.9479,-5.0062,-5.0644,-5.1229,-5.1229,-5.1229,-5.1229,-5.1229,-5.1229,-5.1229,-5.1229,-5.1708,-5.2426,-5.3084,-5.3264,-5.3563,-5.488,-5.5179,-5.5179,-5.5179,-5.5179,-5.5179,-5.5179,-5.5179,-5.5179,-5.5179,-5.5179,-5.5179,-5.5179,-5.467,-5.4491,-5.5089,-5.467,-5.4491,-5.5119,-5.5179,-5.5448,-5.6107,-5.6218,-5.6436,-5.7034,-5.7094,-5.7363,-5.8022,-5.8082,-5.8411,-5.9009,-5.9069,-5.9099,-5.9099,-5.9099,-5.9099,-5.9129,-5.9727,-6.0386,-6.1074,-6.1732,-6.2391,-6.3019,-6.3049,-6.3079,-6.3079,-6.3079,-6.3079,-6.3079,-6.3079,-6.3079,-6.3079,-6.3079,-6.3079,-6.3079,-5.2007,-5.2396,-5.2695,-5.3114,-5.3952,-5.4341,-5.3683,-5.4132,-5.4102,-5.2755,-5.2785,-5.2516,-5.1349,-5.1648,-5.1858,-5.1618,-5.1588,-5.1588,-5.1588,-5.1349,-5.0973,-5.0584,-5.0704,-5.0541,-4.9883,-5.0076,-5.0076,-4.9883,-4.9464,-4.9464,-4.9853,-4.9464,-4.9494,-4.9853,-4.9464,-4.894,-4.8267,-4.8027,-4.7668,-4.7309,-4.7309,-4.7309,-4.7369,-4.8027,-4.873,-4.9389,-5.0002,-5.0614,-5.1229,-5.1229,-5.1229,-5.1229,-5.1229,-5.1229,-5.1289,-5.1708,-5.2007,-5.2426,-5.3533,-5.3832,-5.4042,-5.497,-5.5179,-5.5179,-5.5179,-5.5179,-5.5179,-5.5179,-5.5179,-5.5179,-5.5179,-5.5179,-5.5179,-5.5179,-5.5329,-5.5508,-5.5777,-5.5598,-5.5508,-5.5777,-5.5448,-5.5598,-5.6645,-5.6735,-5.7184,-5.8261,-5.8351,-5.8441,-5.871,-5.874,-5.886,-5.9099,-5.9099,-5.9099,-5.9099,-5.9099,-5.9308,-5.9727,-5.9967,-6.0655,-6.1732,-6.1972,-6.245,-6.3079,-6.3079,-6.3079,-6.3079,-6.3079,-6.3079,-6.3079,-6.3079,-6.3079,-6.3079,-6.3079,-6.3079,-6.3079,-5.1648,-5.1887,-5.2097,-5.2755,-5.3443,-5.3653,-5.2965,-5.3443,-5.3473,-5.2336,-5.2187,-5.1947,-5.1289,-5.1229,-5.1229,-5.1229,-5.1229,-5.1229,-5.1229,-5.1229,-5.0883,-5.0226,-5.0823,-5.0853,-5.0196,-5.0405,-5.0495,-5.0495,-4.9883,-4.9793,-5.0196,-4.9793,-4.9703,-4.9912,-4.9673,-4.9194,-4.8596,-4.8596,-4.8207,-4.7608,-4.7608,-4.7489,-4.7369,-4.8027,-4.873,-4.9389,-5.0002,-5.0614,-5.1229,-5.1229,-5.1229,-5.1229,-5.1229,-5.1349,-5.1618,-5.2067,-5.2486,-5.3025,-5.3952,-5.4371,-5.461,-5.5089,-5.5179,-5.5179,-5.5179,-5.5179,-5.5179,-5.5179,-5.5359,-5.5508,-5.5508,-5.5658,-5.5777,-5.5777,-5.6166,-5.6466,-5.6466,-5.6466,-5.6466,-5.6466,-5.6077,-5.6226,-5.7304,-5.7423,-5.7872,-5.9009,-5.9099,-5.9099,-5.9099,-5.9099,-5.9099,-5.9099,-5.9099,-5.9099,-5.9099,-5.9099,-5.9428,-6.0086,-6.0296,-6.1014,-6.2121,-6.2301,-6.266,-6.3079,-6.3079,-6.3079,-6.3079,-6.3079,-6.3079,-6.3079,-6.3079,-6.3079,-6.3079,-6.3079,-6.3079,-6.3079,-5.096,-5.1199,-5.1409,-5.2067,-5.2725,-5.2965,-5.2306,-5.2755,-5.2935,-5.2276,-5.2187,-5.1947,-5.1289,-5.1229,-5.1199,-5.1199,-5.1199,-5.1199,-5.1229,-5.1229,-5.0883,-5.0226,-5.0823,-5.09,-5.0196,-5.0823,-5.1199,-5.1199,-5.0524,-5.0196,-5.0196,-5.0196,-4.9883,-4.9329,-4.9942,-4.9883,-4.9299,-4.9329,-4.894,-4.8297,-4.8297,-4.7908,-4.7399,-4.8027,-4.8686,-4.9419,-5.0002,-5.0614,-5.1229,-5.1229,-5.1229,-5.1229,-5.1229,-5.1678,-5.2187,-5.2217,-5.3174,-5.4221,-5.4221,-5.47,-5.5179,-5.5179,-5.5179,-5.5179,-5.5179,-5.5179,-5.5179,-5.5209,-5.5718,-5.6218,-5.6248,-5.6675,-5.7094,-5.7094,-5.7094,-5.7094,-5.7094,-5.7094,-5.7094,-5.7094,-5.7094,-5.7363,-5.8052,-5.8112,-5.8381,-5.9069,-5.9099,-5.9099,-5.9099,-5.9099,-5.9099,-5.9099,-5.9099,-5.9099,-5.9099,-5.9099,-5.9428,-6.0116,-6.0805,-6.1463,-6.2121,-6.278,-6.3079,-6.3079,-6.3079,-6.3079,-6.3079,-6.3079,-6.3079,-6.3079,-6.3079,-6.3079,-6.3079,-6.3079,-6.3079,-6.3079,-5.0272,-5.0495,-5.0704,-5.1409,-5.2067,-5.2276,-5.1618,-5.2067,-5.2247,-5.1588,-5.1498,-5.1439,-5.1229,-5.0764,-5.0495,-5.0495,-5.0495,-5.0674,-5.1199,-5.1229,-5.1139,-5.0883,-5.0614,-5.0375,-5.0196,-5.0375,-5.0495,-5.0495,-5.0285,-5.0002,-4.9553,-4.9553,-4.9464,-4.9329,-4.9942,-4.9883,-4.9329,-4.9763,-4.9553,-4.903,-4.903,-4.8865,-4.876,-4.894,-4.9374,-4.9972,-5.0136,-5.0614,-5.1229,-5.1229,-5.1229,-5.1289,-5.1768,-5.2037,-5.2396,-5.3324,-5.3892,-5.4311,-5.476,-5.5029,-5.5179,-5.5179,-5.5179,-5.5179,-5.5179,-5.5179,-5.5329,-5.5777,-5.6047,-5.6316,-5.6735,-5.6974,-5.7094,-5.7094,-5.7513,-5.7812,-5.7812,-5.7812,-5.7633,-5.7154,-5.6705,-5.6705,-5.7334,-5.7393,-5.7872,-5.9009,-5.9099,-5.9099,-5.9099,-5.9099,-5.9099,-5.9099,-5.9099,-5.9099,-5.9099,-5.9548,-6.0146,-6.0805,-6.1493,-6.2151,-6.278,-6.2989,-6.3079,-6.3079,-6.3079,-6.3079,-6.3079,-6.3079,-6.3079,-6.3079,-6.3079,-6.3079,-6.3079,-6.3079,-6.3079,-6.3079,-4.9254,-4.9464,-4.9673,-5.0331,-5.099,-5.1289,-5.09,-5.1379,-5.1678,-5.1259,-5.1229,-5.1109,-5.0823,-5.0435,-5.0076,-4.9883,-4.9853,-5.0032,-5.0421,-5.069,-5.0794,-5.0794,-5.0405,-5.0196,-5.0196,-5.0196,-5.0076,-4.9853,-5.0076,-4.9763,-4.894,-4.9179,-4.903,-4.8536,-4.9703,-4.9883,-4.9359,-4.9942,-5.0002,-4.9643,-4.9419,-4.9299,-4.9329,-4.9553,-4.9883,-5.0226,-5.0495,-5.087,-5.1229,-5.1229,-5.1229,-5.1289,-5.1678,-5.2157,-5.2755,-5.3563,-5.4192,-5.467,-5.5089,-5.5179,-5.5179,-5.5179,-5.5179,-5.5179,-5.5179,-5.5388,-5.5688,-5.6128,-5.6585,-5.7064,-5.7423,-5.7723,-5.7902,-5.7902,-5.8231,-5.853,-5.853,-5.853,-5.8261,-5.7573,-5.7184,-5.7094,-5.7453,-5.7513,-5.7932,-5.9009,-5.9099,-5.9099,-5.9099,-5.9099,-5.9099,-5.9099,-5.9099,-5.9099,-5.9099,-6.0027,-6.0715,-6.1134,-6.1792,-6.245,-6.3079,-6.3079,-6.3079,-6.3079,-6.3079,-6.3079,-6.3079,-6.3079,-6.3079,-6.3079,-6.3079,-6.3079,-6.3079,-6.3079,-6.3079,-6.3079,-4.8147,-4.8297,-4.8506,-4.9224,-4.9853,-5.0226,-5.0255,-5.0794,-5.1229,-5.1229,-5.1229,-5.0913,-5.0255,-5.0136,-4.9883,-4.9269,-4.9209,-4.9239,-4.9299,-4.9883,-5.0196,-5.0196,-5.0196,-5.0196,-5.0196,-5.0136,-4.9883,-4.9389,-4.9883,-4.9553,-4.8386,-4.903,-4.8566,-4.7399,-4.9269,-4.9793,-4.9269,-4.9942,-5.0196,-5.0136,-4.9643,-4.9479,-4.9539,-5.0092,-5.0285,-5.0375,-5.099,-5.1229,-5.1229,-5.1229,-5.1259,-5.1319,-5.1319,-5.2157,-5.3174,-5.3174,-5.4102,-5.5089,-5.5089,-5.5149,-5.5179,-5.5179,-5.5179,-5.5209,-5.5269,-5.5748,-5.6248,-5.6368,-5.7304,-5.8141,-5.8201,-5.871,-5.9099,-5.9099,-5.9099,-5.9099,-5.9099,-5.9099,-5.886,-5.8201,-5.8112,-5.8112,-5.8112,-5.8171,-5.8471,-5.9069,-5.9099,-5.9099,-5.9099,-5.9099,-5.9099,-5.9099,-5.9099,-5.9099,-5.9099,-6.0446,-6.1104,-6.1134,-6.1852,-6.251,-6.3079,-6.3079,-6.3079,-6.3079,-6.3079,-6.3079,-6.3079,-6.3079,-6.3079,-6.3079,-6.3079,-6.3079,-6.3079,-6.3079,-6.3079,-6.3079,-4.8147,-4.8297,-4.8656,-4.9823,-5.0106,-5.0375,-5.0883,-5.1139,-5.1229,-5.1229,-5.1229,-5.0913,-5.0255,-4.9793,-4.9224,-4.8566,-4.8506,-4.876,-4.9269,-4.9883,-5.0196,-5.0196,-5.0196,-5.0196,-5.0196,-4.9733,-4.9643,-5.0032,-4.9643,-4.9344,-4.912,-4.9239,-4.8566,-4.7369,-4.8835,-4.9105,-4.8566,-4.9687,-5.0196,-5.0226,-5.0661,-5.081,-5.081,-5.096,-5.0973,-5.102,-5.1169,-5.1229,-5.1229,-5.1229,-5.1558,-5.1977,-5.1977,-5.2546,-5.3174,-5.3174,-5.3773,-5.4431,-5.4431,-5.479,-5.5179,-5.5179,-5.5179,-5.5329,-5.5837,-5.6128,-5.6466,-5.7483,-5.7932,-5.8291,-5.88,-5.9009,-5.9099,-5.9099,-5.9099,-5.9099,-5.9099,-5.9099,-5.886,-5.8201,-5.8112,-5.8112,-5.8112,-5.859,-5.8949,-5.9099,-5.9099,-5.9099,-5.9099,-5.9099,-5.9099,-5.9099,-5.9099,-5.9099,-5.9099,-6.0446,-6.1104,-6.1134,-6.2301,-6.2929,-6.3079,-6.3079,-6.3079,-6.3079,-6.3079,-6.3079,-6.3079,-6.3079,-6.3079,-6.3079,-6.3079,-6.3079,-6.3079,-6.3079,-6.3079,-6.3079,-4.7758,-4.7818,-4.8027,-4.8716,-4.9374,-4.9883,-5.0242,-5.081,-5.1229,-5.1229,-5.1229,-5.084,-4.9883,-4.9763,-4.9344,-4.8356,-4.8297,-4.8297,-4.8327,-4.8955,-4.9314,-4.9314,-4.9867,-5.0046,-4.9793,-4.9733,-4.9733,-4.9763,-4.9733,-4.9404,-4.8805,-4.8805,-4.8267,-4.7339,-4.8356,-4.864,-4.8356,-4.9344,-4.9942,-5.0226,-5.0554,-5.0883,-5.1229,-5.1229,-5.1229,-5.1229,-5.1229,-5.1229,-5.1229,-5.1229,-5.1439,-5.1738,-5.1738,-5.2187,-5.2725,-5.2725,-5.3204,-5.3773,-5.4132,-5.4461,-5.479,-5.5119,-5.5179,-5.5359,-5.6017,-5.6406,-5.6885,-5.7932,-5.8381,-5.871,-5.9039,-5.9099,-5.9099,-5.9099,-5.9099,-5.9099,-5.9099,-5.9099,-5.874,-5.7752,-5.7932,-5.8112,-5.8112,-5.871,-5.9099,-5.9099,-5.9099,-5.9099,-5.9099,-5.9099,-5.9099,-5.9099,-5.9099,-5.9099,-5.9099,-6.0446,-6.1104,-6.1134,-6.245,-6.3079,-6.3079,-6.3079,-6.3079,-6.3079,-6.3079,-6.3079,-6.3079,-6.3079,-6.3079,-6.3079,-6.3079,-6.3079,-6.3079,-6.3079,-6.3079,-6.3079,-4.7309,-4.7309,-4.7339,-4.7459,-4.8386,-4.9209,-4.9449,-5.0361,-5.1079,-5.1199,-5.1229,-5.072,-4.9449,-4.9553,-4.9344,-4.8356,-4.8177,-4.7938,-4.7489,-4.7967,-4.8297,-4.8297,-4.9434,-4.9883,-4.9434,-4.9942,-4.9972,-4.9434,-4.9763,-4.9404,-4.8446,-4.8237,-4.7818,-4.7339,-4.7878,-4.8117,-4.8147,-4.8805,-4.9464,-5.0046,-5.0136,-5.0584,-5.1229,-5.1229,-5.1229,-5.1229,-5.1229,-5.1229,-5.1229,-5.1229,-5.1289,-5.1379,-5.1259,-5.1678,-5.2187,-5.2067,-5.2576,-5.3294,-5.3892,-5.4192,-5.4491,-5.5059,-5.5179,-5.5388,-5.6166,-5.6735,-5.7334,-5.8112,-5.871,-5.9099,-5.9099,-5.9099,-5.9099,-5.9099,-5.9099,-5.9099,-5.9099,-5.9099,-5.868,-5.7573,-5.7932,-5.8261,-5.8141,-5.871,-5.9099,-5.9099,-5.9099,-5.9099,-5.9099,-5.9099,-5.9099,-5.9099,-5.9099,-5.9099,-5.9099,-6.0446,-6.1104,-6.1134,-6.245,-6.3079,-6.3079,-6.3079,-6.3079,-6.3079,-6.3079,-6.3079,-6.3079,-6.3079,-6.3079,-6.3079,-6.3079,-6.3079,-6.3079,-6.3079,-6.3079,-6.3079,-4.7309,-4.7309,-4.7489,-4.8057,-4.8297,-4.8805,-4.9897,-5.0196,-5.0524,-5.1139,-5.1229,-5.072,-4.9449,-4.8327,-4.7848,-4.8237,-4.7758,-4.7638,-4.8117,-4.8237,-4.8297,-4.8297,-4.8985,-4.9613,-5.0046,-5.0136,-5.0136,-5.0076,-4.9075,-4.8745,-4.9149,-4.7967,-4.7399,-4.7309,-4.7399,-4.7429,-4.7489,-4.8147,-4.8805,-4.9464,-5.0002,-5.0584,-5.1229,-5.1229,-5.1229,-5.1229,-5.1229,-5.1229,-5.1229,-5.1229,-5.1588,-5.1977,-5.1409,-5.1678,-5.2097,-5.1528,-5.2217,-5.3204,-5.3294,-5.4162,-5.5089,-5.5179,-5.5179,-5.5508,-5.6705,-5.7034,-5.7453,-5.871,-5.9039,-5.9099,-5.9099,-5.9099,-5.9099,-5.9099,-5.9099,-5.9099,-5.9099,-5.9099,-5.9039,-5.886,-5.8919,-5.874,-5.8171,-5.871,-5.9099,-5.9099,-5.9099,-5.9099,-5.9099,-5.9099,-5.9099,-5.9099,-5.9099,-5.9099,-5.9099,-6.0446,-6.1104,-6.1134,-6.245,-6.3079,-6.3079,-6.3079,-6.3079,-6.3079,-6.3079,-6.3079,-6.3079,-6.3079,-6.3079,-6.3079,-6.3079,-6.3079,-6.3079,-6.3079,-6.3079,-6.3079,-4.7309,-4.7309,-4.7399,-4.7698,-4.8027,-4.8476,-4.9045,-4.9464,-4.9793,-5.0092,-5.0122,-4.9763,-4.8805,-4.8207,-4.8117,-4.882,-4.8566,-4.8356,-4.8297,-4.8297,-4.8117,-4.7758,-4.8356,-4.8865,-4.9134,-4.9494,-4.9883,-5.0196,-4.9628,-4.9344,-4.9299,-4.8297,-4.7668,-4.7309,-4.7309,-4.7309,-4.7339,-4.7997,-4.87,-4.9359,-4.9972,-5.0584,-5.1229,-5.1229,-5.1229,-5.1259,-5.1618,-5.1528,-5.1289,-5.1648,-5.1708,-5.1588,-5.1319,-5.1409,-5.1678,-5.1738,-5.2187,-5.2785,-5.3563,-5.4192,-5.473,-5.5089,-5.5179,-5.5448,-5.6376,-5.6855,-5.7483,-5.883,-5.9099,-5.9099,-5.9099,-5.9099,-5.8979,-5.862,-5.856,-5.856,-5.856,-5.856,-5.856,-5.856,-5.8231,-5.8022,-5.8112,-5.871,-5.9099,-5.9099,-5.9099,-5.9099,-5.9099,-5.9099,-5.9099,-5.9099,-5.9099,-5.9099,-5.9099,-6.0446,-6.1104,-6.1134,-6.2061,-6.272,-6.3079,-6.3079,-6.3079,-6.3079,-6.3079,-6.3079,-6.3079,-6.3079,-6.3079,-6.3079,-6.3079,-6.3079,-6.3079,-6.3079,-6.3079,-6.3079]},{"header":{"parameterUnit":"m.s-1","parameterCategory":1,"la1":30.6,"la2":28.766,"lo1":-90.7593,"lo2":-88.6598,"dy":0.0162,"dx":0.0183,"nx":116,"ny":114,"refTime":"2023-02-25T06:00:00:Z","depth":0,"parameterNumber":3,"parameterNumberName":"V-component_of_WINDS"},"data":[0.0,0.0,0.0,0.0,0.0,0.0,0.0,0.0,0.0,0.0,0.0,0.0,0.0,0.0,0.0,0.0,0.0,0.0,0.0,0.0,0.0,0.0,0.0,0.0,0.0,0.0,0.0,0.0,0.0,0.0,0.0,0.0,0.0,0.0,0.0,0.0,0.0,0.0,0.0,0.0,0.0,0.0,0.0,0.0,0.0,0.0,0.0,0.0,0.0,0.0,0.0,0.0,0.0,0.0,0.0,0.0,0.0,0.0,0.0,0.0,0.0,0.0,0.0,0.0,0.0,0.0,0.0,0.0,0.0,0.0,0.0,0.0,0.0,0.0,0.0,0.0,0.0,0.0,0.0,0.0,0.0,0.0,0.0,0.0,0.0,0.0,0.0,0.0,0.0,0.0,0.0,0.0,0.0,0.0,0.0,0.0,0.0,0.0,0.0,0.0,0.0,0.0,0.0,0.0,0.0,0.0,0.0,0.0,0.0,0.0,0.0,0.0,0.0,0.0,0.0,0.0,0.0,0.0,0.0,0.0,0.0,0.0,0.0,0.0,0.0,0.0,0.0,0.0,0.0,0.0,0.0,0.0,0.0,0.0,0.0,0.0,0.0,0.0,0.0,0.0,0.0,0.0,0.0,0.0,0.0,0.0,0.0,0.0,0.0,0.0,0.0,0.0,0.0,0.0,0.0,0.0,0.0,0.0,0.0,0.0,0.0,0.0,0.0,0.0,0.0,0.0,0.0,0.0,0.0,0.0,0.0,0.0,0.0,0.0,0.0,0.0,0.0,0.0,0.0,0.0,0.0,0.0,0.0,0.0,0.0,0.0,0.0,0.0,0.0,0.0,0.0,0.0,0.0,0.0,0.0,0.0,0.0,0.0,0.0,0.0,0.0,0.0,0.0,0.0,0.0,0.0,0.0,0.0,0.0,0.0,0.0,0.0,0.0,0.0,0.0,0.0,0.0,0.0,0.0,0.0,0.0,0.0,0.0,0.0,0.0,0.0,0.0,0.0,0.0,0.0,0.0,0.0,0.0,0.0,0.0,0.0,0.0,0.0,0.0,0.0,0.0,0.0,0.0,0.0,0.0,0.0,0.0,0.0,0.0,0.0,0.0,0.0,0.0,0.0,0.0,0.0,0.0,0.0,0.0,0.0,0.0,0.0,0.0,0.0,0.0,0.0,0.0,0.0,0.0,0.0,0.0,0.0,0.0,0.0,0.0,0.0,0.0,0.0,0.0,0.0,0.0,0.0,0.0,0.0,0.0,0.0,0.0,0.0,0.0,0.0,0.0,0.0,0.0,0.0,0.0,0.0,0.0,0.0,0.0,0.0,0.0,0.0,0.0,0.0,0.0,0.0,0.0,0.0,0.0,0.0,0.0,0.0,0.0,0.0,0.0,0.0,0.0,0.0,0.0,0.0,0.0,0.0,0.0,0.0,0.0,0.0,0.0,0.0,0.0,0.0,0.0,0.0,0.0,0.0,0.0,0.0,0.0,0.0,0.0,0.0,0.0,0.0,0.0,0.0,0.0,0.0,0.0,0.0,0.0,0.0,0.0,0.0,0.0,0.0,0.0,0.0,0.0,0.0,0.0,0.0,0.0,0.0,0.0,0.0,0.0,0.0,0.0,0.0,0.0,0.0,0.0,0.0,0.0,0.0,0.0,0.0,0.0,0.0,0.0,0.0,0.0,0.0,0.0,0.0,0.0,0.0,0.0,0.0,0.0,0.0,0.0,0.0,0.0,0.0,0.0,0.0,0.0,0.0,0.0,0.0,0.0,0.0,0.0,0.0,0.0,0.0,0.0,0.0,0.0,0.0,0.0,0.0,0.0,0.0,0.0,0.0,0.0,0.0,0.0,0.0,0.0,0.0,0.0,0.0,0.0,0.0,0.0,0.0,0.0,0.0,0.0,0.0,0.0,0.0,0.0,0.0,0.0,0.0,0.0,0.0,0.0,0.0,0.0,0.0,0.0,0.0,0.0,0.0,0.0,0.0,0.0,0.0,0.0,0.0,0.0,0.0,0.0,0.0,0.0,0.0,0.0,0.0,0.0,0.0,0.0,0.0,0.0,0.0,0.0,0.0,0.0,0.0,0.0,0.0,0.0,0.0,0.0,0.0,0.0,0.0,0.0,0.0,0.0,0.0,0.0,0.0,0.0,0.0,0.0,0.0,0.0,0.0,0.0,0.0,0.0,0.0,0.0,0.0,0.0,0.0,0.0,0.0,0.0,0.0,0.0,0.0,0.0,0.0,0.0,0.0,0.0,0.0,0.0,0.0,0.0,0.0,0.0,0.0,0.0,0.0,0.0,0.0,0.0,0.0,0.0,0.0,0.0,0.0,0.0,0.0,0.0,0.0,0.0,0.0,0.0,0.0,0.0,0.0,0.0,0.0,0.0,0.0,0.0,0.0,0.0,0.0,0.0,0.0,0.0,0.0,0.0,0.0,0.0,0.0,0.0,0.0,0.0,0.0,0.0,0.0,0.0,0.0,0.0,0.0,0.0,0.0,0.0,0.0,0.0,0.0,0.0,0.0,0.0,0.0,0.0,0.0,0.0,0.0,0.0,0.0,0.0,0.0,0.0,0.0,0.0,0.0,0.0,0.0,0.0,0.0,0.0,0.0,0.0,0.0,0.0,0.0,0.0,0.0,0.0,0.0,0.0,0.0,0.0,0.0,0.0,0.0,0.0,0.0,0.0,0.0,0.0,0.0,0.0,0.0,0.0,0.0,0.0,0.0,0.0,0.0,0.0,0.0,0.0,0.0,0.0,0.0,0.0,0.0,0.0,0.0,0.0,0.0,0.0,0.0,0.0,0.0,0.0,0.0,0.0,0.0,0.0,0.0,0.0,0.0,0.0,0.0,0.0,0.0,0.0,0.0,0.0,0.0,0.0,0.0,0.0,0.0,0.0,0.0,0.0,0.0,0.0,0.0,0.0,0.0,0.0,0.0,0.0,0.0,0.0,0.0,0.0,0.0,0.0,0.0,0.0,0.0,0.0,0.0,0.0,0.0,0.0,0.0,0.0,0.0,0.0,0.0,0.0,0.0,0.0,0.0,0.0,0.0,0.0,0.0,0.0,0.0,0.0,0.0,0.0,0.0,0.0,0.0,0.0,0.0,0.0,0.0,0.0,0.0,0.0,0.0,0.0,0.0,0.0,0.0,0.0,0.0,0.0,0.0,0.0,0.0,0.0,0.0,0.0,0.0,0.0,0.0,0.0,0.0,0.0,0.0,0.0,0.0,0.0,0.0,0.0,0.0,0.0,0.0,0.0,0.0,0.0,0.0,0.0,0.0,0.0,0.0,0.0,0.0,0.0,0.0,0.0,0.0,0.0,0.0,0.0,0.0,0.0,0.0,0.0,0.0,0.0,0.0,0.0,0.0,0.0,0.0,0.0,0.0,0.0,0.0,0.0,0.0,0.0,0.0,0.0,0.0,0.0,0.0,0.0,0.0,0.0,0.0,0.0,0.0,0.0,0.0,0.0,0.0,0.0,0.0,0.0,0.0,0.0,0.0,0.0,0.0,0.0,0.0,0.0,0.0,0.0,0.0,0.0,0.0,0.0,0.0,0.0,0.0,0.0,0.0,0.0,0.0,0.0,0.0,0.0,0.0,0.0,0.0,0.0,0.0,0.0,0.0,0.0,0.0,0.0,0.0,0.0,0.0,0.0,0.0,0.0,0.0,0.0,0.0,0.0,0.0,0.0,0.0,0.0,0.0,0.0,0.0,0.0,0.0,0.0,0.0,0.0,0.0,0.0,0.0,0.0,0.0,0.0,0.0,0.0,0.0,0.0,0.0,0.0,0.0,0.0,0.0,0.0,0.0,0.0,0.0,0.0,0.0,0.0,0.0,0.0,0.0,0.0,0.0,0.0,0.0,0.0,0.0,0.0,0.0,0.0,0.0,0.0,0.0,0.0,0.0,0.0,0.0,0.0,0.0,0.0,0.0,0.0,0.0,0.0,0.0,0.0,0.0,0.0,0.0,0.0,0.0,0.0,0.0,0.0,0.0,0.0,0.0,0.0,0.0,0.0,0.0,0.0,0.0,0.0,0.0,0.0,0.0,0.0,0.0,0.0,0.0,0.0,0.0,0.0,0.0,0.0,0.0,0.0,0.0,0.0,0.0,0.0,0.0,0.0,0.0,0.0,0.0,0.0,0.0,0.0,0.0,0.0,0.0,0.0,0.0,0.0,0.0,0.0,0.0,0.0,0.0,0.0,0.0,0.0,0.0,0.0,0.0,0.0,0.0,0.0,0.0,0.0,0.0,0.0,0.0,0.0,0.0,0.0,0.0,0.0,0.0,0.0,0.0,0.0,0.0,0.0,0.0,0.0,0.0,0.0,0.0,0.0,0.0,0.0,0.0,0.0,0.0,0.0,0.0,0.0,0.0,0.0,0.0,0.0,0.0,0.0,0.0,0.0,0.0,0.0,0.0,0.0,0.0,0.0,0.0,0.0,0.0,0.0,0.0,0.0,0.0,0.0,0.0,0.0,0.0,0.0,0.0,0.0,0.0,0.0,0.0,0.0,0.0,0.0,0.0,0.0,0.0,0.0,0.0,0.0,0.0,0.0,0.0,0.0,0.0,0.0,0.0,0.0,0.0,0.0,0.0,0.0,0.0,0.0,0.0,0.0,0.0,0.0,0.0,0.0,0.0,0.0,0.0,0.0,0.0,0.0,0.0,0.0,0.0,0.0,0.0,0.0,0.0,0.0,0.0,0.0,0.0,0.0,0.0,0.0,0.0,0.0,0.0,0.0,0.0,0.0,0.0,0.0,0.0,0.0,0.0,0.0,0.0,0.0,0.0,0.0,0.0,0.0,0.0,0.0,0.0,0.0,0.0,0.0,0.0,0.0,0.0,0.0,0.0,0.0,0.0,0.0,0.0,0.0,0.0,0.0,0.0,0.0,0.0,0.0,0.0,0.0,0.0,0.0,0.0,0.0,0.0,0.0,0.0,0.0,0.0,0.0,0.0,0.0,0.0,0.0,0.0,0.0,0.0,0.0,0.0,0.0,0.0,0.0,0.0,0.0,0.0,0.0,0.0,0.0,0.0,0.0,0.0,0.0,0.0,0.0,0.0,0.0,0.0,0.0,0.0,0.0,0.0,0.0,0.0,0.0,0.0,0.0,0.0,0.0,0.0,0.0,0.0,0.0,0.0,0.0,0.0,0.0,0.0,0.0,0.0,0.0,0.0,0.0,0.0,0.0,0.0,0.0,0.0,0.0,0.0,0.0,0.0,0.0,0.0,0.0,0.0,0.0,0.0,0.0,0.0,0.0,0.0,0.0,0.0,0.0,0.0,0.0,0.0,0.0,0.0,0.0,0.0,0.0,0.0,0.0,0.0,0.0,0.0,0.0,0.0,0.0,0.0,0.0,0.0,0.0,0.0,0.0,0.0,0.0,0.0,0.0,0.0,0.0,0.0,0.0,0.0,0.0,0.0,0.0,0.0,0.0,0.0,0.0,0.0,0.0,0.0,0.0,0.0,0.0,0.0,0.0,0.0,0.0,0.0,0.0,0.0,0.0,0.0,0.0,0.0,0.0,0.0,0.0,0.0,0.0,0.0,0.0,0.0,0.0,0.0,0.0,0.0,0.0,0.0,0.0,0.0,0.0,0.0,0.0,0.0,0.0,0.0,0.0,0.0,0.0,0.0,0.0,0.0,0.0,0.0,0.0,0.0,0.0,0.0,0.0,0.0,0.0,0.0,0.0,0.0,0.0,0.0,0.0,0.0,0.0,0.0,0.0,0.0,0.0,0.0,0.0,0.0,0.0,0.0,0.0,0.0,0.0,0.0,0.0,0.0,0.0,0.0,0.0,0.0,0.0,0.0,0.0,0.0,0.0,0.0,0.0,0.0,0.0,0.0,0.0,0.0,0.0,0.0,0.0,0.0,0.0,0.0,0.0,0.0,0.0,0.0,0.0,0.0,0.0,0.0,0.0,0.0,0.0,0.0,0.0,0.0,0.0,0.0,0.0,0.0,0.0,0.0,0.0,0.0,0.0,0.0,0.0,0.0,0.0,0.0,0.0,0.0,0.0,0.0,0.0,0.0,0.0,0.0,0.0,0.0,0.0,0.0,0.0,0.0,0.0,0.0,0.0,0.0,-5.285,-5.3385,0.0,0.0,0.0,0.0,0.0,0.0,0.0,0.0,0.0,0.0,0.0,0.0,0.0,0.0,0.0,0.0,0.0,0.0,0.0,0.0,0.0,0.0,0.0,0.0,0.0,0.0,0.0,0.0,0.0,0.0,0.0,0.0,0.0,0.0,0.0,0.0,0.0,0.0,0.0,0.0,0.0,0.0,0.0,0.0,0.0,0.0,0.0,0.0,0.0,0.0,0.0,0.0,0.0,0.0,0.0,0.0,0.0,0.0,0.0,0.0,0.0,0.0,0.0,0.0,0.0,0.0,0.0,0.0,0.0,0.0,0.0,0.0,0.0,0.0,0.0,0.0,0.0,0.0,0.0,0.0,0.0,0.0,0.0,0.0,0.0,0.0,0.0,0.0,0.0,0.0,0.0,0.0,0.0,0.0,0.0,0.0,0.0,0.0,0.0,0.0,0.0,0.0,0.0,0.0,0.0,0.0,0.0,0.0,0.0,0.0,0.0,0.0,0.0,0.0,-5.5703,-5.5567,0.0,0.0,0.0,0.0,0.0,0.0,0.0,0.0,0.0,0.0,0.0,0.0,0.0,0.0,0.0,0.0,0.0,0.0,0.0,0.0,0.0,0.0,0.0,0.0,0.0,0.0,0.0,0.0,0.0,0.0,0.0,0.0,0.0,0.0,0.0,0.0,0.0,0.0,0.0,0.0,0.0,0.0,0.0,0.0,0.0,0.0,0.0,0.0,0.0,0.0,0.0,0.0,0.0,0.0,0.0,0.0,0.0,0.0,0.0,0.0,0.0,0.0,0.0,0.0,0.0,0.0,0.0,0.0,0.0,0.0,0.0,0.0,0.0,0.0,0.0,0.0,0.0,0.0,0.0,0.0,0.0,0.0,0.0,0.0,0.0,0.0,0.0,0.0,0.0,0.0,0.0,0.0,0.0,0.0,0.0,0.0,0.0,0.0,0.0,0.0,0.0,0.0,0.0,0.0,0.0,0.0,0.0,0.0,-5.8338,-5.9299,-6.1286,-6.0768,-6.2012,-6.4245,-5.8851,-5.7957,-6.0362,-6.0261,0.0,0.0,0.0,0.0,0.0,0.0,0.0,0.0,0.0,0.0,0.0,0.0,0.0,0.0,0.0,0.0,0.0,0.0,0.0,0.0,0.0,0.0,0.0,0.0,0.0,0.0,0.0,0.0,0.0,0.0,0.0,0.0,0.0,0.0,0.0,0.0,0.0,0.0,0.0,0.0,0.0,0.0,0.0,0.0,0.0,0.0,0.0,0.0,0.0,0.0,0.0,0.0,0.0,0.0,0.0,0.0,0.0,0.0,0.0,0.0,0.0,0.0,0.0,0.0,0.0,0.0,0.0,0.0,0.0,0.0,0.0,0.0,0.0,0.0,0.0,0.0,0.0,0.0,0.0,0.0,0.0,0.0,0.0,0.0,0.0,0.0,-5.0594,-5.1096,0.0,0.0,0.0,0.0,0.0,0.0,0.0,0.0,0.0,0.0,0.0,0.0,0.0,-5.7173,-5.8378,-6.0286,-6.1316,-6.1492,-6.3752,-6.5003,-6.5358,-6.5753,-6.6654,-6.7919,-6.6554,0.0,-6.3776,-6.3324,0.0,0.0,0.0,0.0,0.0,0.0,0.0,0.0,0.0,0.0,0.0,0.0,0.0,0.0,0.0,0.0,0.0,0.0,0.0,0.0,0.0,0.0,0.0,0.0,0.0,0.0,0.0,0.0,0.0,0.0,0.0,0.0,0.0,0.0,0.0,0.0,0.0,0.0,0.0,0.0,0.0,0.0,0.0,0.0,0.0,0.0,0.0,0.0,0.0,0.0,0.0,0.0,0.0,0.0,0.0,0.0,0.0,0.0,0.0,0.0,0.0,0.0,0.0,0.0,0.0,0.0,0.0,0.0,0.0,0.0,0.0,0.0,0.0,0.0,0.0,0.0,0.0,0.0,0.0,0.0,0.0,0.0,0.0,0.0,0.0,-5.0619,-5.1348,-5.1297,-5.1599,-5.1448,0.0,0.0,0.0,0.0,0.0,0.0,0.0,0.0,0.0,-5.765,-5.9081,-6.0362,-6.1492,-6.3375,-6.4781,-6.576,-6.7568,-6.8773,-6.9376,-6.9953,-7.0656,-7.141,-7.1158,-7.033,-6.8899,-6.6187,-6.4228,-6.2898,0.0,0.0,0.0,0.0,-6.3475,-6.4304,0.0,0.0,0.0,0.0,0.0,0.0,0.0,0.0,0.0,0.0,0.0,0.0,0.0,0.0,0.0,0.0,0.0,0.0,0.0,0.0,0.0,0.0,0.0,0.0,0.0,0.0,0.0,0.0,0.0,0.0,0.0,0.0,0.0,0.0,0.0,0.0,0.0,0.0,0.0,0.0,0.0,0.0,0.0,0.0,0.0,0.0,0.0,0.0,0.0,0.0,0.0,0.0,0.0,0.0,0.0,0.0,0.0,0.0,0.0,0.0,0.0,0.0,0.0,0.0,0.0,0.0,0.0,0.0,0.0,0.0,0.0,0.0,0.0,0.0,0.0,0.0,0.0,-5.1272,-5.2251,-5.1574,-5.2829,-5.3005,0.0,0.0,0.0,0.0,0.0,0.0,-5.6168,-5.7826,-5.9307,-6.0537,-6.2195,-6.3726,-6.5157,-6.6639,-6.8145,-6.9677,-7.0782,-7.1836,-7.2791,-7.3318,-7.382,-7.4222,-7.4222,-7.3895,-7.3067,-6.92,-6.6639,-6.5107,-6.453,-6.3977,-6.3601,-6.4429,-6.5333,-6.6212,0.0,0.0,0.0,0.0,0.0,0.0,0.0,0.0,0.0,0.0,0.0,0.0,0.0,0.0,0.0,0.0,0.0,0.0,0.0,0.0,0.0,0.0,0.0,0.0,0.0,0.0,0.0,0.0,0.0,0.0,0.0,0.0,0.0,0.0,0.0,0.0,0.0,0.0,0.0,0.0,0.0,0.0,0.0,0.0,0.0,0.0,0.0,0.0,0.0,0.0,0.0,0.0,0.0,0.0,0.0,0.0,0.0,0.0,0.0,0.0,0.0,0.0,0.0,0.0,0.0,0.0,0.0,0.0,0.0,0.0,0.0,0.0,0.0,0.0,0.0,0.0,0.0,0.0,0.0,-5.2176,-5.4411,0.0,0.0,0.0,0.0,-5.4386,-5.5917,-5.7349,-5.8504,-6.0111,-6.1768,-6.3425,-6.5057,-6.694,-6.9035,-7.028,-7.141,-7.2539,-7.3669,-7.4523,-7.5101,-7.5653,-7.5904,-7.5929,-7.5929,-7.5628,-7.4925,-7.259,-7.0631,-6.91,-6.8547,-6.7995,-6.7518,-6.7568,-6.797,-6.8522,0.0,0.0,0.0,0.0,0.0,0.0,0.0,0.0,0.0,0.0,0.0,0.0,0.0,0.0,0.0,0.0,0.0,0.0,0.0,0.0,0.0,0.0,0.0,0.0,0.0,0.0,0.0,0.0,0.0,0.0,0.0,0.0,0.0,0.0,0.0,0.0,0.0,0.0,0.0,0.0,0.0,0.0,0.0,0.0,0.0,0.0,0.0,0.0,0.0,0.0,0.0,0.0,0.0,0.0,0.0,0.0,0.0,0.0,0.0,0.0,0.0,0.0,0.0,0.0,0.0,0.0,0.0,0.0,0.0,0.0,0.0,0.0,0.0,0.0,0.0,0.0,0.0,0.0,0.0,-5.5239,-5.7399,0.0,-5.6495,-5.6897,-5.7223,-5.7223,-5.9408,-6.124,-6.237,-6.4329,-6.6212,-6.7869,-6.9175,-7.0581,-7.2113,-7.2866,-7.3594,-7.4347,-7.4749,-7.5226,-7.5778,-7.5954,-7.6055,-7.6055,-7.6055,-7.5954,-7.5703,-7.49,-7.3167,-7.0932,-7.0029,-6.9351,-6.8899,-6.925,-6.9953,-7.0807,0.0,0.0,0.0,0.0,0.0,0.0,0.0,0.0,0.0,0.0,0.0,0.0,0.0,0.0,0.0,0.0,0.0,0.0,0.0,0.0,0.0,0.0,0.0,0.0,0.0,0.0,0.0,0.0,0.0,0.0,0.0,0.0,0.0,0.0,0.0,0.0,0.0,0.0,0.0,0.0,0.0,0.0,-6.1224,0.0,0.0,0.0,0.0,0.0,0.0,0.0,0.0,0.0,0.0,0.0,0.0,0.0,0.0,0.0,0.0,0.0,0.0,0.0,0.0,0.0,0.0,0.0,0.0,0.0,0.0,0.0,0.0,0.0,0.0,0.0,0.0,0.0,0.0,-5.4009,-5.6646,-5.7725,-6.0311,-6.1492,-6.0211,-6.0763,-6.114,-6.0914,-6.3324,-6.5183,-6.6086,-6.807,-6.9777,-7.1058,-7.1987,-7.3016,-7.4146,-7.4523,-7.4975,-7.5502,-7.5502,-7.5703,-7.6055,-7.6055,-7.6055,-7.6055,-7.6055,-7.6055,-7.6055,-7.6055,-7.4975,-7.3217,-7.2288,-7.161,-7.1158,-7.1535,-7.2238,-7.3117,0.0,0.0,0.0,0.0,0.0,0.0,0.0,0.0,0.0,0.0,0.0,0.0,0.0,0.0,0.0,0.0,0.0,0.0,0.0,0.0,0.0,0.0,0.0,0.0,0.0,0.0,0.0,0.0,0.0,0.0,0.0,0.0,0.0,0.0,0.0,0.0,0.0,0.0,0.0,0.0,0.0,0.0,-6.3737,0.0,0.0,0.0,0.0,0.0,0.0,0.0,0.0,0.0,0.0,0.0,0.0,0.0,0.0,0.0,0.0,0.0,0.0,0.0,0.0,0.0,0.0,0.0,0.0,0.0,0.0,0.0,0.0,0.0,0.0,0.0,0.0,0.0,-5.2302,-5.5591,-5.8453,-5.9558,-6.3073,-6.4781,-6.3199,-6.4982,-6.6011,-6.5484,-6.7493,-6.8999,-6.9461,-7.1108,-7.2238,-7.2791,-7.3343,-7.4171,-7.5251,-7.5276,-7.5527,-7.6055,-7.6055,-7.6055,-7.6055,-7.6055,-7.6055,-7.6055,-7.6055,-7.6055,-7.6055,-7.6055,-7.6055,-7.6004,-7.5477,-7.4925,-7.4473,-7.4473,-7.4799,-7.5327,0.0,0.0,0.0,0.0,0.0,0.0,0.0,0.0,0.0,0.0,0.0,0.0,0.0,0.0,0.0,0.0,0.0,0.0,0.0,0.0,0.0,0.0,0.0,0.0,0.0,0.0,0.0,0.0,0.0,0.0,0.0,0.0,0.0,0.0,0.0,0.0,0.0,0.0,0.0,0.0,0.0,0.0,-6.4455,0.0,0.0,0.0,0.0,0.0,0.0,0.0,0.0,0.0,0.0,0.0,0.0,0.0,0.0,0.0,0.0,0.0,0.0,0.0,0.0,0.0,0.0,0.0,0.0,0.0,0.0,0.0,0.0,0.0,0.0,0.0,-5.3356,-5.4813,-5.5039,-5.8428,-6.1718,-6.4028,-6.6312,-6.7693,-6.7618,-6.8522,-6.9049,-6.8899,-7.0581,-7.1861,-7.2414,-7.3268,-7.3971,-7.4523,-7.4699,-7.5126,-7.5829,-7.5829,-7.5904,-7.6055,-7.6055,-7.6055,-7.6055,-7.6055,-7.6055,-7.6055,-7.6055,-7.6055,-7.6055,-7.6055,-7.6055,-7.603,-7.5879,-7.5728,-7.5603,-7.5603,-7.5703,-7.5854,0.0,0.0,0.0,0.0,0.0,0.0,0.0,0.0,0.0,0.0,0.0,0.0,0.0,0.0,0.0,0.0,0.0,0.0,0.0,0.0,0.0,0.0,0.0,0.0,0.0,0.0,0.0,0.0,0.0,0.0,0.0,0.0,0.0,0.0,0.0,0.0,0.0,0.0,0.0,0.0,0.0,0.0,-6.7148,-6.3977,-6.2839,-6.278,-6.1313,-6.1104,-6.1373,-6.0296,0.0,0.0,0.0,0.0,0.0,0.0,0.0,0.0,0.0,0.0,0.0,0.0,0.0,0.0,0.0,0.0,0.0,0.0,0.0,0.0,0.0,0.0,0.0,0.0,-5.5365,-5.7625,-5.9131,-6.1466,-6.4053,-6.684,-6.8848,-7.0305,-7.1108,-7.1686,-7.2012,-7.2012,-7.3117,-7.392,-7.4272,-7.4799,-7.5251,-7.5578,-7.5578,-7.5728,-7.6055,-7.6055,-7.6055,-7.6055,-7.6055,-7.6055,-7.6055,-7.6281,-7.6406,-7.6406,-7.6632,-7.6733,-7.6733,-7.6482,-7.6532,-7.6707,0.0,0.0,0.0,0.0,-7.6055,-7.6055,0.0,0.0,0.0,0.0,0.0,0.0,0.0,0.0,0.0,0.0,0.0,0.0,0.0,0.0,0.0,0.0,0.0,0.0,0.0,0.0,0.0,0.0,0.0,0.0,0.0,0.0,0.0,0.0,0.0,0.0,0.0,0.0,0.0,0.0,0.0,0.0,0.0,0.0,0.0,0.0,0.0,0.0,-7.062,-6.6879,-6.6161,-6.6789,-6.4395,-6.3199,-6.263,-6.1822,0.0,0.0,0.0,0.0,0.0,0.0,0.0,0.0,0.0,0.0,0.0,0.0,0.0,0.0,0.0,0.0,0.0,0.0,0.0,0.0,0.0,0.0,0.0,0.0,-5.775,-6.0839,-6.3576,-6.463,-6.6086,-6.8698,-7.0782,-7.2439,-7.3569,-7.4197,-7.4498,-7.4498,-7.5025,-7.5327,-7.5327,-7.5804,0.0,0.0,0.0,-7.6055,-7.6055,-7.6105,-7.6155,-7.6155,-7.6205,-7.623,-7.6256,-7.6733,-7.6959,-7.7009,-7.7486,-7.7712,-7.7662,-7.7185,-7.721,-7.7511,-7.6532,-7.6105,-7.6055,-7.6055,-7.6055,-7.6055,0.0,0.0,0.0,0.0,0.0,0.0,0.0,0.0,0.0,0.0,0.0,0.0,0.0,0.0,0.0,0.0,0.0,0.0,0.0,0.0,0.0,0.0,0.0,0.0,0.0,0.0,0.0,0.0,0.0,0.0,0.0,0.0,0.0,0.0,0.0,0.0,0.0,0.0,0.0,0.0,0.0,0.0,-7.1427,-6.9123,-6.8046,-6.7657,-6.661,-6.649,-6.658,-6.4844,-6.4545,-6.4485,-6.2241,0.0,0.0,0.0,0.0,0.0,0.0,0.0,0.0,0.0,0.0,0.0,0.0,0.0,0.0,0.0,0.0,0.0,0.0,0.0,0.0,-5.7374,-6.0286,-6.2998,-6.5308,-6.7668,-6.9677,-7.1108,-7.2037,-7.3016,-7.4146,-7.4749,-7.5075,-7.5075,-7.5578,-7.5904,-7.5904,-7.6004,-7.6055,-7.6055,-7.6055,-7.6055,-7.6055,-7.6507,-7.6733,-7.6733,-7.7159,0.0,-7.7385,-7.7486,-7.7536,-7.7536,-7.7662,-7.7712,-7.7687,-7.7586,-7.7335,-7.7009,-7.6808,-7.6456,-7.6055,-7.6055,-7.6055,-7.6055,0.0,0.0,0.0,0.0,0.0,0.0,0.0,0.0,0.0,0.0,0.0,0.0,0.0,0.0,0.0,0.0,0.0,0.0,0.0,0.0,0.0,0.0,0.0,0.0,0.0,0.0,0.0,0.0,0.0,0.0,0.0,0.0,0.0,0.0,0.0,0.0,0.0,0.0,0.0,0.0,0.0,0.0,-7.3163,-7.1188,-7.0231,-6.9842,-6.9183,-6.8764,-6.8286,-6.6939,-6.649,-6.6161,-6.4186,-6.3109,-6.2151,0.0,0.0,0.0,0.0,0.0,0.0,0.0,0.0,0.0,0.0,0.0,0.0,0.0,0.0,-5.1774,-5.3432,0.0,-5.7123,-5.9885,-6.2672,-6.5258,-6.7467,-6.9677,-7.1184,-7.146,-7.2715,-7.3895,-7.4749,-7.5327,-7.5653,-7.5653,-7.5904,-7.6055,-7.6055,-7.6055,-7.6055,-7.6055,-7.6055,-7.618,-7.6456,-7.6733,-7.7009,-7.7285,-7.7561,-7.7712,-7.7712,-7.7988,-7.8114,-7.8139,-7.8415,-7.839,-7.8088,-7.7812,-7.736,-7.6883,-7.6883,-7.6532,-7.6055,-7.6055,-7.6055,-7.6055,0.0,0.0,0.0,0.0,0.0,0.0,0.0,0.0,0.0,0.0,0.0,0.0,0.0,0.0,0.0,0.0,0.0,0.0,0.0,0.0,0.0,0.0,0.0,0.0,0.0,0.0,0.0,0.0,0.0,0.0,0.0,0.0,0.0,0.0,0.0,0.0,0.0,0.0,0.0,0.0,0.0,0.0,-7.4899,-7.3283,-7.2595,-7.2355,-7.1577,-7.038,-6.9093,-6.8405,-6.7657,-6.6819,-6.5742,-6.4934,-6.3887,-6.1403,-6.0685,0.0,0.0,0.0,0.0,0.0,0.0,0.0,0.0,-4.9992,-5.0845,-5.2427,-5.3356,-5.4511,-5.647,-5.8303,-6.0236,-6.2446,-6.4931,-6.7342,-6.9451,-7.1083,-7.1987,-7.1761,-7.3418,-7.4799,-7.5352,-7.5804,-7.6055,-7.6055,-7.6055,-7.6055,-7.6055,-7.6155,-7.6205,-7.6205,-7.6331,-7.6532,-7.6883,-7.7084,-7.736,-7.7712,-7.7913,-7.8038,-7.8038,-7.849,-7.8691,-7.8716,-7.9193,-7.9068,-7.849,-7.8038,-7.7461,-7.6883,-7.6883,-7.6532,-7.6055,-7.6055,-7.6055,-7.6055,0.0,0.0,0.0,0.0,0.0,0.0,0.0,0.0,0.0,0.0,0.0,0.0,0.0,0.0,0.0,0.0,0.0,0.0,0.0,0.0,0.0,0.0,0.0,0.0,0.0,0.0,0.0,0.0,0.0,0.0,0.0,0.0,0.0,0.0,0.0,0.0,0.0,0.0,0.0,0.0,0.0,0.0,-7.5766,-7.5557,-7.5078,-7.439,-7.3133,-7.1487,-6.9782,-6.9093,-6.8046,-6.6969,-6.6819,-6.6311,-6.5383,-6.3348,0.0,-5.8654,-5.5591,-5.2156,-4.9493,-4.9671,-4.9215,-4.9414,0.0,-5.2879,-5.3582,-5.4762,-5.6244,-5.77,-5.8905,-6.0914,-6.3099,-6.5308,-6.7166,-6.8949,-7.0656,-7.1912,-7.2991,-7.392,-7.4699,-7.5352,-7.5904,-7.603,-7.6055,-7.6055,-7.6055,-7.6055,-7.6055,-7.6507,-7.6783,-7.6783,-7.726,-7.731,-7.6883,-7.7837,-7.8114,-7.7712,-7.8716,-7.9193,-7.9193,-7.9269,-7.9294,-7.9294,-7.9369,-7.9068,-7.8515,-7.8465,-7.7812,-7.6883,-7.6883,-7.6532,-7.6055,-7.6055,-7.6055,-7.6055,0.0,0.0,0.0,0.0,0.0,0.0,0.0,0.0,0.0,0.0,0.0,0.0,0.0,0.0,0.0,0.0,0.0,0.0,0.0,0.0,0.0,0.0,0.0,0.0,0.0,0.0,0.0,0.0,0.0,0.0,0.0,0.0,0.0,0.0,0.0,0.0,0.0,0.0,0.0,0.0,0.0,0.0,-7.6395,-7.6036,-7.4749,-7.3013,-7.2086,-7.047,0.0,0.0,-6.6879,-6.643,-6.643,-6.5682,-6.4605,-6.3438,-6.0571,0.0,-5.3354,-5.0558,-4.8851,-4.9481,-5.0393,-5.1749,-5.3884,-5.4762,-5.5742,-5.7826,-5.9081,-6.0337,-6.2069,-6.3952,-6.576,-6.7317,-6.925,-7.0782,-7.146,-7.2791,-7.3644,-7.3443,-7.3946,-7.4749,-7.5929,-7.6055,-7.6055,-7.6055,-7.6356,-7.6532,-7.6532,-7.7059,-7.736,-7.736,-7.7586,-7.7737,-7.7837,-7.8289,-7.8566,-7.8691,-7.9168,-7.9394,-7.9394,-7.9394,-7.9394,-7.9369,-7.9043,-7.8741,-7.8465,-7.7837,-7.7285,-7.6833,-7.6532,-7.6256,-7.6055,-7.6055,-7.6055,-7.6055,0.0,0.0,0.0,0.0,0.0,0.0,0.0,0.0,0.0,0.0,0.0,0.0,0.0,0.0,0.0,0.0,0.0,0.0,0.0,0.0,0.0,0.0,0.0,0.0,0.0,0.0,0.0,0.0,0.0,0.0,0.0,0.0,0.0,0.0,0.0,0.0,0.0,0.0,0.0,0.0,0.0,0.0,-7.6455,-7.5467,-7.3283,-7.0709,-7.0051,-6.8435,0.0,0.0,-6.4545,-6.4425,-6.4605,-6.4126,-6.326,-6.2048,-5.8552,-5.4424,-5.1293,-4.9754,-4.9289,-5.0444,-5.2176,-5.416,-5.6269,-5.7173,-5.8278,-6.0738,-6.1818,-6.2847,-6.4605,-6.6287,-6.7844,-6.91,-7.0882,-7.2288,-7.2765,-7.3619,-7.382,-7.2841,-7.2816,-7.3368,-7.4573,-7.5251,-7.5653,-7.5829,-7.6482,-7.6883,-7.6883,-7.7536,-7.7938,-7.7938,-7.8088,-7.8289,-7.8515,-7.8691,-7.8892,-7.9143,-7.9319,-7.9394,-7.9394,-7.9394,-7.9394,-7.9344,-7.8766,-7.844,-7.8214,-7.726,-7.6783,-7.6607,-7.6205,-7.6055,-7.6055,-7.6055,-7.6055,-7.6055,0.0,0.0,0.0,0.0,0.0,0.0,0.0,0.0,0.0,0.0,0.0,0.0,0.0,0.0,0.0,0.0,0.0,0.0,0.0,0.0,0.0,0.0,0.0,0.0,0.0,0.0,0.0,0.0,0.0,0.0,0.0,0.0,0.0,0.0,0.0,0.0,0.0,0.0,0.0,0.0,0.0,0.0,-7.5707,-7.3762,-7.0949,-6.8016,-6.7358,0.0,0.0,0.0,-6.0835,-6.0386,-6.1044,-6.1672,0.0,-5.8839,-5.4555,0.0,0.0,-4.9914,-5.0218,-5.2904,-5.4461,-5.6168,-5.9433,-6.0613,-6.1517,-6.3249,-6.4429,-6.5358,-6.5936,-6.7442,-6.91,-7.0732,-7.1962,-7.3268,-7.49,-7.4272,-7.3393,-7.2791,-7.1811,-7.1184,-7.1234,-7.3192,-7.4699,-7.5226,-7.6256,-7.6883,-7.6883,-7.7913,-7.849,-7.849,-7.9043,-7.9068,-7.854,-7.9068,-7.9093,-7.8566,-7.9118,-7.9394,-7.9394,-7.9394,-7.9394,-7.9344,-7.8766,-7.8214,-7.7687,-7.7109,-7.6557,-7.608,-7.6055,-7.6055,-7.6055,-7.6055,-7.6055,-7.6055,0.0,0.0,0.0,0.0,0.0,0.0,0.0,0.0,0.0,0.0,0.0,0.0,0.0,0.0,0.0,0.0,0.0,0.0,0.0,0.0,0.0,0.0,0.0,0.0,0.0,0.0,0.0,0.0,0.0,0.0,0.0,0.0,0.0,0.0,0.0,0.0,0.0,0.0,0.0,0.0,0.0,0.0,-7.6754,-7.3013,-6.9812,-6.6939,0.0,0.0,0.0,0.0,0.0,0.0,-5.8231,0.0,0.0,-5.3461,0.0,0.0,0.0,-5.157,-5.3482,-5.5892,-5.7876,-5.9709,-6.1567,-6.2697,-6.3626,-6.4555,-6.4178,-6.3927,-6.4856,-6.5785,-6.6965,-6.8622,-7.1058,-7.3067,-7.4021,-7.4448,-7.3795,-7.1384,-7.1083,-7.0656,-6.9551,-7.146,-7.3293,-7.4598,-7.5703,-7.6657,-7.7385,-7.8114,-7.8691,-7.9093,-7.9294,-7.9294,-7.9093,-7.9294,-7.9294,-7.9093,-7.9294,-7.9394,-7.9394,-7.9394,-7.9168,-7.8792,-7.8616,-7.8013,-7.7134,-7.6959,-7.6557,-7.6055,-7.6055,-7.6055,-7.6055,-7.6055,-7.5829,-7.5502,0.0,0.0,0.0,0.0,0.0,0.0,0.0,0.0,0.0,0.0,0.0,0.0,0.0,0.0,0.0,0.0,0.0,0.0,0.0,0.0,0.0,0.0,0.0,0.0,0.0,0.0,0.0,0.0,0.0,0.0,0.0,0.0,0.0,0.0,0.0,0.0,0.0,0.0,0.0,0.0,0.0,0.0,-7.451,-7.0111,-6.6969,0.0,0.0,0.0,0.0,0.0,0.0,0.0,0.0,0.0,0.0,0.0,0.0,0.0,-5.1579,-5.3758,-5.652,-5.8554,-6.0588,-6.237,-6.345,-6.4254,-6.4806,-6.4957,-6.3852,-6.2998,-6.35,-6.3726,-6.4429,-6.6312,-6.8723,-7.0983,-7.274,-7.3092,-7.2514,-7.0757,-7.0355,-6.9777,-6.8723,-7.0079,-7.1811,-7.3669,-7.5201,-7.6356,-7.7084,-7.7812,-7.849,-7.9068,-7.9068,-7.9168,-7.9394,-7.9394,-7.9394,-7.9394,-7.9394,-7.9269,-7.9068,-7.9068,-7.8766,-7.8214,-7.8013,-7.7536,-7.6858,-7.6657,-7.6381,-7.603,-7.5829,-7.5753,-7.5753,-7.5552,-7.5251,-7.4975,0.0,0.0,0.0,0.0,0.0,0.0,0.0,0.0,0.0,0.0,0.0,0.0,0.0,0.0,0.0,0.0,0.0,0.0,0.0,0.0,0.0,0.0,0.0,0.0,0.0,0.0,0.0,0.0,0.0,0.0,0.0,0.0,0.0,0.0,0.0,0.0,0.0,0.0,0.0,0.0,0.0,0.0,-6.9393,-6.5443,0.0,0.0,0.0,0.0,0.0,0.0,0.0,0.0,0.0,0.0,0.0,0.0,0.0,-5.1071,-5.3331,-5.6369,-5.9282,-6.0939,-6.2596,-6.4078,-6.5032,-6.5258,-6.5082,-6.4454,-6.3425,-6.2421,-6.1793,-6.1341,-6.1818,-6.3977,-6.5459,-6.7668,-7.1485,-7.0732,-7.0129,-7.1058,-6.9803,-6.8848,-6.8748,-6.9275,-7.048,-7.2615,-7.4724,-7.5979,-7.608,-7.7084,-7.7913,-7.8465,-7.849,-7.8766,-7.9344,-7.9344,-7.9344,-7.9344,-7.9319,-7.9018,-7.849,-7.849,-7.8189,-7.7637,-7.7109,-7.6858,-7.6783,-7.6281,-7.603,-7.5954,-7.5427,-7.5226,-7.5126,-7.4598,-7.4372,-7.4397,0.0,0.0,0.0,0.0,0.0,0.0,0.0,0.0,0.0,0.0,0.0,0.0,0.0,0.0,0.0,0.0,0.0,0.0,0.0,0.0,0.0,0.0,0.0,0.0,0.0,0.0,0.0,0.0,0.0,0.0,0.0,0.0,0.0,0.0,0.0,0.0,0.0,0.0,0.0,0.0,0.0,0.0,-6.8106,0.0,0.0,0.0,0.0,0.0,0.0,0.0,0.0,0.0,0.0,-5.1989,-5.0227,0.0,-5.2359,-5.3532,-5.657,-5.9533,-6.2069,-6.3324,-6.458,-6.5358,-6.4806,-6.468,-6.4279,-6.2923,-6.1115,-5.9207,-5.7399,-5.8629,-6.0512,-6.2345,-6.6338,-7.028,-7.3343,-7.4121,-7.3845,-7.2464,-7.2313,-7.1836,-7.0581,-7.1334,-7.2313,-7.3293,-7.3895,-7.495,-7.6582,-7.6933,-7.7335,-7.7888,-7.7913,-7.8189,-7.8741,-7.8741,-7.8741,-7.8741,-7.8314,-7.8063,-7.7913,-7.7913,-7.7611,-7.7084,-7.6933,-7.6632,-7.6256,-7.6105,-7.5829,-7.5427,-7.5301,-7.4975,-7.4598,-7.4473,-7.3895,-7.3242,0.0,0.0,0.0,0.0,0.0,0.0,0.0,0.0,0.0,0.0,0.0,0.0,0.0,0.0,0.0,0.0,0.0,0.0,0.0,0.0,0.0,0.0,0.0,0.0,0.0,0.0,0.0,0.0,0.0,0.0,0.0,0.0,0.0,0.0,0.0,0.0,0.0,0.0,0.0,0.0,0.0,0.0,0.0,0.0,0.0,0.0,0.0,0.0,0.0,0.0,0.0,-5.5538,-5.4296,-5.3308,-5.2836,-5.3793,0.0,-5.6821,-5.9433,-6.2345,-6.4806,-6.5409,-6.6212,-6.6363,-6.4555,-6.3927,-6.2998,-6.0362,-5.8453,-5.6646,-5.4662,-5.5968,-5.8052,-6.0211,-6.4404,-6.8673,-7.2439,-7.3494,-7.377,-7.3494,-7.3544,-7.3217,-7.2288,-7.274,-7.3443,-7.4247,-7.4322,-7.4849,-7.6105,-7.6381,-7.6758,-7.731,-7.7335,-7.7611,-7.8164,-7.8164,-7.8164,-7.8164,-7.7837,-7.7586,-7.7335,-7.7335,-7.7034,-7.6507,-7.6507,-7.6331,-7.603,-7.5804,-7.5527,-7.5201,-7.4699,-7.4322,-7.4021,-7.377,-7.3117,-7.2414,0.0,0.0,0.0,0.0,0.0,0.0,0.0,0.0,0.0,0.0,0.0,0.0,0.0,0.0,0.0,0.0,0.0,0.0,0.0,0.0,0.0,0.0,0.0,0.0,0.0,0.0,0.0,0.0,0.0,0.0,0.0,0.0,0.0,0.0,0.0,0.0,0.0,0.0,0.0,0.0,0.0,0.0,0.0,0.0,0.0,0.0,0.0,0.0,0.0,0.0,-5.784,-5.6921,-5.5344,-5.5558,-5.6461,-5.6884,-5.8378,-6.0337,-6.2169,-6.4881,-6.7191,-6.7191,-6.7493,-6.7066,-6.4228,-6.2948,-6.1316,-5.7499,-5.5817,-5.4561,-5.2904,-5.3683,-5.5541,-5.8554,-6.1843,-6.5785,-7.0807,-7.1585,-7.2389,-7.4397,-7.4222,-7.392,-7.392,-7.392,-7.4322,-7.5276,-7.5352,-7.5352,-7.5352,-7.5804,-7.6281,-7.6758,-7.6833,-7.7109,-7.7586,-7.7586,-7.7586,-7.7586,-7.7511,-7.7235,-7.6758,-7.6758,-7.6507,-7.6055,-7.6055,-7.6004,-7.5904,-7.5427,-7.5151,-7.4925,-7.3971,-7.3494,-7.3318,-7.2816,-7.2238,-7.1711,0.0,0.0,0.0,0.0,0.0,0.0,0.0,0.0,0.0,0.0,-6.3079,-6.3079,0.0,0.0,0.0,0.0,0.0,0.0,0.0,0.0,0.0,0.0,0.0,0.0,0.0,0.0,0.0,0.0,0.0,0.0,0.0,0.0,0.0,0.0,0.0,0.0,0.0,0.0,0.0,0.0,0.0,0.0,0.0,0.0,0.0,0.0,0.0,0.0,0.0,0.0,-5.7421,-5.705,-5.7657,-5.8068,-5.858,-6.044,-6.1592,-6.2822,-6.5409,-6.7191,-6.8346,-6.8346,-6.807,-6.694,-6.3726,-6.1466,-5.9106,-5.5691,-5.411,-5.2829,-5.1172,-5.2879,-5.5917,-6.0085,-6.3525,-6.7593,-7.3067,-7.4222,-7.4824,-7.5678,-7.5678,-7.5628,-7.5628,-7.5628,-7.5703,-7.5904,-7.5904,-7.5904,-7.5904,-7.6004,-7.6105,-7.6205,-7.6632,-7.6933,-7.7009,-7.7009,-7.7009,-7.7009,-7.6557,-7.6281,-7.6205,-7.6205,-7.6155,-7.6055,-7.6055,-7.5804,-7.5377,-7.5276,-7.4699,-7.387,-7.3669,-7.3016,-7.2188,-7.2087,-7.141,-7.0606,0.0,0.0,0.0,0.0,0.0,0.0,0.0,-6.1104,-6.1583,-6.2899,-6.3079,-6.2959,-6.26,-6.257,0.0,0.0,0.0,0.0,0.0,0.0,0.0,0.0,0.0,0.0,0.0,0.0,0.0,0.0,0.0,0.0,0.0,0.0,0.0,0.0,0.0,0.0,0.0,0.0,0.0,0.0,0.0,0.0,0.0,0.0,0.0,0.0,0.0,0.0,0.0,0.0,-5.6944,-5.6836,-5.8555,-5.9719,-6.0788,-6.2722,-6.3877,-6.5007,-6.7241,-6.9049,-7.0179,-6.9627,-6.8848,-6.7141,-6.2923,-6.001,-5.7198,-5.3607,-5.2201,-5.1297,-5.0193,-5.2251,-5.5189,-5.8478,-6.1567,-6.5584,-7.1435,-7.2489,-7.3494,-7.5778,-7.6055,-7.6055,-7.6055,-7.6055,-7.6055,-7.6055,-7.6055,-7.6055,-7.6055,-7.6055,-7.6055,-7.6055,-7.6306,-7.6456,-7.6456,-7.6456,-7.6456,-7.6456,-7.618,-7.6055,-7.6055,-7.6055,-7.6055,-7.6055,-7.6055,-7.5753,-7.5226,-7.4925,-7.4146,-7.3117,-7.2816,-7.2213,-7.1485,-7.1485,-7.0958,-7.0305,0.0,0.0,0.0,0.0,0.0,0.0,0.0,-6.1104,-6.1583,-6.2899,-6.3199,-6.2929,-6.2002,-6.2002,-6.2032,0.0,0.0,0.0,0.0,0.0,0.0,0.0,0.0,0.0,0.0,0.0,0.0,-6.3797,0.0,0.0,0.0,0.0,0.0,0.0,0.0,0.0,0.0,0.0,0.0,0.0,0.0,0.0,0.0,0.0,0.0,0.0,0.0,0.0,0.0,0.0,-5.61,-5.6018,-5.8001,-6.0261,-6.2471,-6.3877,-6.5333,-6.684,-6.8522,-7.0405,-7.1661,-7.0681,-6.9351,-6.7015,-6.227,-5.8855,-5.5666,-5.2026,-5.072,-5.0142,-4.9816,-5.1548,-5.3884,0.0,-5.9056,-6.2772,-6.8874,-7.0129,-7.1736,-7.5276,-7.5904,-7.6055,-7.6055,-7.6055,-7.6055,-7.6055,-7.6055,-7.6055,-7.6055,-7.6055,-7.6055,-7.6055,-7.6055,-7.6055,-7.6055,-7.6055,-7.6055,-7.6055,-7.6055,-7.6055,-7.6055,-7.6055,-7.5979,-7.5879,-7.5879,-7.5502,-7.4849,-7.4297,-7.3544,-7.2665,-7.1987,-7.146,-7.1058,-7.0807,-7.038,-6.9903,0.0,0.0,0.0,0.0,0.0,0.0,0.0,-6.1104,-6.1583,-6.2899,-6.3558,-6.3228,-6.1403,-6.1732,-6.1852,0.0,0.0,0.0,0.0,0.0,0.0,0.0,0.0,0.0,0.0,0.0,0.0,-6.3169,-6.2989,0.0,0.0,0.0,0.0,0.0,0.0,-6.1822,0.0,0.0,0.0,0.0,0.0,0.0,0.0,0.0,0.0,0.0,0.0,0.0,0.0,0.0,0.0,-5.416,-5.539,-5.8981,-6.2873,-6.3576,0.0,0.0,-6.9652,-7.0983,-7.1761,-7.1158,-6.9049,-6.6086,-6.2094,-5.8252,-5.4737,-5.1875,-5.0419,-4.9816,-5.0268,-5.0544,0.0,0.0,0.0,-6.104,-6.7166,-6.9752,-7.1887,-7.4272,-7.5452,-7.6055,-7.6055,-7.6055,-7.6055,-7.6055,-7.6055,-7.6055,-7.6055,-7.6055,-7.6055,-7.6055,-7.6055,-7.6055,-7.6055,-7.6055,-7.6055,-7.6055,-7.6055,-7.6055,-7.6055,-7.6055,-7.5778,-7.5301,-7.5301,-7.4724,-7.3694,-7.3117,-7.2816,-7.2615,-7.156,-7.1133,-7.0958,-6.9953,-6.925,-6.8698,0.0,0.0,0.0,0.0,0.0,0.0,-6.0924,-6.1104,-6.1732,-6.3408,-6.3857,-6.3707,-6.2929,-6.2391,-6.1672,0.0,0.0,0.0,0.0,0.0,0.0,0.0,0.0,0.0,0.0,0.0,-6.2091,-6.248,-6.2091,0.0,0.0,0.0,0.0,0.0,0.0,-6.2002,-6.251,0.0,0.0,0.0,0.0,0.0,0.0,0.0,0.0,0.0,0.0,0.0,0.0,0.0,0.0,0.0,-5.3381,-5.5691,0.0,0.0,-6.3902,-6.6438,-6.9451,-7.156,-7.2715,-7.1811,-6.8999,-6.5534,-6.1994,-5.765,-5.3783,-5.1699,-5.0645,-5.0167,-5.0368,0.0,0.0,0.0,0.0,0.0,-6.2044,-6.355,-6.6061,-7.1284,-7.259,-7.3845,-7.5854,-7.6055,-7.6055,-7.6055,-7.6055,-7.6055,-7.6055,-7.6055,-7.6055,-7.6055,-7.6055,-7.6055,-7.6055,-7.6055,-7.6055,-7.6055,-7.6055,-7.5879,-7.5578,-7.5578,-7.5276,-7.4724,-7.4397,-7.3996,-7.3519,-7.2615,-7.2037,-7.1661,-7.0882,-7.038,-7.0003,-6.9225,-6.8798,-6.8547,0.0,0.0,0.0,0.0,0.0,-5.9488,-6.0625,-6.0984,-6.1672,-6.3228,-6.3588,-6.3647,-6.3468,-6.245,-6.1343,-6.0176,0.0,0.0,0.0,0.0,0.0,0.0,0.0,0.0,0.0,0.0,-6.1343,-6.1792,-6.1343,-6.1253,0.0,0.0,-6.0805,-6.0835,0.0,0.0,0.0,0.0,0.0,0.0,0.0,0.0,0.0,0.0,0.0,0.0,0.0,0.0,0.0,0.0,0.0,0.0,0.0,0.0,0.0,0.0,-6.1617,-6.4731,-6.812,-7.0907,-7.2665,-7.1861,-6.8874,-6.5233,-6.1943,0.0,-5.3683,-5.19,-5.1071,-5.067,-5.067,0.0,0.0,0.0,0.0,-5.4135,-5.8629,-5.9684,-6.2169,-6.8095,-6.9426,-7.1108,-7.4272,-7.5477,-7.6055,-7.6055,-7.6055,-7.6055,-7.6055,-7.6055,-7.6055,-7.6055,-7.6055,-7.6055,-7.6055,-7.6055,-7.5979,-7.5804,-7.5804,-7.5527,-7.5,-7.5,-7.4598,-7.3895,-7.3519,-7.3142,-7.2765,-7.1811,-7.1284,-7.1008,-7.0129,-6.9627,-6.9351,-6.8447,-6.8145,-6.8045,0.0,0.0,0.0,0.0,0.0,0.0,-5.9997,-6.0685,-6.1373,-6.2032,-6.269,-6.2839,-6.2181,-6.1523,-6.0835,-6.0146,0.0,0.0,0.0,0.0,0.0,0.0,0.0,0.0,0.0,0.0,-6.1104,-6.1134,-6.1104,-6.0775,-6.0116,-6.0086,-6.0086,-6.0086,0.0,0.0,0.0,0.0,0.0,0.0,0.0,0.0,0.0,0.0,0.0,0.0,0.0,0.0,0.0,0.0,0.0,0.0,0.0,0.0,0.0,0.0,-5.8956,-6.3324,-6.5559,-6.8572,-7.1108,-7.1083,-6.8572,-6.5233,0.0,0.0,-5.4762,-5.2553,-5.1649,-5.1272,-5.1272,0.0,0.0,0.0,0.0,0.0,-5.8252,-6.0136,-6.2195,0.0,-6.6338,-6.8095,-7.0857,-7.4121,-7.6055,-7.6055,-7.6055,-7.6055,-7.6055,-7.6055,-7.6055,-7.6055,-7.6055,-7.6055,-7.6055,-7.6055,-7.5778,-7.5251,-7.5251,-7.495,-7.4423,-7.4423,-7.382,-7.274,-7.274,-7.2113,-7.1058,-7.0506,-7.0606,-7.0907,-6.9275,-6.8974,-6.925,-6.7593,-6.699,-6.6915,0.0,0.0,0.0,0.0,0.0,0.0,0.0,-6.0266,-6.0805,-6.1942,-6.2271,-6.251,-6.275,-6.1792,-6.1014,-6.0805,0.0,0.0,0.0,0.0,0.0,0.0,0.0,0.0,0.0,0.0,-5.9967,-6.0416,-5.9967,-5.9847,-6.0086,-5.9608,-5.9428,-5.9428,-5.9877,-6.0475,0.0,0.0,0.0,0.0,0.0,0.0,0.0,0.0,0.0,0.0,0.0,0.0,0.0,0.0,0.0,0.0,0.0,0.0,0.0,0.0,0.0,0.0,-6.0989,-6.3475,-6.5358,-6.4982,-6.2948,-6.0588,-5.8755,0.0,-5.3406,-5.2327,-5.1975,-5.185,-5.185,0.0,0.0,0.0,0.0,0.0,0.0,0.0,0.0,-6.4354,-6.9401,-7.3117,-7.4347,-7.5427,-7.6055,-7.6055,-7.6055,-7.6055,-7.6055,-7.5703,-7.5653,-7.6055,-7.6055,-7.6055,-7.6055,-7.5678,-7.5402,-7.5226,-7.4849,-7.4197,-7.3268,-7.3268,-7.2665,-7.1585,-7.1209,-7.1058,-7.1008,-7.0079,-6.9803,-6.9878,-6.8974,-6.8497,-6.8221,-6.7317,-6.6965,-6.689,0.0,0.0,0.0,0.0,0.0,0.0,0.0,-5.9937,-6.0386,-6.1224,-6.1343,-6.1583,-6.2271,-6.1164,-6.0446,-6.0715,0.0,0.0,0.0,0.0,0.0,0.0,0.0,0.0,0.0,-5.9099,-5.9428,-6.0086,-5.9937,-6.0086,-6.0475,-6.0296,-5.9967,-5.9488,-5.9907,-6.0176,0.0,0.0,0.0,0.0,0.0,0.0,-6.2005,0.0,0.0,0.0,0.0,0.0,0.0,0.0,0.0,0.0,0.0,0.0,0.0,0.0,0.0,0.0,0.0,-6.0186,-6.1893,-6.1994,-6.0512,0.0,0.0,0.0,0.0,0.0,0.0,0.0,0.0,0.0,0.0,0.0,0.0,0.0,0.0,0.0,0.0,-6.4304,-6.9853,-7.3669,-7.4423,-7.5251,-7.5753,-7.5753,-7.5552,-7.5427,-7.5427,-7.5126,-7.5075,-7.5427,-7.5427,-7.5427,-7.5427,-7.5101,-7.4824,-7.4623,-7.4046,-7.3293,-7.2414,-7.2213,-7.161,-7.0757,-7.0405,-7.0229,0.0,-6.9426,-6.8999,-6.8773,-6.8221,-6.7794,-6.7417,-6.6865,-6.6639,-6.6589,0.0,0.0,0.0,0.0,0.0,0.0,0.0,-5.9578,-5.9967,-5.9997,-6.0027,-6.0266,-6.0894,-5.9847,-5.9338,-5.9967,0.0,0.0,0.0,0.0,0.0,0.0,0.0,0.0,-5.9099,-5.9099,-5.9398,-6.0027,-6.0715,-6.1044,-6.1044,-6.1732,-6.1343,-6.0086,-6.0086,-5.9727,0.0,0.0,0.0,0.0,-6.2061,-6.1975,0.0,0.0,0.0,0.0,0.0,0.0,0.0,0.0,0.0,0.0,0.0,0.0,0.0,0.0,0.0,0.0,0.0,0.0,0.0,0.0,0.0,0.0,0.0,0.0,0.0,0.0,0.0,0.0,0.0,0.0,0.0,0.0,0.0,0.0,0.0,-5.7901,-6.0236,-6.5032,-6.8522,-7.0907,-7.1811,-7.392,-7.5226,-7.5176,-7.4699,-7.4423,-7.4423,-7.4372,-7.4347,-7.4297,-7.4247,-7.4272,-7.4347,-7.4272,-7.3971,-7.3418,-7.2866,-7.2288,-7.1661,-7.1184,-7.0656,-7.0079,-7.0079,-6.9501,-6.8572,-6.8572,-6.8246,-6.7693,-6.7166,-6.694,-6.684,-6.6312,-6.6086,-6.6061,0.0,0.0,0.0,0.0,0.0,0.0,0.0,0.0,0.0,0.0,-5.9338,-5.9398,-5.9548,-5.9308,-5.9159,0.0,0.0,0.0,0.0,0.0,0.0,0.0,0.0,0.0,-5.9099,-5.9099,-5.9189,-5.9338,-5.9997,-6.0326,-6.0326,-6.1014,-6.0894,-6.0086,-6.0086,-5.9997,0.0,0.0,0.0,0.0,-6.1553,-6.0575,0.0,0.0,0.0,0.0,-5.317,-5.2505,0.0,0.0,0.0,0.0,0.0,0.0,0.0,0.0,-5.082,0.0,0.0,0.0,0.0,0.0,0.0,0.0,0.0,0.0,0.0,0.0,0.0,0.0,0.0,0.0,0.0,0.0,0.0,-5.5968,-5.7474,-6.1441,-6.5258,-6.812,-7.141,-7.3042,-7.2012,-7.392,-7.5075,-7.4649,-7.4498,-7.4423,-7.4423,-7.4021,-7.3594,-7.3142,-7.2715,-7.2916,-7.377,-7.2916,-7.2213,-7.1661,-7.1535,-7.0732,-6.9401,-6.9702,-6.93,-6.8371,-6.8371,-6.8221,-6.7995,-6.7995,-6.7668,-6.7166,-6.7015,-6.6714,-6.6287,-6.6162,-6.5835,-6.5484,0.0,0.0,0.0,0.0,0.0,0.0,0.0,0.0,0.0,0.0,0.0,0.0,0.0,0.0,0.0,0.0,0.0,0.0,0.0,0.0,0.0,0.0,0.0,-5.88,-5.9099,-5.9099,-5.9249,-5.9548,-6.0236,-6.0715,-6.1014,-6.1403,-6.1194,-6.0535,-5.9907,-5.9638,-5.9613,-5.9572,-6.0188,-6.1022,-5.9187,0.0,0.0,0.0,0.0,0.0,-5.1791,-5.1354,0.0,-5.1825,-5.2302,-5.2452,0.0,0.0,0.0,0.0,-5.1423,-5.1774,0.0,0.0,0.0,0.0,0.0,0.0,0.0,0.0,0.0,0.0,0.0,0.0,0.0,0.0,0.0,-5.4436,-5.5089,-5.6369,0.0,-6.2847,-6.6564,-6.9803,-7.1786,-7.3042,-7.3393,-7.4071,-7.4372,-7.4071,-7.3795,-7.3644,-7.3644,-7.3368,-7.2941,-7.2364,-7.1811,-7.1711,-7.2062,-7.146,-7.0882,-7.033,-7.0079,-6.9476,-6.8622,-6.8673,-6.8371,-6.7794,-6.7518,-6.7417,-6.7392,-6.7141,-6.6689,-6.6212,-6.6212,-6.586,-6.5358,-6.5358,-6.5157,-6.4906,0.0,0.0,0.0,0.0,0.0,0.0,0.0,0.0,0.0,0.0,0.0,0.0,0.0,0.0,0.0,0.0,0.0,0.0,0.0,0.0,0.0,0.0,0.0,-5.8501,-5.8949,-5.8949,-5.9219,-5.9787,-6.0565,-6.1283,-6.1942,-6.2151,-6.1852,-6.1074,-5.9817,-5.9189,-5.9021,-5.8249,-5.8598,-5.9474,-5.6643,0.0,0.0,0.0,0.0,0.0,0.0,0.0,0.0,-5.1523,-5.19,-5.1975,-5.1975,0.0,0.0,0.0,0.0,0.0,-5.2779,0.0,0.0,0.0,0.0,0.0,0.0,0.0,0.0,0.0,0.0,0.0,0.0,-5.313,-5.3381,-5.3984,-5.4988,-5.7198,-6.1466,-6.3902,-6.6614,-7.038,-7.1209,-7.2238,-7.4171,-7.382,-7.3393,-7.3217,-7.2765,-7.2489,-7.2489,-7.2489,-7.2188,-7.156,-7.1083,-7.048,-6.9752,-6.9928,-6.9702,-6.9074,-6.8673,-6.8396,-6.8221,-6.7744,-6.7493,-6.7392,-6.684,-6.6589,-6.6564,-6.6061,-6.5584,-6.5157,-6.5157,-6.4881,-6.4454,-6.4454,-6.4404,-6.4329,0.0,0.0,0.0,0.0,0.0,0.0,0.0,0.0,0.0,0.0,0.0,0.0,0.0,0.0,0.0,0.0,0.0,0.0,0.0,0.0,0.0,0.0,-5.8291,-5.874,-5.8291,-5.8261,-5.8321,-5.8441,-5.9638,-6.0595,-6.1283,-6.2421,-6.2271,-6.1074,-6.0296,-5.9638,-5.9099,-5.8971,-5.8552,-5.7973,-5.691,0.0,0.0,0.0,0.0,0.0,0.0,0.0,0.0,-5.0619,-5.0996,-5.1398,-5.1398,0.0,0.0,0.0,0.0,0.0,-5.2779,-5.3532,-5.3984,0.0,0.0,0.0,0.0,0.0,0.0,0.0,0.0,0.0,0.0,-5.3984,-5.4637,-5.5666,-5.8654,-6.2094,-6.5584,-6.7593,-6.8924,-6.9602,-7.1786,-7.2464,-7.0531,-7.1861,-7.2464,-7.1535,-7.1384,-7.1334,-7.1334,-7.1334,-7.0882,-6.9853,-6.9752,-6.8974,-6.7493,-6.8396,-6.8371,-6.7367,-6.7744,-6.7417,-6.6488,-6.6413,-6.6112,-6.5634,-6.5082,-6.4856,-6.4856,-6.4756,-6.468,-6.458,-6.458,-6.453,-6.4454,-6.4454,-6.4178,-6.3751,0.0,0.0,0.0,0.0,0.0,0.0,0.0,0.0,0.0,0.0,0.0,0.0,0.0,0.0,0.0,0.0,0.0,0.0,0.0,0.0,0.0,-5.7094,-5.8381,-5.88,-5.8141,-5.883,-5.9189,-5.9189,-6.0864,-6.2241,-6.3228,-6.3139,-6.2181,-6.0535,-5.9847,-5.8902,-5.7749,-5.6905,-5.6308,-5.5721,0.0,0.0,0.0,0.0,0.0,0.0,0.0,0.0,0.0,0.0,-5.0795,-5.1272,-5.1272,0.0,0.0,0.0,0.0,0.0,-5.2854,-5.3306,-5.3708,0.0,0.0,0.0,0.0,0.0,0.0,0.0,0.0,0.0,0.0,0.0,-5.6294,-5.8905,-6.1592,-6.4078,-6.6212,-6.7442,-6.8673,-7.0154,-7.0932,-7.1309,-7.1234,-7.1585,-7.151,-7.0706,-7.0907,-7.0832,-7.0229,-7.048,-7.0129,-6.9024,-6.8999,-6.8346,-6.699,-6.7467,-6.7317,-6.6513,-6.6764,-6.6614,-6.6112,-6.581,-6.5534,-6.5233,-6.4404,-6.4203,-6.4454,-6.4178,-6.4053,-6.4053,-6.4053,-6.3852,-6.3576,-6.3576,-6.3425,-6.3199,0.0,0.0,0.0,0.0,0.0,0.0,0.0,0.0,0.0,0.0,0.0,0.0,0.0,0.0,0.0,0.0,0.0,0.0,0.0,0.0,-5.6885,-5.6885,-5.8291,-5.886,-5.8381,-5.9338,-6.0086,-6.0565,-6.2241,-6.3887,-6.5443,-6.3827,-6.2181,-6.0505,-5.919,-5.7772,-5.6421,-5.4979,-5.4149,-5.361,0.0,0.0,0.0,0.0,0.0,0.0,0.0,0.0,0.0,0.0,0.0,0.0,0.0,0.0,0.0,0.0,-5.2503,-5.2754,-5.2904,-5.3105,-5.3457,0.0,0.0,0.0,0.0,0.0,0.0,0.0,0.0,0.0,0.0,-5.6545,-5.8353,-6.1994,-6.4078,-6.5685,-6.6915,-6.7568,-6.8723,-7.0832,-7.033,-7.038,-7.1811,-7.1184,-7.0405,-6.9727,-7.0079,-6.9953,-6.91,-6.9451,-6.925,-6.8271,-6.8246,-6.7693,-6.6589,-6.6589,-6.6363,-6.5911,-6.5911,-6.586,-6.571,-6.5157,-6.4931,-6.4856,-6.3902,-6.3726,-6.4053,-6.3651,-6.35,-6.35,-6.35,-6.3224,-6.2822,-6.2822,-6.2822,-6.2822,0.0,0.0,0.0,0.0,0.0,0.0,0.0,0.0,0.0,0.0,0.0,0.0,0.0,0.0,0.0,0.0,0.0,0.0,0.0,0.0,-5.6226,-5.6226,-5.8082,-5.9069,-5.9039,-5.9129,-6.0086,-6.1942,-6.272,-6.4366,-6.6789,-6.4276,-6.266,-6.1795,-5.837,-5.6475,-5.5817,-5.4811,-5.3549,-5.2148,-5.1927,0.0,0.0,0.0,0.0,0.0,0.0,0.0,0.0,0.0,0.0,0.0,0.0,0.0,0.0,0.0,0.0,-5.2277,-5.2779,-5.3658,-5.421,-5.3281,-5.3406,0.0,-5.6997,-5.7148,0.0,-5.8177,0.0,0.0,0.0,-5.8629,-6.0964,-6.3827,-6.6137,-6.812,-6.9727,-7.043,-7.0857,-7.1058,-7.1008,-7.0631,-6.9752,-6.9602,-6.9125,-6.807,-6.802,-6.7995,-6.7919,-6.797,-6.7693,-6.7116,-6.7091,-6.6564,-6.5434,-6.5409,-6.5383,-6.5358,-6.5358,-6.5082,-6.4555,-6.4053,-6.3802,-6.3776,-6.3149,-6.2923,-6.2948,-6.2898,-6.2898,-6.2898,-6.2898,-6.2873,-6.2822,-6.2822,-6.2822,-6.2822,0.0,0.0,0.0,0.0,0.0,0.0,0.0,0.0,0.0,0.0,0.0,0.0,0.0,0.0,0.0,0.0,0.0,0.0,0.0,0.0,-5.6218,-5.6218,-5.8052,-5.9099,-5.9099,-6.1104,-6.2929,-6.4545,-6.643,-6.7238,-6.6939,-6.4306,-6.1783,-5.9245,-5.7049,-5.5109,-5.3402,-5.3018,-5.1989,-5.0499,-5.0499,-5.0142,0.0,0.0,0.0,0.0,0.0,0.0,0.0,0.0,0.0,0.0,0.0,0.0,0.0,0.0,0.0,-5.2653,-5.2879,-5.3457,-5.4009,-5.3959,-5.4361,0.0,0.0,-5.7725,-5.8077,-5.9885,-6.0236,-6.0111,-5.9684,-6.1416,-6.3475,-6.5208,-6.7367,-6.915,-7.0129,-7.0732,-7.0958,-7.0606,-7.028,-6.9777,-6.8999,-6.8622,-6.8095,-6.7342,-6.7593,-6.7493,-6.6789,-6.6739,-6.6664,-6.6438,-6.576,-6.5383,-6.5283,-6.4957,-6.463,-6.4304,-6.463,-6.468,-6.4454,-6.3927,-6.3701,-6.3651,-6.3073,-6.2822,-6.2822,-6.2822,-6.2822,-6.2822,-6.2822,-6.2822,-6.2822,-6.2822,-6.2822,-6.2822,0.0,0.0,0.0,0.0,0.0,0.0,0.0,0.0,0.0,0.0,0.0,0.0,0.0,0.0,0.0,0.0,0.0,0.0,0.0,-5.5598,-5.5867,-5.5867,-5.7543,-5.868,-5.9099,-6.2331,-6.4755,-6.6311,-6.9183,-6.9572,-6.7567,-6.4397,-6.1439,-5.8722,-5.5985,-5.3773,-5.219,-5.1716,-5.078,-4.959,-4.959,-4.969,0.0,0.0,0.0,0.0,0.0,0.0,0.0,0.0,0.0,0.0,0.0,0.0,0.0,0.0,0.0,0.0,-5.2929,-5.3181,-5.3557,0.0,0.0,0.0,-5.8152,-5.9081,-6.0136,-6.2521,-6.2471,-6.2069,-6.2421,-6.3274,-6.4479,-6.6112,-6.797,-6.9376,-6.9928,-7.033,-7.0305,-6.9577,-6.915,-6.8698,-6.8145,-6.7769,-6.7241,-6.6488,-6.6789,-6.6664,-6.5886,-6.5685,-6.5685,-6.5835,-6.4957,-6.458,-6.4781,-6.4404,-6.3952,-6.3425,-6.3776,-6.3952,-6.3927,-6.3576,-6.3425,-6.34,-6.2998,-6.2822,-6.2822,-6.2822,-6.2822,-6.2822,-6.2822,-6.2822,-6.2822,-6.2822,-6.2822,-6.2822,0.0,0.0,0.0,0.0,0.0,0.0,0.0,0.0,0.0,0.0,0.0,0.0,0.0,0.0,0.0,0.0,0.0,0.0,-5.5149,-5.5179,-5.5179,-5.5179,-5.6406,-5.7723,-5.9039,-6.2301,-6.4964,-6.6999,-7.026,-7.0859,-6.8821,-6.4502,-6.2035,-6.095,-5.5141,-5.2607,-5.2481,-5.102,-5.0092,-4.959,-4.9615,-4.9941,-5.0419,0.0,0.0,0.0,0.0,0.0,0.0,0.0,0.0,0.0,0.0,0.0,0.0,0.0,-5.2929,-5.2929,-5.2929,-5.2929,0.0,0.0,0.0,0.0,-5.9583,-6.1617,-6.3626,-6.6413,-6.5258,-6.4053,-6.5107,-6.3977,-6.3776,-6.6513,-6.7894,-6.8798,-6.9351,-6.9336,-6.9024,-6.7919,-6.7794,-6.7568,-6.7015,-6.6965,-6.6488,-6.5383,-6.5283,-6.5283,-6.5283,-6.4756,-6.4705,-6.5258,-6.4731,-6.4203,-6.3701,-6.3676,-6.34,-6.2822,-6.2822,-6.2822,-6.2822,-6.2822,-6.2822,-6.2822,-6.2822,-6.2822,-6.2822,-6.2822,-6.2822,-6.2822,-6.2822,-6.2822,-6.2822,-6.2822,-6.2822,-6.2822,0.0,0.0,0.0,0.0,0.0,0.0,0.0,0.0,0.0,0.0,0.0,0.0,0.0,0.0,0.0,0.0,0.0,0.0,-5.4491,-5.494,-5.5179,-5.5179,-5.6406,-5.7064,-5.7034,-6.0745,-6.4545,-6.8405,-6.8884,-6.7512,-6.4352,-6.1184,-5.8321,-5.5772,-5.3562,-5.1998,-5.102,-5.059,-5.0092,-4.9615,-5.0017,-5.0268,-5.0469,0.0,0.0,0.0,0.0,0.0,0.0,0.0,0.0,0.0,0.0,0.0,0.0,0.0,-5.2929,-5.2929,-5.2929,0.0,0.0,0.0,0.0,0.0,0.0,-6.1918,0.0,0.0,-6.7292,-6.6564,-6.6488,-6.6388,-6.6338,-6.6363,-6.7317,-6.8095,-6.8271,-6.8296,-6.802,-6.7317,-6.6865,-6.6538,-6.6388,-6.566,-6.5233,-6.5283,-6.4931,-6.4705,-6.4705,-6.4203,-6.4153,-6.4705,-6.3802,-6.3425,-6.3701,-6.3299,-6.2998,-6.2822,-6.2822,-6.2822,-6.2822,-6.2822,-6.2822,-6.2822,-6.2822,-6.2822,-6.2822,-6.2822,-6.2822,-6.2822,-6.2822,-6.2596,-6.2245,-6.2245,-6.2245,-6.2245,0.0,0.0,0.0,0.0,0.0,0.0,0.0,0.0,0.0,0.0,0.0,0.0,0.0,0.0,0.0,0.0,0.0,0.0,0.0,0.0,-5.5179,-5.5179,-5.5927,-5.6236,-5.6067,-5.9457,-6.2057,-6.371,-6.5238,-6.4458,-6.1632,-5.9189,-5.7095,-5.5314,-5.4645,-5.3385,-5.1724,-5.1724,-5.1021,-4.9941,-5.0293,-5.0695,-5.1122,0.0,0.0,0.0,0.0,0.0,0.0,0.0,0.0,0.0,0.0,0.0,0.0,0.0,-5.2929,-5.2929,-5.2929,0.0,0.0,0.0,0.0,-5.8805,-6.1793,0.0,0.0,0.0,-6.8798,-6.7894,-6.8221,-6.7467,-6.6789,-6.6789,-6.699,-6.7216,-6.7442,-6.7091,-6.6689,-6.6338,-6.581,-6.5459,-6.5459,-6.4856,-6.453,-6.4655,-6.4354,-6.4153,-6.4153,-6.3651,-6.3601,-6.4128,-6.3299,-6.2998,-6.335,-6.2998,-6.2822,-6.2822,-6.2596,-6.2496,-6.2496,-6.2496,-6.2496,-6.2496,-6.227,-6.2169,-6.2169,-6.2169,-6.2169,-6.2169,-6.2169,-6.1969,-6.1667,-6.1667,-6.1667,-6.1718,0.0,0.0,0.0,0.0,0.0,0.0,0.0,0.0,0.0,0.0,0.0,0.0,0.0,0.0,0.0,0.0,0.0,0.0,0.0,0.0,-5.5179,-5.5179,-5.5299,-5.5574,-5.5954,-5.8234,-5.8165,-5.5492,-5.9961,-6.1372,-5.9765,-5.7999,-5.7319,-5.7547,-5.7048,-5.5641,-5.3683,-5.3532,-5.2302,-5.0419,-5.0469,-5.1147,-5.2126,-5.2151,0.0,0.0,0.0,0.0,0.0,0.0,0.0,0.0,0.0,0.0,0.0,-5.2754,-5.2929,0.0,0.0,0.0,0.0,0.0,0.0,0.0,-6.3902,-6.6614,-6.9049,-7.1108,0.0,-6.8472,-6.9928,-6.7668,-6.6036,-6.7417,-6.6789,-6.6262,-6.6689,-6.586,-6.5208,-6.5208,-6.4731,-6.4404,-6.4454,-6.4379,-6.4153,-6.3726,-6.3651,-6.3626,-6.3626,-6.3124,-6.3073,-6.3601,-6.3099,-6.2797,-6.2747,-6.2747,-6.2722,-6.2672,-6.2169,-6.1943,-6.1943,-6.1943,-6.1943,-6.1893,-6.1391,-6.119,-6.119,-6.119,-6.119,-6.119,-6.119,-6.114,-6.1115,-6.1115,-6.1115,-6.119,0.0,0.0,0.0,0.0,0.0,0.0,0.0,0.0,0.0,0.0,0.0,0.0,0.0,0.0,0.0,0.0,0.0,0.0,0.0,0.0,-5.5179,-5.5179,-5.6166,-5.6616,-5.642,-5.6619,-5.5766,-5.3744,-5.6093,-5.631,-5.461,-5.499,-5.5195,-5.5279,-5.5203,-5.4587,-5.3607,-5.2352,-5.1272,-5.0469,-5.0921,-5.1498,-5.2151,-5.2578,-5.2829,0.0,0.0,0.0,0.0,0.0,0.0,0.0,0.0,-5.2101,-5.2226,-5.2754,0.0,0.0,0.0,0.0,0.0,0.0,0.0,0.0,0.0,-6.6564,-6.7593,-6.8497,-6.925,-6.9702,-6.9627,-6.8673,-6.7593,-6.6639,-6.6262,-6.586,-6.5107,-6.4806,-6.4655,-6.4655,-6.4178,-6.4028,-6.4429,-6.3676,-6.3324,-6.3676,-6.3274,-6.3023,-6.3023,-6.2898,-6.2898,-6.2998,-6.2898,-6.2621,-6.2195,-6.2195,-6.1969,-6.1542,-6.1416,-6.1366,-6.1366,-6.1366,-6.1366,-6.1366,-6.124,-6.119,-6.119,-6.119,-6.119,-6.119,-6.119,-6.0914,-6.0512,-6.0512,-6.0512,-6.0588,0.0,0.0,0.0,0.0,0.0,0.0,0.0,0.0,0.0,0.0,0.0,0.0,0.0,0.0,0.0,0.0,0.0,0.0,0.0,0.0,0.0,-5.4538,-5.5771,-5.5435,-5.3148,-5.3483,-5.2451,-4.9877,-5.1016,-5.2024,-5.2823,-5.3192,-5.3819,-5.4587,-5.539,-5.4838,-5.3281,-5.2703,-5.1825,-5.087,-5.1147,-5.1774,-5.2528,-5.2829,-5.2929,-5.2879,-5.2603,0.0,0.0,0.0,0.0,0.0,0.0,0.0,-5.2553,-5.2854,0.0,0.0,0.0,0.0,0.0,0.0,0.0,0.0,0.0,-6.6363,-6.6915,-6.6639,-6.7919,-6.9074,-6.9049,-6.8145,-6.7141,-6.6262,-6.5459,-6.4831,-6.4505,-6.4002,-6.3776,-6.4053,-6.3626,-6.3375,-6.3651,-6.2923,-6.2571,-6.2873,-6.237,-6.2144,-6.2421,-6.2446,-6.2446,-6.2446,-6.2446,-6.2169,-6.1617,-6.1617,-6.1466,-6.119,-6.0889,-6.0487,-6.001,-6.0537,-6.0638,-6.0387,-6.0387,-6.0387,-6.0387,-6.0387,-6.0387,-6.0387,-6.0387,-6.0186,-5.9935,-5.9935,-5.9935,-6.001,0.0,0.0,0.0,0.0,0.0,0.0,0.0,0.0,0.0,0.0,0.0,0.0,0.0,0.0,0.0,0.0,0.0,0.0,0.0,0.0,0.0,0.0,-5.4678,-5.3524,-4.9884,-5.0684,-4.9716,-4.6878,-4.7154,-4.8985,-5.2346,-5.2174,-5.298,-5.4612,-5.5892,-5.5189,-5.3055,-5.3105,-5.2352,-5.1122,-5.1122,-5.18,-5.2779,-5.2779,-5.2854,-5.2929,-5.2929,-5.2929,-5.2929,-5.2929,0.0,0.0,0.0,0.0,-5.2929,-5.2929,0.0,0.0,0.0,0.0,0.0,0.0,0.0,0.0,0.0,0.0,-6.6287,-6.5333,-6.6413,-6.7618,-6.7995,-6.6915,-6.5911,-6.5735,-6.458,-6.3802,-6.4128,-6.34,-6.2998,-6.3475,-6.3124,-6.2797,-6.2697,-6.227,-6.1969,-6.1868,-6.1441,-6.1391,-6.1843,-6.1868,-6.1868,-6.1868,-6.1868,-6.1592,-6.104,-6.0939,-6.0839,-6.0738,-6.0186,-5.9433,-5.8604,-5.9508,-5.9659,-5.9207,-5.9207,-5.9207,-5.9207,-5.9207,-5.9207,-5.9207,-5.9207,-5.9207,-5.9232,-5.9332,-5.9357,-5.9458,0.0,0.0,0.0,0.0,0.0,0.0,0.0,0.0,0.0,0.0,-5.3473,0.0,0.0,0.0,0.0,0.0,0.0,0.0,0.0,0.0,0.0,0.0,-5.2991,-5.2681,-5.1716,-5.0982,-5.0106,-4.9163,-4.8259,0.0,0.0,-5.1867,-5.298,-5.4561,-5.426,-5.3934,-5.3482,-5.1624,-5.072,-5.0519,-5.0519,-5.1222,-5.2226,-5.2226,-5.2503,-5.2929,-5.2929,-5.2929,-5.2929,-5.2929,-5.2929,0.0,0.0,0.0,-5.2929,0.0,0.0,0.0,0.0,0.0,0.0,0.0,0.0,0.0,0.0,0.0,-6.4756,0.0,-6.5509,-6.6212,-6.581,-6.5559,-6.5082,-6.4178,-6.3827,-6.355,-6.3099,-6.2923,-6.2847,-6.2923,-6.2873,-6.2647,-6.2169,-6.2044,-6.1818,-6.1341,-6.1215,-6.1215,-6.1291,-6.1291,-6.1291,-6.1291,-6.1291,-6.1014,-6.0437,-5.996,-5.9483,-5.9056,-5.8478,-5.8152,-5.8001,-5.8152,-5.8177,-5.8102,-5.8102,-5.8102,-5.8102,-5.8102,-5.8102,-5.8102,-5.8102,-5.8102,-5.8177,-5.8654,-5.883,-5.8956,0.0,0.0,0.0,0.0,0.0,0.0,0.0,0.0,0.0,0.0,0.0,-5.3092,0.0,0.0,0.0,0.0,0.0,0.0,0.0,0.0,0.0,0.0,-5.0775,-5.0339,-4.9312,-4.8823,-4.8483,-4.8209,0.0,0.0,0.0,-5.185,-5.2653,-5.3632,-5.3381,-5.2929,-5.2277,-5.1322,-5.072,-5.0419,-5.0419,-5.0921,-5.1649,-5.1649,-5.18,-5.2051,-5.2352,-5.2477,-5.2528,-5.2829,-5.2929,-5.2929,-5.2929,0.0,0.0,0.0,0.0,0.0,0.0,0.0,0.0,0.0,0.0,0.0,0.0,0.0,-6.3952,-6.3626,-6.4178,-6.4781,-6.4831,-6.458,-6.4228,-6.3776,-6.3425,-6.3124,-6.2873,-6.2571,-6.237,-6.237,-6.2094,-6.1818,-6.1567,-6.124,-6.0964,-6.0713,-6.0412,-6.0362,-6.0688,-6.0688,-6.0563,-6.0236,-6.0236,-5.9834,-5.8956,-5.873,-5.8478,-5.8252,-5.7675,-5.7424,-5.7399,-5.6771,-5.6997,-5.7901,-5.7901,-5.7901,-5.7901,-5.7901,-5.7901,-5.7901,-5.7901,-5.7901,-5.7926,-5.8177,-5.8252,-5.8378,0.0,0.0,0.0,0.0,0.0,0.0,0.0,0.0,0.0,0.0,0.0,0.0,0.0,0.0,0.0,0.0,0.0,0.0,0.0,0.0,0.0,0.0,0.0,-4.8034,-4.6928,-4.6928,-4.7054,0.0,0.0,0.0,-5.1498,-5.2051,-5.2754,-5.3557,-5.3406,-5.2879,-5.2101,-5.1674,-5.1322,-5.0996,-5.0444,-5.0544,-5.1071,-5.1071,-5.1147,-5.1348,-5.1749,-5.19,-5.1975,-5.2528,-5.2729,-5.2754,-5.2879,-5.2929,0.0,0.0,0.0,0.0,0.0,0.0,0.0,0.0,0.0,0.0,0.0,0.0,-6.2948,0.0,-6.2747,-6.3174,-6.3576,-6.355,-6.3475,-6.3475,-6.2873,-6.2446,-6.2596,-6.2144,-6.1793,-6.1793,-6.1441,-6.1065,-6.0788,-6.0362,-5.9985,-5.9734,-5.9332,-5.9282,-5.9684,-5.9834,-5.9659,-5.9106,-5.9232,-5.8855,-5.7901,-5.76,-5.7399,-5.7248,-5.6821,-5.662,-5.6595,-5.5767,-5.5993,-5.7047,-5.7047,-5.7123,-5.7248,-5.7248,-5.7349,-5.7474,-5.7474,-5.7474,-5.7474,-5.7625,-5.7675,-5.775,0.0,0.0,0.0,0.0,0.0,0.0,0.0,0.0,0.0,0.0,0.0,0.0,-5.0823,-5.0768,-5.0157,-4.8877,0.0,0.0,0.0,0.0,0.0,0.0,0.0,0.0,0.0,0.0,0.0,0.0,0.0,0.0,-5.2076,-5.2628,-5.3733,-5.5239,-5.4712,-5.4436,-5.4285,-5.2729,-5.2352,-5.2603,-5.0494,-4.9967,-5.0469,-5.0469,-5.0795,-5.1272,-5.1322,-5.1322,-5.1398,-5.1975,-5.2151,-5.2226,-5.2754,-5.2929,-5.2929,0.0,0.0,0.0,0.0,0.0,0.0,0.0,0.0,0.0,0.0,0.0,0.0,-6.1266,-6.1291,-6.1316,-6.1341,-6.2195,-6.2873,-6.2873,-6.1969,-6.1441,-6.1969,-6.1567,-6.1215,-6.1215,-6.119,-6.0763,-5.9684,-5.9558,-5.9106,-5.8102,-5.8001,-5.8001,-5.8027,-5.8529,-5.8554,-5.8001,-5.8504,-5.8478,-5.7901,-5.6846,-5.6043,-5.5516,-5.5491,-5.5465,-5.5465,-5.5415,-5.5139,-5.4737,-5.4737,-5.5039,-5.5516,-5.5516,-5.5817,-5.6294,-5.6294,-5.6294,-5.6369,-5.6897,-5.7072,-5.7173,0.0,0.0,0.0,0.0,0.0,0.0,0.0,0.0,0.0,0.0,0.0,0.0,0.0,-4.8447,-4.8009,-4.8474,-4.7652,0.0,0.0,0.0,0.0,0.0,0.0,0.0,0.0,0.0,0.0,0.0,0.0,-4.954,-5.1599,-5.2151,-5.308,-5.431,-5.4486,-5.4361,-5.3909,-5.2277,-5.1473,-5.1222,-5.0067,-4.9715,-4.9891,-4.9891,-5.0017,-5.0243,-5.0594,-5.072,-5.082,-5.1373,-5.1574,-5.1674,-5.2226,-5.2402,-5.2477,-5.2829,0.0,0.0,0.0,0.0,0.0,0.0,0.0,0.0,0.0,-5.8805,-5.9608,-5.9608,-6.0161,-6.0638,-6.0638,-6.124,-6.1768,-6.1768,-6.114,-6.0688,-6.0889,-6.0437,-5.9985,-5.9633,-5.9608,-5.9307,-5.8554,-5.8478,-5.8303,-5.7926,-5.7901,-5.7901,-5.7901,-5.7725,-5.7374,-5.6846,-5.6671,-5.6319,-5.5767,-5.5365,-5.5064,-5.4863,-5.4863,-5.4863,-5.4838,-5.4486,-5.421,-5.3984,-5.3658,-5.4034,-5.4863,-5.4863,-5.4988,-5.5189,-5.5541,-5.5691,-5.5742,-5.6294,-5.652,-5.6595,0.0,0.0,0.0,0.0,0.0,0.0,0.0,0.0,0.0,-4.7977,0.0,0.0,0.0,0.0,-4.6695,-4.771,-4.6874,-4.6301,-4.6301,0.0,0.0,0.0,0.0,0.0,0.0,0.0,0.0,0.0,0.0,0.0,0.0,-5.185,-5.2678,-5.3708,-5.3909,-5.421,-5.4461,-5.3206,-5.2327,-5.1724,-5.0594,-5.0167,-5.0193,-5.0368,-5.0318,-5.0218,-5.0569,-5.072,-5.0745,-5.0921,-5.1122,-5.1373,-5.1925,-5.2226,-5.2452,-5.2829,-5.2929,0.0,-5.2477,0.0,0.0,0.0,0.0,0.0,0.0,0.0,-5.76,-5.76,-5.8303,-5.9006,-5.9182,-5.9533,-6.0085,-6.104,-6.0236,-5.9633,-5.9985,-5.9408,-5.883,-5.8478,-5.8278,-5.7951,-5.7374,-5.7173,-5.6972,-5.6796,-5.6771,-5.6771,-5.6771,-5.6595,-5.6319,-5.5942,-5.539,-5.4838,-5.4285,-5.4285,-5.4285,-5.4285,-5.4285,-5.4285,-5.426,-5.3884,-5.3607,-5.3432,-5.308,-5.3432,-5.4285,-5.4285,-5.4386,-5.4683,-5.4963,-5.5114,-5.5189,-5.5742,-5.5942,-5.6018,0.0,0.0,0.0,0.0,0.0,0.0,0.0,0.0,-4.7919,-4.6481,0.0,0.0,0.0,0.0,0.0,-4.6326,-4.6326,-4.6326,-4.6301,-4.6301,0.0,0.0,0.0,0.0,0.0,0.0,0.0,0.0,0.0,0.0,0.0,0.0,-5.2628,-5.3607,-5.313,-5.411,-5.6043,-5.5491,-5.4938,-5.431,-5.2126,-5.1272,-5.1348,-5.185,-5.1724,-5.1272,-5.1272,-5.1272,-5.1197,-5.0619,-5.082,-5.1373,-5.1925,-5.2452,-5.2904,-5.2904,-5.2904,-5.2929,0.0,0.0,0.0,0.0,0.0,0.0,-5.3482,0.0,-5.529,-5.5315,-5.5767,-5.6344,-5.6872,-5.6972,-5.7876,-6.0588,-5.9257,-5.8227,-5.9257,-5.8504,-5.7851,-5.7801,-5.7323,-5.6771,-5.6219,-5.5666,-5.5139,-5.4612,-5.4561,-5.4561,-5.4561,-5.5064,-5.534,-5.5315,-5.4787,-5.4235,-5.3683,-5.3683,-5.3683,-5.3683,-5.3683,-5.3683,-5.3683,-5.3683,-5.3406,-5.2929,-5.2929,-5.3206,-5.3683,-5.3683,-5.4009,-5.4511,-5.4607,-5.4536,-5.4612,-5.5189,-5.539,-5.5465,0.0,0.0,0.0,0.0,0.0,0.0,0.0,-4.6934,-4.6755,0.0,0.0,0.0,-4.7018,-4.733,-4.7305,-4.6928,-4.6903,-4.6728,-4.6326,-4.6301,-4.6301,-4.6301,-4.6301,0.0,0.0,0.0,0.0,0.0,0.0,0.0,0.0,0.0,0.0,0.0,-5.2628,-5.303,-5.3181,-5.2201,-5.2176,-5.2653,-5.1222,-5.0921,-5.1247,-5.0996,-5.1046,-5.1222,-5.082,-5.0921,-5.1247,-5.1096,-5.1147,-5.1297,-5.1448,-5.19,-5.2327,-5.2327,-5.2628,-5.2829,-5.2452,0.0,0.0,0.0,0.0,0.0,-5.1297,0.0,-5.313,-5.3532,-5.4361,-5.5189,-5.5742,-5.5842,-5.6219,-5.7399,-5.7424,-5.7248,-5.7148,-5.6872,-5.6369,-5.5591,-5.5691,-5.5616,-5.5064,-5.4888,-5.4737,-5.4587,-5.4561,-5.4561,-5.4561,-5.431,-5.3984,-5.3632,-5.3457,-5.3306,-5.313,-5.313,-5.313,-5.313,-5.313,-5.313,-5.313,-5.313,-5.3055,-5.2929,-5.2929,-5.3005,-5.313,-5.313,-5.3231,-5.3406,-5.3808,-5.3934,-5.4059,-5.5039,-5.539,-5.5465,0.0,0.0,0.0,0.0,0.0,0.0,0.0,-4.6301,-4.6301,0.0,0.0,0.0,-4.7018,-4.8008,-4.8309,-4.7531,-4.7054,-4.6753,-4.6652,-4.6225,-4.6075,-4.6301,-4.6527,-4.6903,0.0,0.0,0.0,0.0,0.0,0.0,0.0,0.0,0.0,0.0,0.0,0.0,-5.1348,-5.0444,-5.087,-5.2076,-5.1624,-5.1674,-5.195,-5.1825,-5.1875,-5.1925,-5.1574,-5.1825,-5.2201,-5.1498,-5.1448,-5.1574,-5.1348,-5.1825,-5.2352,-5.19,-5.2327,-5.2804,-5.2251,-5.1875,-5.1599,-5.1498,0.0,0.0,-5.072,-5.1096,-5.1498,0.0,-5.2578,-5.3356,-5.3909,-5.421,-5.4536,-5.5064,-5.5641,-5.5968,-5.5892,-5.5666,-5.529,-5.4637,-5.4637,-5.4561,-5.4235,-5.4009,-5.3884,-5.3884,-5.3884,-5.3884,-5.3884,-5.3557,-5.3231,-5.2929,-5.2929,-5.2929,-5.2929,-5.2929,-5.2929,-5.2929,-5.2929,-5.2929,-5.2929,-5.2929,-5.2929,-5.2929,-5.2929,-5.2929,-5.2929,-5.2929,-5.2929,-5.2955,-5.3256,-5.3381,-5.3482,-5.4361,-5.4838,-5.5114,0.0,0.0,0.0,0.0,0.0,0.0,0.0,0.0,-4.6351,0.0,-4.6602,-4.6853,-4.7355,-4.8761,-4.9238,-4.8109,-4.7029,-4.6577,-4.7004,-4.6075,-4.5723,-4.6276,-4.6778,-4.7305,0.0,0.0,0.0,0.0,0.0,0.0,0.0,0.0,0.0,0.0,0.0,0.0,-5.0218,-4.9841,-5.0469,-5.18,-5.2477,-5.2779,-5.2879,-5.3356,-5.3281,-5.2929,-5.2854,-5.3181,-5.3406,-5.195,-5.1699,-5.1925,-5.1448,-5.1925,-5.2477,-5.1548,-5.2026,-5.2754,-5.2302,-5.2151,-5.2226,-5.2703,-5.1674,0.0,-5.1071,-5.0795,-5.0419,0.0,-5.082,-5.1348,-5.1925,-5.2427,-5.2904,-5.3356,-5.3909,-5.4511,-5.5114,-5.4787,-5.4436,-5.4386,-5.3934,-5.3607,-5.3607,-5.3206,-5.2929,-5.2929,-5.2929,-5.2929,-5.2929,-5.2929,-5.2929,-5.2929,-5.2929,-5.2929,-5.2929,-5.2929,-5.2929,-5.2929,-5.2929,-5.2929,-5.2929,-5.2929,-5.2929,-5.2929,-5.2929,-5.2929,-5.2929,-5.2929,-5.2929,-5.2929,-5.2929,-5.2929,-5.298,-5.3507,-5.4034,-5.4561,0.0,0.0,0.0,0.0,0.0,0.0,0.0,0.0,-4.6627,-4.7481,-4.8385,-4.8987,-4.9113,-4.9791,-4.9816,-4.8711,-4.7606,-4.6828,-4.6502,-4.5849,-4.5723,-4.6276,-4.6426,-4.6928,-4.7883,0.0,0.0,0.0,0.0,0.0,0.0,0.0,0.0,0.0,0.0,0.0,-4.9138,-4.9916,-4.9941,-4.954,-5.1021,-5.1875,-5.2277,-5.2377,-5.2628,-5.2879,-5.2427,-5.2628,-5.303,-5.2703,-5.2076,-5.1423,-5.1322,-5.1122,-5.0946,-5.1197,-5.1749,-5.2327,-5.2678,-5.2452,-5.2126,-5.2226,-5.1674,0.0,-5.067,-5.0494,-5.0419,0.0,-5.0494,-5.077,-5.1348,-5.1523,-5.1649,-5.1749,-5.2226,-5.2929,-5.3909,-5.3934,-5.3708,-5.3306,-5.3155,-5.308,-5.308,-5.298,-5.2929,-5.2929,-5.2929,-5.2929,-5.2929,-5.2929,-5.2929,-5.2929,-5.2929,-5.2929,-5.2929,-5.2929,-5.2929,-5.2929,-5.2929,-5.2929,-5.2929,-5.2929,-5.2929,-5.2929,-5.2929,-5.2929,-5.2929,-5.2929,-5.2929,-5.2929,-5.2929,-5.2929,-5.298,-5.3507,-5.3758,-5.4009,0.0,0.0,0.0,0.0,0.0,0.0,0.0,0.0,0.0,-4.7807,-4.8887,-4.949,-4.9213,-4.9665,-4.9565,-4.8435,-4.7104,-4.6301,-4.6301,-4.5271,-4.502,-4.5874,-4.6175,-4.6803,-4.7883,-4.8184,0.0,0.0,0.0,0.0,0.0,0.0,0.0,0.0,0.0,0.0,0.0,-4.949,-4.9439,-4.9339,-5.1021,-5.1699,-5.1749,-5.2302,-5.2678,-5.2879,-5.2628,-5.2678,-5.2929,-5.2929,-5.2553,-5.2,-5.1448,-5.1473,-5.1574,-5.1021,-5.1649,-5.2452,-5.2176,-5.2302,-5.2528,-5.2528,-5.2101,0.0,0.0,-5.0619,-5.0343,-5.0067,-5.0017,-5.0092,-5.0393,-5.067,-5.0845,-5.0845,-5.1322,-5.1875,-5.2427,-5.298,-5.3231,-5.2955,-5.2929,-5.2929,-5.2929,-5.2929,-5.2929,-5.2929,-5.2929,-5.2929,-5.2929,-5.2929,-5.2929,-5.2929,-5.2929,-5.2929,-5.2929,-5.2929,-5.2929,-5.2929,-5.2929,-5.2929,-5.2929,-5.2929,-5.2929,-5.2929,-5.2929,-5.2929,-5.2929,-5.2929,-5.2929,-5.2929,-5.2929,-5.2929,-5.2955,-5.3231,-5.3482,-5.3783,-4.5296,-4.5321,0.0,0.0,0.0,0.0,0.0,0.0,0.0,0.0,-4.8962,-4.9464,-4.9113,-4.9289,-4.9163,-4.846,-4.6502,-4.5648,-4.6426,-4.4794,-4.4267,-4.5271,-4.5849,-4.6602,-4.7581,-4.8159,0.0,0.0,0.0,0.0,0.0,0.0,0.0,0.0,0.0,0.0,0.0,-4.8962,-4.8912,-4.9264,-5.0946,-5.1348,-5.1096,-5.2302,-5.2703,-5.2628,-5.2854,-5.2929,-5.2929,-5.2929,-5.2854,-5.2603,-5.1724,-5.1975,-5.2377,-5.1096,-5.1699,-5.2603,-5.18,-5.2251,-5.2929,-5.2929,-5.2578,-5.2101,0.0,0.0,0.0,-4.9715,-4.959,-4.959,0.0,0.0,-5.0193,-4.9967,-5.0594,-5.1046,-5.082,-5.185,-5.2653,-5.2754,-5.2678,-5.2653,-5.2754,-5.2678,-5.2603,-5.2603,-5.2703,-5.2729,-5.2628,-5.2804,-5.2879,-5.2779,-5.2879,-5.2929,-5.2929,-5.2929,-5.2929,-5.2929,-5.2929,-5.2929,-5.2929,-5.2929,-5.2879,-5.2779,-5.2779,-5.2779,-5.2779,-5.2779,-5.2829,-5.2929,-5.2929,-5.2929,-5.2929,-5.2929,-5.3181,-5.3557,-4.4618,-4.4719,0.0,0.0,0.0,0.0,0.0,0.0,0.0,0.0,-4.9213,-4.9766,-5.0193,-4.9414,-4.9213,-5.0067,-4.6828,-4.5372,-4.6928,-4.4995,-4.4066,-4.4694,-4.5271,-4.5874,-4.6476,-4.7029,-4.7581,0.0,0.0,0.0,0.0,0.0,0.0,0.0,-4.8862,-4.8862,-4.8862,-4.8786,-4.8234,-4.7556,-4.9213,-4.9841,-4.9967,-5.1574,-5.19,-5.1599,-5.2578,-5.2929,-5.2929,-5.2929,-5.2603,-5.2176,-5.2051,-5.1749,-5.1523,-5.1825,-5.2051,-5.2277,-5.2628,-5.2829,-5.2929,-5.2929,-5.2879,-5.2553,-5.1523,0.0,-5.087,-4.9816,0.0,-4.959,-4.959,0.0,0.0,-4.836,-4.949,-5.0167,-4.9188,-5.0444,-5.1649,-5.2126,-5.1774,-5.1649,-5.2151,-5.1749,-5.1473,-5.1473,-5.1925,-5.1975,-5.1498,-5.2402,-5.2703,-5.2226,-5.2678,-5.2929,-5.2929,-5.2929,-5.2929,-5.2929,-5.2929,-5.2929,-5.2929,-5.2929,-5.2653,-5.2201,-5.2201,-5.2201,-5.2201,-5.2201,-5.2477,-5.2929,-5.2929,-5.2929,-5.2929,-5.2929,-5.2955,-5.308,-4.3489,-4.3915,-4.4141,0.0,0.0,0.0,0.0,0.0,0.0,0.0,-4.9464,-4.9816,-5.0368,-4.9715,-4.9314,-4.9439,-4.738,-4.61,-4.6175,-4.4694,-4.4041,-4.4593,-4.4844,-4.5547,-4.6753,-4.6943,-4.738,0.0,-4.7908,0.0,0.0,0.0,0.0,0.0,-4.8611,-4.8761,-4.8761,-4.8761,-4.851,-4.8134,-4.8837,-4.8912,-4.8837,-5.087,-5.1674,-5.1825,-5.2277,-5.2653,-5.2879,-5.2553,-5.2503,-5.2477,-5.1825,-5.19,-5.2151,-5.1749,-5.2076,-5.2578,-5.2477,-5.2678,-5.2929,-5.2929,-5.2929,-5.2729,-5.195,-5.1749,-5.1523,-5.0745,0.0,0.0,0.0,0.0,0.0,0.0,-4.9741,-5.0142,-4.9364,-4.9866,-5.0619,-5.1523,-5.1423,-5.1373,-5.1599,-5.1423,-5.1272,-5.1272,-5.1498,-5.1523,-5.1297,-5.1724,-5.2026,-5.2101,-5.2026,-5.2126,-5.2452,-5.2126,-5.1975,-5.1975,-5.1975,-5.2126,-5.2452,-5.2452,-5.2327,-5.2126,-5.2452,-5.2402,-5.2126,-5.2452,-5.2729,-5.2929,-5.2929,-5.2929,-5.2929,-5.2929,-5.2929,-5.2955,-4.2384,-4.2961,-4.3338,-4.3338,0.0,0.0,0.0,0.0,-4.8309,-4.8837,-4.9038,-4.9414,-5.0117,-4.969,-4.9464,-4.9665,-4.8259,-4.7004,-4.62,-4.5121,-4.4392,-4.4192,-4.4618,-4.5296,-4.62,-4.6527,-4.6878,0.0,0.0,0.0,0.0,0.0,0.0,0.0,0.0,-4.8761,-4.8786,-4.8937,-4.8812,-4.8535,-4.8535,-4.8284,-4.8109,-5.0067,-5.1247,-5.1875,-5.1875,-5.2126,-5.2427,-5.2176,-5.2377,-5.2578,-5.195,-5.2176,-5.2553,-5.1749,-5.2076,-5.2578,-5.2026,-5.2277,-5.2703,-5.2703,-5.2578,-5.2402,-5.2176,-5.2,-5.1774,-5.1373,-5.0946,0.0,0.0,0.0,-5.0419,-4.9715,0.0,-5.0167,-4.9464,-4.949,-4.9967,-5.0921,-5.1046,-5.0996,-5.0845,-5.0695,-5.0594,-5.0594,-5.0745,-5.0745,-5.0594,-5.1021,-5.1398,-5.1624,-5.1398,-5.1473,-5.1875,-5.1473,-5.1272,-5.1272,-5.1272,-5.1498,-5.1875,-5.1875,-5.18,-5.1674,-5.2226,-5.2251,-5.1925,-5.2477,-5.2779,-5.2929,-5.2929,-5.2929,-5.2929,-5.2929,-5.2929,-5.2929,-4.1326,-4.1831,-4.2263,-4.2263,-4.3087,0.0,0.0,-4.6024,-4.6577,-4.7093,-4.7657,-4.8385,-4.949,-4.9138,-4.9665,-5.1825,-4.9464,-4.7857,-4.7832,-4.6828,-4.5271,-4.3112,-4.4593,-4.497,-4.394,-4.497,-4.5547,0.0,0.0,0.0,0.0,0.0,0.0,0.0,-4.8284,-4.8761,-4.8812,-4.9339,-4.8937,-4.7933,-4.7933,-4.7933,-4.8033,-4.9213,-5.0343,-5.1297,-5.1297,-5.1322,-5.1423,-5.1925,-5.2126,-5.2226,-5.2729,-5.2528,-5.2126,-5.2076,-5.2101,-5.2026,-5.1448,-5.1699,-5.2126,-5.2126,-5.1724,-5.1473,-5.2,-5.1699,-5.1297,-5.1272,-5.1272,-5.1247,-5.1247,-5.1247,-5.0896,-4.9766,-5.0067,0.0,0.0,-4.9264,-4.9816,-5.0368,-5.0444,-5.0243,-4.969,-4.9163,-4.8862,-4.8862,-4.9339,-4.9414,-4.8887,-5.0393,-5.1021,-5.0494,-5.0996,-5.1297,-5.1297,-5.1297,-5.1272,-5.1272,-5.1272,-5.1297,-5.1297,-5.1297,-5.0996,-5.0494,-5.1071,-5.1322,-5.1348,-5.19,-5.2452,-5.2929,-5.2929,-5.2929,-5.2929,-5.2929,-5.2929,-5.2929,-4.0727,-4.1229,-4.1831,-4.2615,-4.2766,-4.3087,-4.4192,-4.5171,-4.6225,-4.7481,-4.846,-4.9741,-5.1599,-5.195,-5.2201,-5.2628,-5.1448,-5.0218,-4.9088,-4.7657,-4.6527,-4.5773,-4.5924,-4.5673,-4.492,-4.5648,-4.5849,-4.5497,-4.5497,0.0,0.0,0.0,0.0,0.0,0.0,-4.7682,-4.7732,-4.8259,-4.8058,-4.738,-4.738,-4.8058,-4.8987,-4.8611,-4.8962,-4.9665,-5.0042,-5.0393,-5.0795,-5.1373,-5.1548,-5.1599,-5.1774,-5.1699,-5.1548,-5.1548,-5.1825,-5.2076,-5.1875,-5.2226,-5.2553,-5.2201,-5.1975,-5.1774,-5.1599,-5.1699,-5.1825,-5.1825,-5.1548,-5.1398,-5.1749,-5.1222,-5.0594,-5.0193,-5.0293,-5.0167,0.0,-4.949,-4.9665,-4.9841,-4.9866,-4.9665,-4.9113,-4.8887,-4.8611,-4.8234,-4.8385,-4.856,-4.8761,-4.9314,-4.9866,-5.0393,-5.0243,-5.0343,-5.0695,-5.0343,-5.0167,-5.0167,-5.0167,-5.0544,-5.1272,-5.1272,-5.1373,-5.1574,-5.2126,-5.2176,-5.1875,-5.2427,-5.2754,-5.2929,-5.2929,-5.2929,-5.2929,-5.2929,-5.2929,-5.298,-4.045,-4.0651,-4.1103,-4.2208,-4.2313,-4.2439,-4.3112,-4.4669,-4.615,-4.7205,-4.9012,-5.082,-5.2452,-5.3281,-5.3557,-5.3231,-5.2879,-5.1724,-4.9439,-4.8862,-4.7983,-4.6602,-4.6753,-4.6451,-4.5497,-4.6024,-4.605,-4.5497,-4.5497,-4.5773,0.0,0.0,0.0,0.0,0.0,-4.7205,-4.6903,-4.7832,-4.7807,-4.7043,-4.6928,-4.7481,-4.836,-4.7606,-4.8058,-4.9063,-4.9012,-4.9364,-4.9916,-5.0494,-5.082,-5.1021,-5.1222,-5.1272,-5.1272,-5.1272,-5.1674,-5.2076,-5.1875,-5.2226,-5.2553,-5.2201,-5.195,-5.1774,-5.1599,-5.1699,-5.18,-5.18,-5.1523,-5.1398,-5.1749,-5.1222,-5.072,-5.072,-5.0544,-5.0218,0.0,-4.959,-4.959,-4.959,-4.959,-4.9389,-4.8837,-4.8586,-4.8234,-4.7682,-4.7631,-4.7883,-4.8435,-4.8661,-4.9188,-5.0092,-4.9791,-4.9766,-5.0117,-4.9766,-4.959,-4.959,-4.959,-5.0067,-5.0971,-5.0971,-5.1272,-5.185,-5.2402,-5.2427,-5.2151,-5.2703,-5.2929,-5.2929,-5.2929,-5.2929,-5.2929,-5.2929,-5.2929,-5.298,-4.0501,-4.0099,-4.0074,-4.11,-4.1781,-4.2213,-4.2213,-4.4493,-4.6301,-4.6376,-4.9238,-5.1498,-5.2126,-5.3105,-5.3733,-5.3708,-5.3708,-5.2352,-4.9188,-5.0419,-4.964,-4.5924,-4.7205,-4.723,-4.5648,-4.61,-4.61,-4.5573,-4.5497,0.0,0.0,0.0,0.0,0.0,-4.7079,0.0,-4.6376,-4.7983,-4.8033,-4.7004,-4.6476,-4.6276,-4.6301,-4.625,-4.7581,-4.9339,-4.8259,-4.8234,-4.8786,-4.9339,-4.9866,-5.0393,-5.0996,-5.1172,-5.1172,-5.1222,-5.1599,-5.1925,-5.1423,-5.1674,-5.2076,-5.2101,-5.1699,-5.1423,-5.19,-5.1624,-5.1272,-5.1247,-5.1247,-5.1247,-5.1272,-5.1247,-5.1197,-5.1247,-5.0745,-5.0193,-4.9665,-4.959,-4.959,-4.959,-4.9565,-4.9339,-4.8786,-4.8209,-4.7657,-4.7068,-4.7043,-4.733,-4.7883,-4.8435,-4.8987,-4.9565,-4.959,-4.959,-4.959,-4.959,-4.959,-4.959,-4.959,-4.9891,-5.0469,-5.0469,-5.0795,-5.1398,-5.1925,-5.2151,-5.2176,-5.2703,-5.2929,-5.2929,-5.2929,-5.2929,-5.2929,-5.2929,-5.2929,-5.2929,-4.0425,-4.04,-4.0526,-4.1175,-4.1781,-4.2213,-4.2213,-4.4166,-4.6125,-4.733,-4.9715,-5.18,-5.3155,-5.3934,-5.416,-5.3733,-5.3708,-5.3181,-5.195,-5.1498,-5.0845,-4.9841,-4.9389,-4.8586,-4.7305,-4.7054,-4.6853,-4.6702,-4.5447,0.0,-4.6276,0.0,0.0,0.0,0.0,-4.5949,-4.5748,-4.6577,-4.6552,-4.5899,-4.5748,-4.5949,-4.6225,-4.5372,-4.6175,-4.7732,-4.7431,-4.7431,-4.7631,-4.8159,-4.8435,-4.8736,-4.9715,-4.9741,-4.959,-5.0393,-5.0745,-5.0921,-5.1197,-5.1398,-5.1599,-5.2,-5.1699,-5.1197,-5.0921,-5.1071,-5.1147,-5.072,-5.0645,-5.077,-5.1197,-5.0594,-5.0167,-5.0569,-5.0167,-4.9766,-4.9615,-4.959,-4.959,-4.959,-4.9238,-4.8761,-4.8184,-4.7657,-4.7104,-4.6577,-4.6527,-4.6928,-4.7857,-4.8058,-4.8586,-4.9565,-4.959,-4.959,-4.959,-4.959,-4.959,-4.959,-4.959,-5.0117,-5.1046,-5.1046,-5.1599,-5.2528,-5.2653,-5.2703,-5.2729,-5.2879,-5.2929,-5.2929,-5.2929,-5.2929,-5.2929,-5.2929,-5.2929,-5.2929,-4.0149,-4.035,-4.0626,-4.0874,-4.2032,-4.2961,-4.3187,-4.4292,-4.5698,-4.7355,-4.9515,-5.1247,-5.2176,-5.3632,-5.4336,-5.3758,-5.3708,-5.3281,-5.2277,-5.2076,-5.1674,-5.0946,-5.0293,-4.9439,-4.8309,-4.7531,-4.7029,-4.6778,-4.5095,0.0,-4.5924,0.0,0.0,0.0,0.0,-4.5347,-4.5146,-4.5723,-4.5899,-4.5799,-4.5321,-4.5296,0.0,-4.4869,-4.5221,-4.605,-4.605,-4.6502,-4.7179,-4.7481,-4.7732,-4.8008,-4.8661,-4.8812,-4.8937,-4.9816,-5.0218,-5.0544,-5.1122,-5.1272,-5.1348,-5.1674,-5.1498,-5.1122,-5.0544,-5.067,-5.0745,-5.0167,-5.0067,-5.0167,-5.0494,-5.0017,-4.969,-5.0017,-4.9791,-4.959,-4.959,-4.959,-4.959,-4.959,-4.9113,-4.8535,-4.7958,-4.7431,-4.6903,-4.6351,-4.6301,-4.6677,-4.7531,-4.7782,-4.8309,-4.9213,-4.9715,-4.9841,-4.959,-4.9841,-4.9841,-4.959,-4.959,-5.0193,-5.1272,-5.1272,-5.1875,-5.2929,-5.2929,-5.2929,-5.2929,-5.2929,-5.2929,-5.2929,-5.2929,-5.2929,-5.2929,-5.2929,-5.2929,-5.2929,-3.9798,-4.0149,-4.0526,-4.0526,-4.2283,-4.3966,-4.4819,-4.5146,-4.5824,-4.7294,-4.9414,-5.0745,-5.0745,-5.2904,-5.416,-5.3632,-5.3607,-5.3005,-5.1599,-5.2327,-5.2176,-5.0695,-5.0494,-4.9941,-4.8912,-4.7732,-4.6853,-4.6301,-4.4543,0.0,0.0,0.0,0.0,0.0,0.0,0.0,0.0,-4.5171,-4.5598,-4.5899,-4.492,-4.4468,-4.4418,-4.4418,-4.4443,-4.4518,-4.4518,-4.5547,-4.6928,-4.6928,-4.7255,-4.7707,-4.7782,-4.8159,-4.8661,-4.9213,-4.9715,-5.0218,-5.087,-5.0996,-5.0996,-5.1222,-5.1222,-5.1046,-5.0519,-5.0419,-5.0268,-4.9715,-4.959,-4.959,-4.959,-4.959,-4.959,-4.959,-4.959,-4.959,-4.959,-4.959,-4.959,-4.959,-4.9113,0.0,-4.8083,-4.7481,-4.6903,-4.6351,-4.6301,-4.6552,-4.7043,-4.7631,-4.8184,-4.8761,-4.9766,-5.0117,-4.9715,-5.0117,-5.0117,-4.969,-4.9615,-5.0142,-5.1172,-5.1247,-5.185,-5.2829,-5.2904,-5.2929,-5.2929,-5.2929,-5.2929,-5.2929,-5.2929,-5.2929,-5.2929,-5.2929,-5.2929,-5.2929,-3.9722,-4.0149,-4.0526,-4.0526,-4.1957,-4.394,-4.6326,-4.7857,-4.8987,-4.9741,-5.1398,-5.2477,-5.2477,-5.2929,-5.3181,-5.308,-5.3055,-5.2929,-5.2653,-5.2402,-5.2126,-5.1825,-5.0921,-5.0117,-4.9464,-4.7933,-4.6853,-4.6301,-4.4166,-4.3212,0.0,0.0,0.0,0.0,0.0,0.0,-4.4644,-4.4744,-4.4568,-4.4217,-4.4016,-4.3664,-4.3263,-4.3263,-4.3539,-4.394,-4.394,-4.4719,-4.5773,-4.5773,-4.615,-4.6677,-4.7129,-4.733,-4.7531,-4.8058,-4.8259,-4.8586,-4.9615,-4.9565,-4.954,-5.0946,-5.0921,-5.0544,-5.0444,-5.0419,-5.0268,-4.9715,-4.959,-4.959,-4.959,-4.959,-4.959,-4.959,-4.959,-4.959,-4.959,-4.959,-4.959,-4.959,-4.9113,-4.8736,-4.8636,-4.7732,-4.6903,-4.6351,-4.6301,-4.6552,-4.7043,-4.7631,-4.8184,-4.8761,-4.9389,-4.9916,-5.0268,-4.9916,-4.9916,-5.0268,-4.9816,-4.9941,-5.0569,-5.1071,-5.1624,-5.2277,-5.2729,-5.2929,-5.2929,-5.2929,-5.2929,-5.2929,-5.2929,-5.2929,-5.2929,-5.2929,-5.2929,-5.2929,-4.0927,-4.0953,-4.1204,-4.2082,-4.3363,-4.5121,-4.7606,-4.9138,-5.0017,-4.9992,-5.0695,-5.1197,-5.1197,-5.2226,-5.2929,-5.2929,-5.2678,-5.2503,-5.2503,-5.1975,-5.1674,-5.1674,-5.087,-5.0017,-4.9188,-4.728,-4.5999,-4.5447,-4.2936,-4.1982,0.0,0.0,0.0,0.0,0.0,-4.3313,0.0,-4.4016,-4.394,-4.4192,-4.3614,-4.3212,-4.2986,-4.2986,-4.3137,-4.3363,-4.3363,-4.3915,-4.4694,-4.5296,-4.5673,-4.5974,-4.6527,-4.6702,-4.6803,-4.7355,-4.7506,-4.7757,-4.8862,-4.8987,-4.9038,-5.0142,-5.0193,-4.9992,-4.9992,-4.9992,-4.9916,-4.964,-4.959,-4.959,-4.959,-4.959,-4.959,-4.959,-4.959,-4.959,-4.959,-4.959,-4.949,-4.9213,-4.8937,-4.856,-4.7983,-4.7431,-4.6968,-4.6753,-4.6476,-4.6426,-4.6702,-4.7481,-4.8033,-4.8309,-4.9439,-5.0017,-4.9992,-5.0017,-5.0017,-4.9992,-4.9715,-5.0042,-5.087,-5.1147,-5.1749,-5.2553,-5.2804,-5.2929,-5.2929,-5.2929,-5.2929,-5.2929,-5.2929,-5.2929,-5.2929,-5.2929,-5.2929,-5.2929,-4.2263,-4.2082,-4.2308,-4.374,-4.502,-4.6451,-4.8309,-4.964,-5.0393,-5.0318,-5.0193,-5.0117,-5.0117,-5.1699,-5.2703,-5.2578,-5.2176,-5.1925,-5.1925,-5.1398,-5.1046,-5.0921,-5.0368,-4.949,-4.8284,-4.6326,-4.492,-4.4091,-4.1706,-4.0902,-4.1659,0.0,0.0,0.0,0.0,0.0,-4.4041,-4.3162,-4.3363,-4.4192,-4.3338,-4.2986,-4.2986,-4.2986,-4.2986,-4.2986,-4.2986,-4.3263,-4.379,-4.492,-4.5372,-4.5573,-4.5999,-4.6225,-4.6401,-4.6828,-4.6954,-4.7179,-4.8159,-4.851,-4.8711,-4.9289,-4.9515,-4.959,-4.959,-4.959,-4.959,-4.959,-4.959,-4.959,-4.959,-4.959,-4.959,-4.959,-4.959,-4.959,-4.959,-4.959,-4.9389,-4.8837,-4.8761,-4.8385,-4.738,-4.7143,-4.7068,-4.7068,-4.6627,-4.6301,-4.6301,-4.723,-4.7782,-4.7908,-4.9314,-4.9967,-4.9766,-5.0092,-5.0092,-4.9766,-4.964,-5.0117,-5.1096,-5.1222,-5.1825,-5.2754,-5.2879,-5.2929,-5.2929,-5.2929,-5.2929,-5.2929,-5.2929,-5.2929,-5.2929,-5.2929,-5.2929,-5.2929,-4.2785,-4.3263,-4.379,-4.4443,-4.5899,-4.7205,-4.7883,-4.9364,-5.0946,-5.2427,-5.2176,-5.1875,-5.1875,-5.2051,-5.1975,-5.1473,-5.1398,-5.1348,-5.1348,-5.082,-5.0268,-4.9766,-4.9213,-4.8184,-4.6577,-4.5347,-4.394,-4.2439,-4.1128,-4.0325,-3.9923,0.0,0.0,0.0,-4.1125,-4.1781,-4.2439,-4.2338,-4.264,-4.3112,-4.3011,-4.2986,-4.2986,-4.2986,-4.2986,-4.2986,-4.2986,-4.3011,-4.3212,-4.4342,-4.5045,-4.5497,-4.5547,-4.5899,-4.6326,-4.6376,-4.6376,-4.6527,-4.7129,-4.7631,-4.8134,-4.8711,-4.9213,-4.959,-4.959,-4.959,-4.959,-4.959,-4.959,-4.959,-4.959,-4.959,-4.959,-4.959,-4.959,-4.959,-4.959,-4.959,-4.9389,-4.8837,-4.8761,-4.851,-4.7908,-4.7405,-4.7068,-4.7068,-4.6627,-4.6301,-4.6301,-4.6878,-4.7431,-4.7883,-4.856,-4.9389,-5.0343,-4.9891,-4.9891,-5.0343,-4.9841,-4.9916,-5.0519,-5.1046,-5.1599,-5.2201,-5.2703,-5.2929,-5.2929,-5.2929,-5.2929,-5.2929,-5.2929,-5.2929,-5.2929,-5.2929,-5.2929,-5.2929,-4.4367,-4.4392,-4.4794,-4.6326,-4.6903,-4.7657,-4.9188,-4.9715,-5.0419,-5.1774,-5.1749,-5.1599,-5.1599,-5.1599,-5.1523,-5.1297,-5.0971,-5.077,-5.077,-5.0243,-4.9665,-4.9113,-4.8887,-4.8008,-4.6351,-4.5196,-4.3815,-4.2213,-4.1053,-4.0249,-3.9697,-3.9697,-3.9798,-4.0049,-4.0601,-4.1153,-4.1681,-4.2062,-4.2539,-4.2986,-4.2986,-4.2986,-4.2986,-4.2986,-4.2986,-4.2986,-4.2986,-4.2986,-4.3037,-4.3489,-4.4242,-4.5095,-4.5773,-4.6125,-4.6301,-4.6301,-4.6301,-4.6426,-4.6918,-4.728,-4.7657,-4.856,-4.8937,-4.9188,-4.9515,-4.959,-4.959,-4.959,-4.959,-4.959,-4.959,-4.959,-4.959,-4.959,-4.959,-4.959,-4.959,-4.959,-4.9264,-4.836,-4.8259,-4.7908,-4.7029,-4.6753,-4.6778,-4.7043,-4.6627,-4.6301,-4.6301,-4.6828,-4.738,-4.7883,-4.846,-4.9138,-4.9916,-4.9715,-4.9715,-4.9916,-4.969,-5.0067,-5.0946,-5.1172,-5.1774,-5.2603,-5.2829,-5.2929,-5.2929,-5.2929,-5.2929,-5.2929,-5.2929,-5.2929,-5.2929,-5.2929,-5.2929,-5.2929,-4.5573,-4.5397,-4.5698,-4.7581,-4.7732,-4.8134,-4.969,-4.9741,-4.9816,-5.0469,-5.0544,-5.067,-5.0996,-5.1021,-5.0971,-5.0795,-5.0268,-4.9941,-4.9941,-4.9414,-4.8862,-4.8309,-4.8284,-4.7581,-4.61,-4.497,-4.374,-4.2464,-4.1128,-4.0325,-3.9923,-3.9772,-3.9697,-3.9722,-4.0275,-4.0827,-4.1326,-4.1907,-4.2539,-4.2986,-4.2986,-4.2986,-4.2986,-4.2986,-4.2986,-4.2986,-4.2986,-4.2986,-4.3011,-4.3162,-4.384,-4.4769,-4.5573,-4.5924,-4.61,-4.625,-4.6301,-4.6401,-4.6778,-4.7004,-4.733,-4.8109,-4.841,-4.8661,-4.9213,-4.9364,-4.9389,-4.9565,-4.959,-4.959,-4.959,-4.959,-4.959,-4.959,-4.959,-4.954,-4.9364,-4.9364,-4.8937,-4.7807,-4.7682,-4.733,-4.6401,-4.6301,-4.6476,-4.6853,-4.6527,-4.6376,-4.6552,-4.6928,-4.738,-4.7883,-4.846,-4.9038,-4.959,-4.959,-4.959,-4.959,-4.959,-5.0092,-5.1046,-5.1373,-5.2026,-5.2929,-5.2929,-5.2929,-5.2929,-5.2929,-5.2929,-5.2929,-5.2929,-5.2929,-5.2929,-5.2929,-5.2929,-5.2929,-4.6075,-4.6301,-4.6627,-4.7707,-4.8385,-4.8761,-4.8786,-4.9238,-4.9414,-4.8862,-4.8812,-4.9213,-5.0318,-5.0419,-5.0218,-4.9665,-4.9113,-4.8786,-4.8786,-4.8259,-4.7682,-4.7118,-4.7093,-4.6627,-4.5522,-4.4392,-4.3539,-4.2961,-4.1329,-4.0526,-4.0501,-3.9948,-3.9697,-3.9722,-4.0275,-4.0827,-4.1326,-4.1907,-4.2539,-4.2986,-4.2986,-4.2986,-4.2986,-4.2986,-4.2986,-4.2986,-4.2986,-4.2986,-4.3062,-4.3614,-4.4166,-4.4618,-4.4644,-4.5045,-4.5598,-4.615,-4.6301,-4.6301,-4.6326,-4.6728,-4.7068,-4.7093,-4.7531,-4.8083,-4.8661,-4.8786,-4.8937,-4.949,-4.959,-4.959,-4.959,-4.959,-4.959,-4.959,-4.959,-4.9414,-4.8862,-4.8786,-4.8385,-4.728,-4.7093,-4.6928,-4.6376,-4.6301,-4.6301,-4.6326,-4.6301,-4.6552,-4.7043,-4.7068,-4.738,-4.7883,-4.846,-4.9038,-4.959,-4.959,-4.959,-4.959,-4.959,-4.9891,-5.0469,-5.1574,-5.2402,-5.2929,-5.2929,-5.2929,-5.2929,-5.2929,-5.2929,-5.2929,-5.2929,-5.2929,-5.2929,-5.2929,-5.2929,-5.2929,-4.6728,-4.6878,-4.7104,-4.7782,-4.8058,-4.8184,-4.8184,-4.8335,-4.8385,-4.8209,-4.8184,-4.8309,-4.8661,-4.8711,-4.8636,-4.846,-4.8284,-4.8184,-4.8184,-4.8008,-4.7682,-4.7093,-4.7068,-4.6426,-4.4945,-4.4543,-4.3714,-4.2464,-4.1936,-4.1254,-4.0501,-3.9948,-3.9697,-3.9722,-4.0275,-4.0601,-4.0852,-4.1756,-4.2313,-4.2514,-4.2836,-4.2986,-4.2986,-4.2986,-4.2986,-4.2986,-4.2986,-4.2986,-4.3011,-4.3187,-4.3614,-4.4141,-4.4493,-4.5271,-4.6075,-4.625,-4.6301,-4.6301,-4.6301,-4.6451,-4.6652,-4.6993,-4.7255,-4.7631,-4.856,-4.9063,-4.9389,-4.9565,-4.959,-4.959,-4.959,-4.959,-4.959,-4.959,-4.9289,-4.8962,-4.8786,-4.8435,-4.7933,-4.723,-4.7068,-4.6928,-4.6376,-4.6301,-4.6476,-4.6853,-4.6527,-4.6376,-4.6577,-4.6928,-4.738,-4.7883,-4.846,-4.9038,-4.959,-4.959,-4.959,-4.959,-4.959,-5.0092,-5.1021,-5.1774,-5.2402,-5.2929,-5.2929,-5.2929,-5.2929,-5.2929,-5.2929,-5.2929,-5.2929,-5.2929,-5.2929,-5.2929,-5.2929,-5.2929,-4.6753,-4.6828,-4.6928,-4.7255,-4.7481,-4.7606,-4.7606,-4.7782,-4.7832,-4.7631,-4.7606,-4.7531,-4.733,-4.7305,-4.7481,-4.7883,-4.7732,-4.7606,-4.7606,-4.7431,-4.7154,-4.6828,-4.6828,-4.625,-4.497,-4.4744,-4.4016,-4.2816,-4.2414,-4.1605,-4.0501,-4.0174,-3.9898,-3.9722,-4.0275,-4.0526,-4.0576,-4.148,-4.1856,-4.1907,-4.2434,-4.2715,-4.274,-4.2886,-4.2986,-4.2986,-4.2986,-4.2986,-4.2986,-4.2986,-4.3489,-4.4166,-4.4518,-4.5397,-4.6301,-4.6301,-4.6301,-4.6301,-4.6301,-4.6301,-4.6401,-4.6753,-4.6828,-4.7054,-4.7958,-4.8586,-4.9012,-4.9238,-4.9289,-4.9339,-4.9565,-4.9414,-4.9289,-4.9289,-4.8812,-4.8385,-4.8184,-4.7857,-4.7431,-4.6878,-4.6828,-4.6702,-4.6351,-4.6301,-4.6451,-4.6803,-4.6502,-4.6301,-4.6301,-4.7029,-4.7581,-4.7908,-4.8661,-4.9238,-4.959,-4.959,-4.959,-4.959,-4.959,-5.0193,-5.1297,-5.1649,-5.2201,-5.2929,-5.2929,-5.2929,-5.2929,-5.2929,-5.2929,-5.2929,-5.2929,-5.2929,-5.2929,-5.2929,-5.2929,-5.2929,-4.6301,-4.6301,-4.6301,-4.6301,-4.6728,-4.7018,-4.7018,-4.7481,-4.7631,-4.7129,-4.7018,-4.6878,-4.6376,-4.6301,-4.6702,-4.7707,-4.7355,-4.7018,-4.7018,-4.6602,-4.6301,-4.625,-4.625,-4.5974,-4.5372,-4.4844,-4.4292,-4.374,-4.274,-4.1605,-4.0576,-4.0526,-4.0224,-3.9722,-4.0224,-4.045,-4.0501,-4.1,-4.1225,-4.1275,-4.1907,-4.2213,-4.2263,-4.2816,-4.2986,-4.2986,-4.2986,-4.2986,-4.2986,-4.2986,-4.3689,-4.4568,-4.4568,-4.5321,-4.62,-4.6276,-4.6301,-4.6301,-4.6301,-4.6301,-4.6301,-4.6301,-4.6326,-4.6502,-4.7029,-4.7531,-4.8058,-4.8611,-4.8711,-4.8862,-4.9389,-4.9063,-4.8711,-4.8711,-4.8234,-4.7682,-4.7143,-4.7043,-4.6878,-4.6376,-4.6301,-4.6301,-4.6301,-4.6301,-4.6301,-4.6301,-4.6301,-4.6301,-4.6301,-4.733,-4.7908,-4.7908,-4.9012,-4.959,-4.959,-4.959,-4.959,-4.959,-4.959,-5.0167,-5.1222,-5.1272,-5.1875,-5.2879,-5.2904,-5.2929,-5.2929,-5.2929,-5.2929,-5.2929,-5.2929,-5.2929,-5.2929,-5.2929,-5.2929,-5.2929,-4.6301,-4.6301,-4.6301,-4.6301,-4.6426,-4.6502,-4.6502,-4.6602,-4.6652,-4.6527,-4.6502,-4.6451,-4.6326,-4.6301,-4.6401,-4.6677,-4.6577,-4.6502,-4.6502,-4.6376,-4.6125,-4.5698,-4.5673,-4.5221,-4.4217,-4.4066,-4.374,-4.3162,-4.2539,-4.1806,-4.1075,-4.0701,-4.0224,-3.9697,-3.9823,-3.9898,-3.9923,-4.0475,-4.0701,-4.0802,-4.1756,-4.2213,-4.2263,-4.2816,-4.2986,-4.2986,-4.2986,-4.2986,-4.2986,-4.2986,-4.3438,-4.3991,-4.3991,-4.4468,-4.5196,-4.605,-4.6301,-4.6301,-4.6301,-4.6301,-4.6301,-4.6301,-4.6627,-4.6979,-4.7043,-4.7531,-4.7958,-4.8083,-4.8109,-4.8159,-4.8284,-4.8209,-4.8109,-4.8109,-4.7657,-4.728,-4.7093,-4.6778,-4.6451,-4.6326,-4.6301,-4.6301,-4.6301,-4.6301,-4.6301,-4.6301,-4.6301,-4.6301,-4.6301,-4.733,-4.7908,-4.7908,-4.9012,-4.959,-4.959,-4.959,-4.959,-4.959,-4.959,-4.9967,-5.0645,-5.1071,-5.1649,-5.2327,-5.2754,-5.2929,-5.2929,-5.2929,-5.2929,-5.2929,-5.2929,-5.2929,-5.2929,-5.2929,-5.2929,-5.2929,-4.625,-4.6301,-4.6301,-4.6301,-4.6301,-4.6301,-4.6301,-4.6301,-4.6301,-4.6301,-4.6301,-4.6301,-4.6301,-4.6301,-4.6301,-4.6301,-4.6301,-4.6301,-4.6301,-4.6075,-4.5799,-4.5497,-4.5246,-4.4694,-4.3815,-4.379,-4.3413,-4.2665,-4.2363,-4.1756,-4.0899,-4.0902,-4.0475,-3.9697,-3.9697,-3.9697,-3.9722,-4.0023,-4.0149,-4.0224,-4.1078,-4.1555,-4.1831,-4.2384,-4.2816,-4.2986,-4.2986,-4.2986,-4.2986,-4.2986,-4.3338,-4.379,-4.379,-4.4192,-4.4744,-4.5347,-4.5723,-4.5999,-4.625,-4.6301,-4.6301,-4.6301,-4.6527,-4.6753,-4.6753,-4.6979,-4.7255,-4.7506,-4.7556,-4.7631,-4.7857,-4.7707,-4.7556,-4.7556,-4.7104,-4.6753,-4.6753,-4.6502,-4.6301,-4.6301,-4.6301,-4.6301,-4.6301,-4.6301,-4.6301,-4.6301,-4.6301,-4.6301,-4.6301,-4.733,-4.7908,-4.7908,-4.9012,-4.959,-4.959,-4.959,-4.959,-4.959,-4.959,-4.9891,-5.0444,-5.1021,-5.1574,-5.2126,-5.2678,-5.2929,-5.2929,-5.2929,-5.2929,-5.2929,-5.2929,-5.2929,-5.2929,-5.2929,-5.2929,-5.2929,-4.5974,-4.6125,-4.6175,-4.6175,-4.625,-4.6301,-4.6301,-4.6301,-4.6276,-4.62,-4.625,-4.625,-4.6075,-4.62,-4.6276,-4.62,-4.6175,-4.6175,-4.6175,-4.5673,-4.5321,-4.5246,-4.4769,-4.4192,-4.3564,-4.3564,-4.3062,-4.2087,-4.2162,-4.1605,-4.0526,-4.1025,-4.0752,-3.9697,-3.9772,-3.9772,-3.9697,-3.9697,-3.9697,-3.9747,-4.03,-4.0802,-4.1225,-4.1907,-4.2489,-4.2861,-4.2936,-4.2986,-4.2986,-4.2986,-4.3288,-4.3689,-4.3689,-4.3991,-4.4392,-4.4468,-4.4844,-4.5347,-4.5899,-4.6125,-4.62,-4.6276,-4.6301,-4.6301,-4.6301,-4.6301,-4.6451,-4.6903,-4.7004,-4.7154,-4.7581,-4.7305,-4.7004,-4.7004,-4.6552,-4.6225,-4.6301,-4.6225,-4.6225,-4.6301,-4.6301,-4.6301,-4.6301,-4.6301,-4.6301,-4.6301,-4.6301,-4.6351,-4.6426,-4.738,-4.7958,-4.8033,-4.9038,-4.959,-4.959,-4.959,-4.959,-4.959,-4.959,-4.9891,-5.0444,-5.1021,-5.1574,-5.2126,-5.2678,-5.2929,-5.2929,-5.2929,-5.2929,-5.2929,-5.2929,-5.2929,-5.2929,-5.2929,-5.2929,-5.2929,-4.4869,-4.5271,-4.5623,-4.5623,-4.5999,-4.6301,-4.6301,-4.6301,-4.615,-4.5673,-4.6024,-4.5949,-4.4995,-4.5748,-4.6125,-4.5648,-4.5623,-4.5623,-4.5623,-4.507,-4.4543,-4.4091,-4.3966,-4.3463,-4.2489,-4.2464,-4.2108,-4.1455,-4.1932,-4.1605,-4.0526,-4.1025,-4.0752,-3.9722,-4.0174,-4.0124,-3.9697,-3.9697,-3.9697,-3.9747,-4.03,-4.0576,-4.0752,-4.181,-4.2263,-4.2389,-4.2811,-4.2986,-4.2986,-4.2986,-4.3037,-4.3112,-4.3112,-4.3162,-4.3313,-4.379,-4.3991,-4.4192,-4.4744,-4.5246,-4.5723,-4.62,-4.6301,-4.6301,-4.6301,-4.6301,-4.6326,-4.6426,-4.6451,-4.6451,-4.6552,-4.6502,-4.6451,-4.6451,-4.5974,-4.5773,-4.625,-4.5899,-4.5799,-4.625,-4.6301,-4.6301,-4.6301,-4.6301,-4.6301,-4.6301,-4.6301,-4.6527,-4.6979,-4.7581,-4.8134,-4.8611,-4.9264,-4.959,-4.959,-4.959,-4.959,-4.959,-4.959,-4.9891,-5.0444,-5.1021,-5.1574,-5.2126,-5.2678,-5.2929,-5.2929,-5.2929,-5.2929,-5.2929,-5.2929,-5.2929,-5.2929,-5.2929,-5.2929,-5.2929,-4.497,-4.5296,-4.5573,-4.5874,-4.615,-4.6301,-4.6301,-4.6301,-4.6125,-4.5573,-4.5723,-4.5547,-4.4719,-4.5095,-4.5296,-4.5045,-4.4744,-4.4568,-4.4568,-4.4317,-4.4066,-4.3815,-4.3514,-4.3112,-4.2665,-4.2032,-4.1731,-4.1781,-4.1731,-4.1455,-4.0924,-4.153,-4.1178,-4.0149,-4.04,-4.0199,-3.9697,-3.9697,-3.9697,-3.9722,-3.9973,-4.0249,-4.0601,-4.1404,-4.1907,-4.2288,-4.2841,-4.2986,-4.2986,-4.2986,-4.2986,-4.2986,-4.2986,-4.2986,-4.3037,-4.3288,-4.379,-4.4367,-4.4945,-4.5271,-4.5623,-4.6175,-4.6301,-4.6301,-4.6301,-4.6301,-4.6301,-4.6301,-4.6301,-4.6301,-4.6301,-4.6301,-4.6301,-4.6301,-4.61,-4.6024,-4.6276,-4.61,-4.6024,-4.6276,-4.6301,-4.6426,-4.6728,-4.6753,-4.6878,-4.7154,-4.7179,-4.728,-4.7531,-4.8083,-4.8485,-4.8761,-4.9314,-4.959,-4.959,-4.959,-4.959,-4.959,-4.959,-4.9891,-5.0444,-5.1021,-5.1574,-5.2126,-5.2678,-5.2929,-5.2929,-5.2929,-5.2929,-5.2929,-5.2929,-5.2929,-5.2929,-5.2929,-5.2929,-5.2929,-4.4895,-4.5196,-4.5422,-4.5849,-4.6125,-4.6276,-4.6125,-4.6225,-4.6075,-4.5372,-4.5397,-4.5171,-4.4342,-4.4468,-4.4568,-4.4443,-4.4041,-4.379,-4.379,-4.3689,-4.3614,-4.3614,-4.3087,-4.2735,-4.261,-4.1907,-4.1681,-4.1957,-4.1555,-4.1275,-4.13,-4.1756,-4.1505,-4.0701,-4.0701,-4.04,-3.9873,-3.9747,-3.9697,-3.9697,-3.9697,-3.9948,-4.0375,-4.0874,-4.148,-4.2032,-4.264,-4.2861,-4.2986,-4.2986,-4.2986,-4.2986,-4.2986,-4.2986,-4.2986,-4.2986,-4.3664,-4.4543,-4.5121,-4.5296,-4.5447,-4.6125,-4.6301,-4.6301,-4.6301,-4.6301,-4.6301,-4.6301,-4.6301,-4.6301,-4.6301,-4.6301,-4.6301,-4.6301,-4.62,-4.6175,-4.6301,-4.62,-4.6175,-4.6301,-4.6301,-4.6527,-4.7079,-4.7068,-4.7355,-4.7857,-4.7908,-4.7958,-4.8109,-4.8535,-4.8837,-4.8962,-4.9364,-4.959,-4.959,-4.959,-4.959,-4.959,-4.9715,-5.0067,-5.0645,-5.1222,-5.1774,-5.2327,-5.2754,-5.2929,-5.2929,-5.2929,-5.2929,-5.2929,-5.2929,-5.2929,-5.2929,-5.2929,-5.2929,-5.2929,-4.3815,-4.4342,-4.4694,-4.4744,-4.5623,-4.6125,-4.5623,-4.5974,-4.5924,-4.4819,-4.5146,-4.4869,-4.3263,-4.4016,-4.4418,-4.3915,-4.3815,-4.379,-4.379,-4.3313,-4.3037,-4.3037,-4.2564,-4.1982,-4.1426,-4.1882,-4.1856,-4.1351,-4.13,-4.1275,-4.1275,-4.1326,-4.13,-4.1225,-4.1225,-4.0924,-4.0425,-3.9898,-3.9697,-3.9697,-3.9697,-3.9722,-3.9823,-4.0375,-4.0927,-4.1426,-4.2007,-4.259,-4.2986,-4.2986,-4.2986,-4.2986,-4.2986,-4.2986,-4.2986,-4.2986,-4.3388,-4.3991,-4.4543,-4.4694,-4.4945,-4.605,-4.6301,-4.6301,-4.6301,-4.6301,-4.6301,-4.6301,-4.6301,-4.6301,-4.6301,-4.6301,-4.6301,-4.6301,-4.5874,-4.5723,-4.6225,-4.5874,-4.5723,-4.625,-4.6301,-4.6527,-4.7079,-4.7068,-4.7355,-4.7857,-4.7908,-4.8134,-4.8686,-4.8736,-4.9012,-4.9515,-4.9565,-4.959,-4.959,-4.959,-4.959,-4.9615,-5.0117,-5.067,-5.1247,-5.18,-5.2352,-5.2879,-5.2904,-5.2929,-5.2929,-5.2929,-5.2929,-5.2929,-5.2929,-5.2929,-5.2929,-5.2929,-5.2929,-5.2929,-4.3639,-4.3966,-4.4217,-4.4568,-4.5271,-4.5598,-4.5045,-4.5422,-4.5397,-4.4267,-4.4292,-4.4066,-4.3087,-4.3338,-4.3514,-4.3313,-4.3288,-4.3288,-4.3288,-4.3087,-4.2866,-4.2539,-4.264,-4.2409,-4.1856,-4.2112,-4.2112,-4.1856,-4.1505,-4.1505,-4.1831,-4.1505,-4.153,-4.1831,-4.1505,-4.0974,-4.0501,-4.03,-3.9998,-3.9697,-3.9697,-3.9697,-3.9747,-4.03,-4.0799,-4.1351,-4.1957,-4.2564,-4.2986,-4.2986,-4.2986,-4.2986,-4.2986,-4.2986,-4.3037,-4.3388,-4.3639,-4.3991,-4.492,-4.5171,-4.5347,-4.6125,-4.6301,-4.6301,-4.6301,-4.6301,-4.6301,-4.6301,-4.6301,-4.6301,-4.6301,-4.6301,-4.6301,-4.6301,-4.6426,-4.6577,-4.6803,-4.6652,-4.6577,-4.6803,-4.6527,-4.6652,-4.7531,-4.7606,-4.7983,-4.8887,-4.8962,-4.9038,-4.9264,-4.9289,-4.9389,-4.959,-4.959,-4.959,-4.959,-4.959,-4.9766,-5.0117,-5.0318,-5.0896,-5.18,-5.2,-5.2402,-5.2929,-5.2929,-5.2929,-5.2929,-5.2929,-5.2929,-5.2929,-5.2929,-5.2929,-5.2929,-5.2929,-5.2929,-5.2929,-4.3338,-4.3539,-4.3714,-4.4267,-4.4844,-4.502,-4.4443,-4.4844,-4.4869,-4.3915,-4.379,-4.3589,-4.3037,-4.2986,-4.2986,-4.2986,-4.2986,-4.2986,-4.2986,-4.2986,-4.2791,-4.2238,-4.274,-4.2766,-4.2213,-4.2389,-4.2464,-4.2464,-4.1856,-4.1781,-4.2213,-4.1781,-4.1706,-4.1882,-4.1681,-4.1279,-4.0777,-4.0777,-4.045,-3.9948,-3.9948,-3.9848,-3.9747,-4.03,-4.0799,-4.1351,-4.1957,-4.2564,-4.2986,-4.2986,-4.2986,-4.2986,-4.2986,-4.3087,-4.3313,-4.3689,-4.4041,-4.4493,-4.5271,-4.5623,-4.5824,-4.6225,-4.6301,-4.6301,-4.6301,-4.6301,-4.6301,-4.6301,-4.6451,-4.6577,-4.6577,-4.6702,-4.6803,-4.6803,-4.7129,-4.738,-4.738,-4.738,-4.738,-4.738,-4.7054,-4.7179,-4.8083,-4.8184,-4.856,-4.9515,-4.959,-4.959,-4.959,-4.959,-4.959,-4.959,-4.959,-4.959,-4.959,-4.959,-4.9866,-5.0419,-5.0594,-5.1197,-5.2126,-5.2277,-5.2578,-5.2929,-5.2929,-5.2929,-5.2929,-5.2929,-5.2929,-5.2929,-5.2929,-5.2929,-5.2929,-5.2929,-5.2929,-5.2929,-4.276,-4.2961,-4.3137,-4.3689,-4.4242,-4.4443,-4.389,-4.4267,-4.4418,-4.3865,-4.379,-4.3589,-4.3037,-4.2986,-4.2961,-4.2961,-4.2961,-4.2961,-4.2986,-4.2986,-4.2791,-4.2238,-4.274,-4.271,-4.2213,-4.274,-4.2961,-4.2961,-4.2489,-4.2213,-4.2213,-4.2213,-4.1856,-4.13,-4.1907,-4.1856,-4.1275,-4.13,-4.0974,-4.0526,-4.0526,-4.0199,-3.9772,-4.03,-4.0852,-4.1376,-4.1957,-4.2564,-4.2986,-4.2986,-4.2986,-4.2986,-4.2986,-4.3363,-4.379,-4.3815,-4.4618,-4.5497,-4.5497,-4.5899,-4.6301,-4.6301,-4.6301,-4.6301,-4.6301,-4.6301,-4.6301,-4.6326,-4.6753,-4.7068,-4.7093,-4.7556,-4.7908,-4.7908,-4.7908,-4.7908,-4.7908,-4.7908,-4.7908,-4.7908,-4.7908,-4.8134,-4.8711,-4.8761,-4.8987,-4.9565,-4.959,-4.959,-4.959,-4.959,-4.959,-4.959,-4.959,-4.959,-4.959,-4.959,-4.9866,-5.0444,-5.1021,-5.1574,-5.2126,-5.2678,-5.2929,-5.2929,-5.2929,-5.2929,-5.2929,-5.2929,-5.2929,-5.2929,-5.2929,-5.2929,-5.2929,-5.2929,-5.2929,-5.2929,-4.2183,-4.2464,-4.264,-4.3137,-4.3689,-4.3865,-4.3313,-4.3689,-4.384,-4.3288,-4.3212,-4.3162,-4.2986,-4.269,-4.2464,-4.2464,-4.2464,-4.2615,-4.2961,-4.2986,-4.2911,-4.2791,-4.2564,-4.2363,-4.2213,-4.2363,-4.2464,-4.2464,-4.2288,-4.1957,-4.158,-4.158,-4.1505,-4.13,-4.1907,-4.1856,-4.13,-4.1756,-4.158,-4.105,-4.105,-4.1003,-4.0824,-4.0974,-4.143,-4.1932,-4.2162,-4.2564,-4.2986,-4.2986,-4.2986,-4.3037,-4.3438,-4.3664,-4.3966,-4.4744,-4.5221,-4.5573,-4.5949,-4.6175,-4.6301,-4.6301,-4.6301,-4.6301,-4.6301,-4.6301,-4.6426,-4.6803,-4.7029,-4.7255,-4.7606,-4.7807,-4.7908,-4.7908,-4.8259,-4.851,-4.851,-4.851,-4.836,-4.7958,-4.7581,-4.7581,-4.8109,-4.8159,-4.856,-4.9515,-4.959,-4.959,-4.959,-4.959,-4.959,-4.959,-4.959,-4.959,-4.959,-4.9967,-5.0469,-5.1021,-5.1599,-5.2151,-5.2678,-5.2854,-5.2929,-5.2929,-5.2929,-5.2929,-5.2929,-5.2929,-5.2929,-5.2929,-5.2929,-5.2929,-5.2929,-5.2929,-5.2929,-5.2929,-4.1329,-4.1505,-4.1681,-4.2233,-4.2785,-4.3037,-4.271,-4.3112,-4.3363,-4.3011,-4.2986,-4.2886,-4.274,-4.2414,-4.2112,-4.1856,-4.1831,-4.1982,-4.2308,-4.2534,-4.2715,-4.2715,-4.2389,-4.2213,-4.2213,-4.2213,-4.2112,-4.1831,-4.2112,-4.1756,-4.0974,-4.1175,-4.105,-4.0727,-4.1706,-4.1856,-4.1326,-4.1907,-4.1957,-4.1656,-4.1376,-4.1275,-4.13,-4.158,-4.1856,-4.2238,-4.2464,-4.2685,-4.2986,-4.2986,-4.2986,-4.3037,-4.3363,-4.3765,-4.4267,-4.4945,-4.5472,-4.5874,-4.6225,-4.6301,-4.6301,-4.6301,-4.6301,-4.6301,-4.6301,-4.6476,-4.6728,-4.6993,-4.7481,-4.7883,-4.8184,-4.8435,-4.8586,-4.8586,-4.8862,-4.9113,-4.9113,-4.9113,-4.8887,-4.8309,-4.7983,-4.7908,-4.8209,-4.8259,-4.8611,-4.9515,-4.959,-4.959,-4.959,-4.959,-4.959,-4.959,-4.959,-4.959,-4.959,-5.0368,-5.0946,-5.1297,-5.185,-5.2402,-5.2929,-5.2929,-5.2929,-5.2929,-5.2929,-5.2929,-5.2929,-5.2929,-5.2929,-5.2929,-5.2929,-5.2929,-5.2929,-5.2929,-5.2929,-5.2929,-4.04,-4.0526,-4.0701,-4.1304,-4.1831,-4.2238,-4.2263,-4.2715,-4.2986,-4.2986,-4.2986,-4.2816,-4.2263,-4.2162,-4.1856,-4.125,-4.12,-4.1225,-4.1275,-4.1856,-4.2213,-4.2213,-4.2213,-4.2213,-4.2213,-4.2162,-4.1856,-4.1351,-4.1856,-4.158,-4.0601,-4.105,-4.0752,-3.9772,-4.1433,-4.1781,-4.125,-4.1907,-4.2213,-4.2162,-4.1656,-4.1426,-4.1476,-4.2032,-4.2288,-4.2363,-4.2785,-4.2986,-4.2986,-4.2986,-4.3011,-4.3062,-4.3062,-4.3765,-4.4618,-4.4618,-4.5397,-4.6225,-4.6225,-4.6276,-4.6301,-4.6301,-4.6301,-4.6326,-4.6376,-4.6778,-4.7093,-4.7193,-4.8083,-4.8786,-4.8837,-4.9264,-4.959,-4.959,-4.959,-4.959,-4.959,-4.959,-4.9389,-4.8837,-4.8761,-4.8761,-4.8761,-4.8812,-4.9063,-4.9565,-4.959,-4.959,-4.959,-4.959,-4.959,-4.959,-4.959,-4.959,-4.959,-5.072,-5.1272,-5.1297,-5.19,-5.2452,-5.2929,-5.2929,-5.2929,-5.2929,-5.2929,-5.2929,-5.2929,-5.2929,-5.2929,-5.2929,-5.2929,-5.2929,-5.2929,-5.2929,-5.2929,-5.2929,-4.04,-4.0526,-4.0827,-4.1806,-4.2137,-4.2363,-4.2791,-4.2911,-4.2986,-4.2986,-4.2986,-4.2816,-4.2263,-4.1781,-4.1304,-4.0752,-4.0701,-4.0824,-4.125,-4.1856,-4.2213,-4.2213,-4.2213,-4.2213,-4.2213,-4.1731,-4.1656,-4.1982,-4.1656,-4.1404,-4.1125,-4.1225,-4.0752,-3.9747,-4.0978,-4.1204,-4.0752,-4.1785,-4.2213,-4.2238,-4.2509,-4.2635,-4.2635,-4.276,-4.2866,-4.2811,-4.2936,-4.2986,-4.2986,-4.2986,-4.3263,-4.3614,-4.3614,-4.4091,-4.4618,-4.4618,-4.5121,-4.5673,-4.5673,-4.5974,-4.6301,-4.6301,-4.6301,-4.6426,-4.6853,-4.6993,-4.738,-4.8234,-4.8611,-4.8912,-4.9339,-4.9515,-4.959,-4.959,-4.959,-4.959,-4.959,-4.959,-4.9389,-4.8837,-4.8761,-4.8761,-4.8761,-4.9163,-4.9464,-4.959,-4.959,-4.959,-4.959,-4.959,-4.959,-4.959,-4.959,-4.959,-4.959,-5.072,-5.1272,-5.1297,-5.2277,-5.2804,-5.2929,-5.2929,-5.2929,-5.2929,-5.2929,-5.2929,-5.2929,-5.2929,-5.2929,-5.2929,-5.2929,-5.2929,-5.2929,-5.2929,-5.2929,-5.2929,-4.0074,-4.0124,-4.03,-4.0877,-4.143,-4.1856,-4.2158,-4.2635,-4.2986,-4.2986,-4.2986,-4.266,-4.1856,-4.1756,-4.1404,-4.0576,-4.0526,-4.0526,-4.0551,-4.1078,-4.1379,-4.1379,-4.1936,-4.2087,-4.1781,-4.1731,-4.1731,-4.1756,-4.1731,-4.1455,-4.0953,-4.0953,-4.0501,-3.9722,-4.0576,-4.0724,-4.0576,-4.1404,-4.1907,-4.2238,-4.2514,-4.2791,-4.2986,-4.2986,-4.2986,-4.2986,-4.2986,-4.2986,-4.2986,-4.2986,-4.3162,-4.3413,-4.3413,-4.379,-4.4242,-4.4242,-4.4644,-4.5121,-4.5422,-4.5698,-4.5974,-4.625,-4.6301,-4.6451,-4.7004,-4.733,-4.7732,-4.8611,-4.8987,-4.9264,-4.954,-4.959,-4.959,-4.959,-4.959,-4.959,-4.959,-4.959,-4.9289,-4.846,-4.8611,-4.8761,-4.8761,-4.9264,-4.959,-4.959,-4.959,-4.959,-4.959,-4.959,-4.959,-4.959,-4.959,-4.959,-4.959,-5.072,-5.1272,-5.1297,-5.2402,-5.2929,-5.2929,-5.2929,-5.2929,-5.2929,-5.2929,-5.2929,-5.2929,-5.2929,-5.2929,-5.2929,-5.2929,-5.2929,-5.2929,-5.2929,-5.2929,-5.2929,-3.9697,-3.9697,-3.9722,-3.9823,-4.0601,-4.12,-4.1401,-4.2258,-4.2861,-4.2961,-4.2986,-4.2559,-4.1401,-4.158,-4.1404,-4.0576,-4.0425,-4.0224,-3.9848,-4.0249,-4.0526,-4.0526,-4.148,-4.1856,-4.148,-4.1907,-4.1932,-4.148,-4.1756,-4.1455,-4.0651,-4.0475,-4.0124,-3.9722,-4.0174,-4.0375,-4.04,-4.0953,-4.1505,-4.2087,-4.2162,-4.2539,-4.2986,-4.2986,-4.2986,-4.2986,-4.2986,-4.2986,-4.2986,-4.2986,-4.3037,-4.3112,-4.3011,-4.3363,-4.379,-4.3689,-4.4116,-4.4719,-4.5221,-4.5472,-4.5723,-4.62,-4.6301,-4.6476,-4.7129,-4.7606,-4.8109,-4.8761,-4.9264,-4.959,-4.959,-4.959,-4.959,-4.959,-4.959,-4.959,-4.959,-4.959,-4.9238,-4.8309,-4.8611,-4.8887,-4.8786,-4.9264,-4.959,-4.959,-4.959,-4.959,-4.959,-4.959,-4.959,-4.959,-4.959,-4.959,-4.959,-5.072,-5.1272,-5.1297,-5.2402,-5.2929,-5.2929,-5.2929,-5.2929,-5.2929,-5.2929,-5.2929,-5.2929,-5.2929,-5.2929,-5.2929,-5.2929,-5.2929,-5.2929,-5.2929,-5.2929,-5.2929,-3.9697,-3.9697,-3.9848,-4.0325,-4.0526,-4.0953,-4.1961,-4.2213,-4.2489,-4.2911,-4.2986,-4.2559,-4.1401,-4.0551,-4.0149,-4.0475,-4.0074,-3.9973,-4.0375,-4.0475,-4.0526,-4.0526,-4.1103,-4.163,-4.2087,-4.2162,-4.2162,-4.2112,-4.1178,-4.0902,-4.115,-4.0249,-3.9772,-3.9697,-3.9772,-3.9798,-3.9848,-4.04,-4.0953,-4.1505,-4.1957,-4.2539,-4.2986,-4.2986,-4.2986,-4.2986,-4.2986,-4.2986,-4.2986,-4.2986,-4.3288,-4.3614,-4.3137,-4.3363,-4.3714,-4.3237,-4.3815,-4.4644,-4.4719,-4.5447,-4.6225,-4.6301,-4.6301,-4.6577,-4.7581,-4.7857,-4.8209,-4.9264,-4.954,-4.959,-4.959,-4.959,-4.959,-4.959,-4.959,-4.959,-4.959,-4.959,-4.954,-4.9389,-4.9439,-4.9289,-4.8812,-4.9264,-4.959,-4.959,-4.959,-4.959,-4.959,-4.959,-4.959,-4.959,-4.959,-4.959,-4.959,-5.072,-5.1272,-5.1297,-5.2402,-5.2929,-5.2929,-5.2929,-5.2929,-5.2929,-5.2929,-5.2929,-5.2929,-5.2929,-5.2929,-5.2929,-5.2929,-5.2929,-5.2929,-5.2929,-5.2929,-5.2929,-3.9697,-3.9697,-3.9772,-4.0023,-4.03,-4.0676,-4.1153,-4.1505,-4.1781,-4.2032,-4.2057,-4.1756,-4.0953,-4.045,-4.0375,-4.0874,-4.0752,-4.0576,-4.0526,-4.0526,-4.0375,-4.0074,-4.0576,-4.1003,-4.1229,-4.153,-4.1856,-4.2213,-4.1735,-4.1404,-4.1275,-4.0526,-3.9998,-3.9697,-3.9697,-3.9697,-3.9722,-4.0275,-4.0774,-4.1326,-4.1932,-4.2539,-4.2986,-4.2986,-4.2986,-4.3011,-4.3313,-4.3237,-4.3037,-4.3338,-4.3388,-4.3288,-4.3062,-4.3137,-4.3363,-4.3413,-4.379,-4.4292,-4.4945,-4.5472,-4.5924,-4.6225,-4.6301,-4.6527,-4.7305,-4.7707,-4.8234,-4.9364,-4.959,-4.959,-4.959,-4.959,-4.949,-4.9188,-4.9138,-4.9138,-4.9138,-4.9138,-4.9138,-4.9138,-4.8862,-4.8686,-4.8761,-4.9264,-4.959,-4.959,-4.959,-4.959,-4.959,-4.959,-4.959,-4.959,-4.959,-4.959,-4.959,-5.072,-5.1272,-5.1297,-5.2076,-5.2628,-5.2929,-5.2929,-5.2929,-5.2929,-5.2929,-5.2929,-5.2929,-5.2929,-5.2929,-5.2929,-5.2929,-5.2929,-5.2929,-5.2929,-5.2929,-5.2929]}]]